GFSGBSN_con_mlcape_000.txt.gz
CAPE
9 10 16 9 18 14 9 9 19 6 0 0 0 1 1 0 1 3 0 0 0 0 5 0 14 1 0 3 0 7 0 0 0 0 1 1 2 0 0 27 50 18 20 15 2 0 0
9 12 23 7 1 15 12 4 8 2 2 5 3 1 3 0 2 4 1 0 0 17 17 21 18 12 1 1 0 0 16 4 0 4 17 30 27 3 0 14 36 49 39 20 18 3 2
10 3 13 18 5 6 16 13 8 4 0 20 9 1 1 4 0 0 0 1 0 6 14 38 34 0 13 0 0 0 17 3 0 0 0 49 31 43 26 6 16 61 44 63 11 9 6
4 7 0 19 10 15 17 16 9 7 1 4 5 3 0 2 8 0 0 0 0 0 40 28 33 23 6 0 0 0 0 0 0 0 0 0 6 42 35 16 30 19 41 15 0 14 11
5 1 3 9 11 19 33 26 16 8 3 4 0 11 1 8 10 2 3 0 0 1 31 19 15 31 3 0 0 0 0 0 0 0 0 0 0 26 36 9 7 24 2 1 0 23 8
20 1 3 10 19 21 20 33 23 14 11 6 6 10 12 0 16 6 9 0 0 3 4 29 23 20 0 0 0 0 0 0 0 0 0 18 19 16 1 16 0 1 16 1 5 1 36
16 47 12 7 16 22 15 24 17 16 10 7 7 3 13 0 4 13 1 0 0 0 11 0 0 0 3 0 0 0 0 0 0 0 0 5 15 0 0 0 0 6 21 99 48 59 91
20 12 53 17 8 13 26 27 24 16 18 6 2 0 3 0 7 10 13 3 0 0 1 2 0 1 1 7 2 0 0 6 9 5 0 13 3 0 0 0 3 0 10 25 85 202 91
6 11 30 55 12 0 25 16 24 18 21 12 6 0 0 0 2 11 3 0 0 0 0 2 0 0 1 10 7 4 0 0 1 6 7 1 0 0 1 4 10 9 1 30 88 128 77
28 4 19 4 50 23 6 15 22 20 17 17 8 0 0 0 1 0 10 16 1 1 0 0 0 3 0 1 4 1 10 2 7 4 8 22 0 0 0 3 1 2 0 17 2 90 4
43 35 10 15 4 8 26 18 25 25 27 15 0 0 0 0 16 11 1 1 1 1 0 0 6 0 2 0 3 0 0 11 10 0 18 0 0 5 5 0 0 0 0 3 0 0 22
49 51 28 49 3 2 27 40 30 44 33 15 0 0 0 1 0 13 1 2 0 0 0 0 3 3 5 4 5 0 4 25 8 13 9 3 37 37 10 5 0 0 11 0 19 0 12
49 60 51 59 5 1 5 54 45 51 46 21 2 0 0 1 0 0 0 0 0 0 0 0 1 4 1 5 8 3 1 15 6 8 6 19 6 29 20 18 15 101 62 7 9 1 0
72 78 74 56 5 1 4 20 33 46 58 39 19 1 0 0 0 0 1 1 0 1 0 0 1 2 1 6 2 2 9 13 16 18 6 0 0 0 0 0 26 45 0 2 27 0 3
41 63 76 68 19 2 8 51 34 50 53 53 18 4 1 0 0 0 2 0 1 8 3 1 1 0 2 5 4 4 12 4 0 1 8 17 0 7 0 0 53 17 10 0 2 0 0
52 49 74 40 17 14 30 57 41 66 43 64 4 1 1 0 2 7 4 1 2 5 0 2 0 1 1 2 0 2 13 0 0 2 0 0 0 9 17 8 5 6 0 0 2 0 1
62 69 27 22 23 11 31 2 26 43 53 9 0 0 0 1 3 11 4 1 1 3 2 1 0 3 4 0 0 0 0 0 0 0 0 0 0 0 1 5 4 7 5 6 1 6 1
26 44 21 31 35 16 29 1 4 32 34 0 0 0 1 8 5 9 3 1 7 4 1 3 0 1 0 0 0 1 0 0 0 0 0 0 0 0 0 0 2 0 4 0 5 0 0
7 28 34 29 32 34 2 4 1 59 4 0 0 2 6 5 2 3 2 3 2 6 9 5 3 0 2 2 0 0 0 0 0 0 0 3 0 0 0 3 3 12 0 0 0 0 0
9 16 26 22 29 13 17 5 33 65 6 1 0 3 7 6 1 2 3 3 2 1 0 6 0 2 4 1 0 0 0 0 0 0 6 11 3 0 0 0 0 0 0 0 0 24 2
10 21 23 24 30 6 13 4 34 90 10 0 0 0 0 1 1 0 3 2 4 1 1 0 0 0 5 2 5 0 0 3 0 0 2 3 0 2 0 0 0 0 0 0 0 0 0
2 11 18 19 39 17 12 4 3 83 9 0 0 0 15 18 0 1 1 2 2 4 4 3 0 0 17 0 0 0 0 1 0 0 0 0 0 0 0 0 3 0 1 0 0 0 0
4 4 20 19 25 23 6 3 3 31 3 1 0 0 0 4 1 15 14 0 1 3 2 1 0 0 16 8 0 0 0 0 4 0 0 0 0 1 0 0 0 0 0 0 0 0 0
22 5 15 17 22 23 11 9 6 11 23 0 0 0 1 0 0 6 23 19 15 9 5 4 3 6 20 10 5 2 1 5 1 5 0 0 0 0 0 0 0 0 0 0 0 0 0
24 6 10 13 11 32 8 19 17 2 17 0 0 0 1 1 0 0 0 10 9 7 13 6 0 0 1 0 5 12 3 8 3 0 1 0 7 4 0 0 0 0 0 0 0 0 0
19 8 7 12 17 38 16 0 5 3 2 1 0 0 0 0 0 0 0 0 2 4 1 4 0 0 0 0 8 1 0 1 0 0 0 5 13 6 0 0 0 0 0 0 0 0 0
20 11 6 12 16 27 5 5 5 4 4 2 0 0 0 1 0 0 0 0 9 0 0 0 0 0 0 0 8 1 0 0 0 0 1 1 4 0 2 1 0 0 0 0 0 0 0
14 11 3 15 12 17 5 6 1 3 3 4 0 0 0 1 0 0 0 0 2 2 1 0 0 0 1 1 2 0 0 1 0 0 0 0 0 4 1 1 0 0 0 0 0 0 0
10 13 7 12 20 31 13 15 10 3 2 5 1 0 0 0 0 0 0 0 0 0 0 0 0 0 4 5 0 0 0 0 5 1 0 0 0 0 0 0 0 0 0 0 0 0 0

GFSGBSN_con_mlcape_003.txt.gz
CAPE
4 2 1 0 19 16 5 12 10 20 12 0 0 0 2 4 2 0 0 0 0 3 0 9 12 14 3 0 0 1 0 0 0 0 0 8 0 0 0 0 0 0 0 4 0 0 0
27 0 1 0 0 13 11 5 12 16 14 17 6 1 0 0 2 0 0 0 0 1 9 0 0 15 0 0 0 0 0 0 0 7 6 1 2 2 10 0 0 8 7 0 0 0 0
3 56 1 2 0 7 11 8 12 22 11 15 20 8 0 0 0 0 0 8 9 2 0 0 0 0 0 0 0 0 6 8 0 0 0 33 30 38 24 0 0 2 4 3 2 6 2
8 5 47 9 2 0 16 10 28 31 19 9 20 14 0 0 0 0 0 4 4 15 1 11 6 9 0 0 0 0 0 0 0 0 0 0 0 0 17 12 0 9 24 8 0 5 0
3 4 12 41 7 0 10 20 21 40 31 17 11 7 1 0 0 0 0 1 1 8 11 9 0 0 0 0 0 0 0 0 0 0 0 0 0 0 2 7 8 10 1 19 8 1 29
8 1 5 20 54 16 12 17 29 29 27 23 19 9 0 0 0 3 0 0 0 9 0 10 5 10 0 0 0 0 0 0 0 0 0 5 0 0 0 13 2 9 6 3 1 0 42
13 17 8 1 10 70 25 7 15 21 17 22 16 15 6 0 0 3 0 0 0 0 1 0 0 0 0 0 0 0 0 0 1 0 0 0 2 0 0 0 0 0 0 11 0 0 28
23 17 12 14 17 22 80 2 4 16 21 23 24 27 5 0 0 0 1 2 0 0 0 0 0 0 0 2 2 0 0 1 8 1 0 0 0 0 0 0 0 0 0 0 0 0 57
27 30 31 28 18 5 5 59 4 20 28 33 38 23 7 0 0 4 0 0 0 2 1 5 0 0 0 0 0 1 0 0 2 3 0 0 0 0 0 0 0 0 0 0 0 0 10
38 23 30 30 26 8 4 11 80 19 31 40 32 20 13 0 0 0 2 0 4 9 8 0 0 1 8 12 2 2 7 0 12 0 0 0 0 0 1 0 0 0 0 0 0 2 14
28 18 26 26 41 16 50 10 23 98 37 62 48 14 2 0 0 0 0 0 12 10 0 0 0 0 7 5 0 1 13 1 3 0 2 0 0 0 0 0 0 0 0 0 18 12 14
32 36 28 31 60 47 50 5 12 27 89 91 58 15 1 0 0 0 1 1 2 0 0 0 0 0 2 11 13 6 0 11 4 4 1 0 0 4 0 0 0 2 2 3 26 13 2
35 40 28 46 23 57 54 13 13 0 99 128 22 2 0 0 0 0 0 0 1 0 0 0 0 0 0 4 2 11 8 7 1 0 0 0 0 0 4 0 0 26 15 11 13 0 1
39 27 46 53 14 79 67 2 8 0 86 110 2 2 0 0 0 0 0 6 0 0 0 0 0 1 2 0 4 5 2 2 7 1 1 0 0 1 0 0 0 0 6 6 0 0 0
24 18 44 39 35 29 72 11 6 5 79 107 5 9 0 0 0 0 0 0 0 0 0 0 2 0 0 3 1 8 3 0 0 0 0 13 0 32 38 23 69 0 17 0 5 3 7
15 22 25 31 10 12 8 4 0 0 73 32 3 6 1 0 0 0 1 0 0 0 0 0 0 0 0 1 2 0 0 0 0 0 0 0 0 0 34 61 70 0 0 2 3 0 4
18 35 19 29 16 24 33 9 0 20 94 24 2 3 3 0 2 4 1 1 0 0 1 3 2 1 0 0 0 0 0 0 0 0 0 1 0 0 1 0 0 1 17 12 8 0 1
48 51 27 25 19 46 26 13 23 2 2 1 2 2 2 6 4 4 2 0 2 0 3 1 6 3 0 0 0 0 0 0 0 1 0 4 0 0 0 5 0 9 6 5 0 0 2
35 35 26 28 26 29 10 30 22 1 15 2 8 6 3 1 1 1 2 3 2 2 9 7 2 2 5 0 0 0 0 0 0 0 0 0 0 0 1 3 3 7 7 20 2 0 0
24 37 17 18 21 35 29 16 5 3 14 12 2 3 12 10 5 1 1 3 5 2 1 9 5 2 11 6 0 0 0 0 0 0 1 0 1 0 0 2 0 1 1 3 2 0 0
26 33 16 14 23 28 33 13 11 3 11 0 2 4 0 2 1 2 6 2 4 1 0 4 2 0 7 0 0 0 0 0 0 1 5 0 0 0 0 0 0 0 0 2 1 0 0
41 31 25 15 27 19 30 7 5 3 2 0 0 3 2 0 1 1 1 5 8 4 3 4 1 1 6 0 0 0 0 0 0 3 0 0 0 0 1 0 3 0 0 0 0 0 0
35 23 23 14 10 17 22 31 13 6 4 2 0 0 8 3 1 1 1 0 0 0 0 1 1 1 8 0 11 4 0 0 7 0 0 0 1 1 0 2 0 3 0 3 0 0 0
38 21 24 13 23 17 14 34 4 1 6 3 0 1 2 3 0 2 10 12 9 12 7 1 4 0 0 1 0 2 3 2 0 0 0 0 0 0 0 0 0 0 0 0 0 0 0
27 28 21 14 20 29 22 30 11 8 1 0 0 8 0 1 0 0 1 0 4 3 19 2 4 0 0 13 1 4 2 15 8 0 0 0 0 1 0 0 0 0 0 0 0 0 0
34 25 16 14 18 18 5 31 1 8 1 2 0 0 0 0 0 0 0 5 0 0 2 4 0 0 5 5 1 0 0 0 0 8 0 0 0 13 1 0 0 0 0 0 0 0 0
28 23 16 12 14 10 16 22 11 1 1 1 2 0 0 0 0 0 1 1 0 2 2 2 0 0 0 8 2 0 0 0 0 0 0 4 3 0 0 0 0 0 0 0 0 0 0
27 25 18 16 5 22 14 14 16 3 3 1 0 0 2 1 0 0 0 0 0 1 4 0 0 0 0 1 3 1 0 0 0 0 1 1 1 0 1 1 0 0 0 0 0 0 0
25 17 21 18 4 11 18 24 17 1 3 3 0 0 0 0 0 0 0 0 0 0 3 0 0 0 0 3 0 0 0 0 0 0 0 0 0 0 0 0 0 0 0 0 0 0 0

GFSGBSN_con_mlcape_006.txt.gz
CAPE
11 14 38 36 0 0 2 22 12 17 17 38 21 4 2 2 4 0 0 0 0 1 0 2 1 0 0 0 0 0 0 0 0 13 15 1 0 0 0 0 0 0 0 0 0 1 0
4 5 4 16 45 3 0 0 20 15 23 38 38 11 1 0 4 0 0 0 0 0 3 0 0 0 0 0 0 0 0 0 0 0 0 1 0 0 0 0 0 0 0 0 0 0 1
5 3 0 1 17 47 9 0 12 19 31 43 42 26 2 0 0 0 0 0 4 0 0 0 4 0 0 0 0 0 0 0 0 1 4 24 0 22 21 0 0 0 0 0 0 0 0
16 20 4 0 0 4 44 10 0 13 33 36 34 34 13 0 0 0 0 9 0 11 0 15 15 2 0 0 0 0 0 0 0 0 0 0 0 34 7 20 9 3 0 0 0 0 0
4 10 11 15 3 5 14 61 12 3 9 48 45 27 22 0 0 0 6 0 0 0 3 11 0 0 0 0 0 0 0 0 0 0 0 0 0 0 1 15 12 13 0 0 0 0 3
4 10 7 25 14 3 6 16 91 11 2 30 42 35 26 4 0 0 12 0 1 14 5 13 8 1 0 0 0 0 0 0 0 0 0 0 1 0 0 11 1 7 0 0 0 4 1
10 6 16 18 32 12 3 11 4 80 7 27 37 44 24 11 1 5 2 0 0 0 0 0 0 0 0 0 0 0 0 0 0 0 0 0 0 0 0 0 0 2 1 0 0 1 0
23 15 43 18 21 23 7 12 6 11 23 3 40 49 33 9 3 8 0 0 0 0 0 0 0 0 0 0 0 0 0 0 1 0 0 1 2 0 0 0 0 0 0 0 0 0 0
13 6 32 39 15 11 26 18 17 6 90 11 20 67 51 18 8 15 2 0 0 0 0 0 0 0 0 0 1 2 0 0 0 1 1 1 0 0 0 0 0 0 0 0 0 0 0
30 24 21 50 33 12 22 23 5 10 43 26 24 80 75 28 4 0 5 0 0 10 0 0 0 0 3 7 9 2 0 0 4 0 1 1 0 0 0 1 0 0 0 0 0 0 0
40 48 26 44 26 26 38 42 27 43 8 34 50 83 51 1 0 0 0 0 1 16 0 0 0 0 9 2 1 0 0 1 2 0 0 0 0 0 0 0 0 0 0 0 0 4 1
52 35 29 48 24 45 35 4 3 35 31 15 19 98 7 0 0 0 0 1 15 0 0 0 0 0 5 7 9 2 12 12 8 3 2 0 0 0 0 0 0 6 8 10 9 25 0
34 35 19 29 37 85 56 2 18 36 2 39 1 86 0 0 0 0 2 19 0 0 0 0 0 0 0 0 2 14 1 8 0 0 0 0 0 0 0 0 0 2 9 4 2 0 0
31 39 35 36 20 30 23 24 42 62 10 15 3 5 0 0 0 0 4 1 0 0 0 0 0 0 1 0 1 1 9 1 5 0 0 0 0 0 0 0 0 0 0 0 0 0 0
35 50 56 36 29 23 27 11 85 32 8 1 16 5 1 0 2 0 4 2 0 0 0 0 2 3 1 2 1 6 3 2 0 1 0 0 0 0 0 0 0 1 12 0 5 2 1
35 48 45 43 17 24 27 14 27 27 9 13 7 3 2 5 5 5 2 0 0 0 0 0 0 1 0 0 1 3 2 0 2 0 0 0 0 0 0 3 4 0 3 0 3 0 0
23 37 41 25 18 9 26 15 36 20 23 5 3 2 7 19 2 13 2 0 0 0 0 0 2 0 0 0 0 1 0 0 0 0 0 0 1 0 0 0 43 5 11 5 0 1 10
22 28 37 19 16 8 28 35 20 41 26 2 36 2 9 6 3 2 3 1 0 0 1 3 1 1 0 0 0 0 0 0 0 0 0 0 0 0 0 0 0 7 0 0 0 0 0
37 24 29 17 19 12 23 34 29 38 9 24 13 6 9 4 0 2 2 4 1 2 3 2 2 1 0 0 0 0 0 0 0 0 0 1 0 0 0 0 0 19 0 0 0 7 0
27 32 24 19 19 9 19 24 47 17 30 25 2 2 10 6 9 1 2 5 2 3 2 11 7 3 4 13 0 0 0 0 0 0 0 0 0 0 0 2 1 5 4 1 0 1 0
30 33 38 16 20 10 12 24 43 19 3 7 4 1 2 2 3 0 1 2 1 5 1 2 1 1 3 1 0 0 0 0 0 0 8 0 0 0 0 0 0 0 4 0 4 0 0
32 31 31 24 23 8 15 24 33 10 2 41 7 2 2 0 2 2 0 3 3 7 5 3 0 7 0 1 0 0 0 0 0 0 2 1 0 0 0 0 2 1 2 2 2 1 0
36 32 27 17 16 13 11 9 48 4 17 0 10 0 1 0 0 2 1 1 0 9 4 0 2 2 6 0 6 22 13 4 0 0 0 0 0 0 0 3 2 1 0 0 0 2 0
27 29 31 25 15 25 20 29 46 4 21 18 3 0 13 3 0 0 3 0 0 0 0 10 0 4 0 0 6 12 7 1 3 0 0 0 0 1 0 2 0 0 0 0 0 0 0
38 25 32 22 16 24 21 33 37 4 2 5 2 1 0 2 0 0 0 0 0 0 0 10 7 3 1 0 8 4 0 1 0 0 0 0 0 0 0 0 0 0 0 0 0 0 0
32 28 19 21 13 12 10 21 31 9 10 5 1 0 0 0 0 0 0 0 2 0 0 0 0 0 2 9 5 0 0 0 0 0 0 0 0 0 0 0 0 0 0 0 0 0 0
28 29 16 15 22 15 12 14 25 23 17 4 1 0 0 15 1 0 0 0 0 0 0 0 2 6 3 2 1 0 0 0 0 0 1 0 0 0 0 0 0 0 0 0 0 0 0
29 24 11 11 24 13 4 18 30 13 6 4 2 0 10 1 0 0 0 0 0 0 1 1 2 1 7 2 0 1 0 0 0 0 0 0 0 0 0 0 0 0 0 0 0 0 0
14 24 23 6 18 11 4 11 15 7 4 4 1 0 0 0 0 0 0 0 0 0 0 3 0 3 0 2 0 0 0 0 1 0 0 0 0 0 0 0 0 0 0 0 0 0 0

GFSGBSN_con_mlcape_009.txt.gz
CAPE
5 0 0 2 1 3 17 35 10 11 20 32 27 25 15 4 6 10 6 4 0 5 0 0 0 0 2 0 0 0 0 0 0 24 3 14 0 0 0 0 0 0 0 0 0 0 0
7 10 10 3 2 2 2 3 51 6 22 18 45 29 27 3 3 9 8 4 0 1 7 0 0 0 0 0 0 0 0 0 0 4 8 7 0 2 0 0 0 0 0 0 0 0 0
9 13 7 9 17 7 0 2 8 31 9 22 50 38 33 16 0 4 10 12 15 8 0 0 0 0 0 0 0 0 0 0 0 0 0 0 6 3 16 0 0 0 0 0 0 0 0
10 8 12 11 19 21 8 0 0 18 42 22 19 44 39 28 6 0 8 12 27 8 13 6 13 1 0 0 0 0 0 0 0 0 0 0 3 8 32 13 8 12 9 0 0 0 0
5 7 10 11 21 30 31 18 2 12 7 44 2 42 51 45 13 0 9 15 8 6 19 16 0 0 0 0 0 0 0 0 0 0 0 0 0 0 2 5 5 2 0 0 1 0 0
4 3 4 7 13 13 19 19 14 6 3 12 10 25 35 55 19 0 0 23 14 20 16 11 1 0 0 0 0 0 0 0 0 0 0 0 0 0 0 7 0 0 5 3 0 0 0
10 10 6 8 10 14 18 15 16 13 3 7 19 7 50 49 33 3 14 0 0 0 4 0 0 0 0 0 0 0 0 0 0 0 0 0 2 0 0 0 4 1 1 0 2 0 0
15 20 16 17 8 7 26 30 22 8 14 1 4 35 66 57 10 9 0 0 0 0 0 0 0 0 0 0 0 0 0 0 0 1 0 0 0 0 0 0 0 0 0 3 2 0 0
28 43 20 36 19 17 32 32 33 33 13 4 15 44 50 75 49 15 0 0 0 0 0 0 0 0 0 0 1 0 0 0 0 0 0 0 0 0 0 0 0 0 0 1 2 0 0
43 50 44 27 27 31 20 36 37 35 25 1 3 24 36 86 11 6 5 2 0 2 0 0 0 0 0 6 3 0 0 0 2 0 4 3 1 0 0 0 0 0 0 0 0 0 0
29 18 36 41 19 21 33 14 69 31 32 24 26 20 43 21 0 2 0 0 5 3 0 0 0 0 6 0 0 0 0 1 1 0 0 0 0 0 0 0 0 2 0 0 0 0 0
28 31 50 27 39 35 33 44 93 27 5 23 56 34 27 0 0 0 0 0 8 0 0 0 0 1 4 5 5 0 3 11 2 1 1 0 0 0 0 0 0 5 6 1 4 0 1
28 33 74 50 59 48 62 38 69 11 18 45 38 42 11 0 0 0 0 0 0 0 0 0 0 2 1 0 2 5 7 9 6 3 1 2 1 0 1 0 0 0 4 0 1 3 1
35 36 55 64 48 30 23 23 35 24 57 36 39 25 17 0 0 0 0 0 0 0 0 0 0 0 0 0 0 0 6 1 13 0 0 0 0 0 0 0 0 0 0 0 0 0 0
40 52 43 78 55 35 20 24 27 19 24 37 3 50 4 3 0 5 0 0 0 0 0 0 0 0 2 0 0 2 3 2 2 1 0 0 0 0 0 0 0 0 0 0 0 0 1
36 53 70 45 20 21 21 33 20 35 38 16 28 1 3 8 0 2 0 0 0 0 0 0 0 0 0 3 1 2 1 0 0 0 1 0 0 0 0 0 0 0 0 0 0 0 0
37 44 59 41 19 22 17 30 38 32 30 21 6 2 11 8 12 9 1 0 0 0 2 0 0 0 1 1 0 1 0 0 0 0 4 1 0 0 0 0 0 1 1 1 0 0 0
43 36 50 29 22 11 12 25 27 38 21 6 0 0 51 35 5 6 2 0 0 0 0 0 0 4 0 0 0 0 0 0 0 0 3 1 0 0 0 0 0 2 0 2 21 0 0
39 34 60 29 17 13 12 22 14 38 48 9 3 6 39 30 0 0 1 0 2 0 0 0 1 2 1 0 0 0 0 0 0 0 0 0 1 0 2 0 0 0 0 0 0 3 0
39 34 66 31 30 22 11 19 14 26 29 12 11 0 12 14 8 0 0 2 2 1 0 10 3 3 2 1 0 0 0 0 0 0 0 0 0 0 0 0 0 0 4 0 0 0 0
35 50 56 50 16 19 19 19 9 35 5 2 1 2 0 2 2 0 1 2 0 2 3 1 2 2 2 0 1 0 0 0 0 0 2 2 0 0 0 0 1 1 4 0 0 0 0
50 34 65 30 31 10 13 12 18 40 2 6 7 5 3 0 6 0 1 0 6 0 4 2 3 3 3 3 0 0 0 0 0 0 2 3 0 0 0 0 0 0 2 3 0 0 0
37 36 50 39 28 9 8 7 19 28 21 2 1 4 1 2 2 2 0 0 2 4 2 4 1 3 6 2 0 0 0 5 0 0 2 0 0 0 0 1 1 1 1 0 2 1 2
37 49 37 31 29 8 5 7 25 40 30 12 3 0 14 1 1 1 2 0 0 0 0 6 4 6 0 2 2 1 2 1 9 0 0 0 0 0 0 0 0 0 0 0 2 0 0
42 44 45 26 10 13 4 9 29 27 18 5 3 2 12 2 1 2 2 2 1 2 0 0 1 0 5 1 2 4 0 2 0 0 0 0 0 0 0 0 0 0 3 2 0 0 0
36 32 32 27 6 14 9 5 27 19 8 3 1 0 0 0 3 1 2 2 1 1 1 6 0 2 3 3 5 0 0 0 0 0 0 0 0 0 0 0 0 0 0 0 0 0 0
32 16 26 29 8 12 13 7 26 14 3 5 2 1 0 0 0 1 0 0 0 0 0 0 0 1 1 4 3 0 0 0 0 0 0 0 0 0 0 0 0 0 0 0 0 0 0
21 27 26 12 13 4 9 8 20 13 3 4 1 0 0 1 0 0 0 0 0 0 0 0 1 3 3 3 1 1 0 0 0 0 0 0 0 0 0 0 0 0 0 0 0 0 0
24 23 16 11 12 4 9 3 17 14 9 3 1 1 0 0 0 0 0 0 0 0 1 0 2 5 3 0 0 0 1 0 0 0 0 0 0 0 0 0 0 0 0 0 0 0 0

GFSGBSN_con_mlcape_012.txt.gz
CAPE
12 10 8 9 3 2 3 4 2 1 20 33 42 53 59 24 8 0 6 5 8 2 3 7 4 0 8 4 0 0 0 0 3 18 4 5 1 0 0 0 0 0 0 0 0 0 0
5 8 4 7 15 9 5 14 11 0 0 52 43 15 57 41 23 4 4 8 10 1 5 5 8 2 0 0 0 0 0 0 20 45 37 24 0 0 0 0 0 0 0 0 0 0 0
10 7 8 8 9 6 12 15 24 13 0 10 34 25 36 36 27 13 4 8 10 8 0 1 12 0 0 0 0 0 0 0 0 19 5 25 24 0 0 0 0 0 0 0 0 0 0
3 6 7 5 5 9 16 28 21 17 6 3 11 36 8 57 35 21 6 11 20 18 16 14 27 0 0 0 0 0 0 0 0 0 0 0 14 16 15 0 0 3 3 0 0 0 0
5 6 4 7 8 11 5 5 31 18 16 11 9 5 29 25 56 18 8 9 21 1 12 19 1 0 0 0 0 0 0 0 0 0 0 0 0 0 5 0 0 0 0 0 0 0 0
15 5 9 4 6 10 12 12 37 27 22 6 12 1 12 12 74 25 4 17 18 18 20 14 0 0 0 0 0 0 0 0 0 0 0 0 2 5 1 1 0 0 0 0 0 0 0
18 12 5 10 12 11 14 31 45 36 15 36 16 8 0 30 72 19 2 2 1 7 22 0 0 0 0 0 0 0 0 0 0 0 0 0 0 2 4 0 0 0 0 0 0 0 0
19 33 40 40 14 3 2 29 33 29 41 21 22 7 2 6 74 10 0 0 0 0 0 0 0 0 0 0 0 0 0 0 0 0 0 0 0 0 0 1 2 0 0 0 0 0 0
44 47 24 38 37 20 9 20 35 33 40 39 32 7 8 0 35 3 0 0 0 0 0 0 0 0 0 0 0 0 0 0 0 0 0 0 0 0 0 0 1 0 0 0 0 0 0
32 30 26 44 36 24 23 15 45 51 52 52 18 7 12 0 17 0 1 0 0 0 0 0 0 0 0 0 1 0 0 0 1 0 0 0 0 0 0 0 0 0 0 0 0 0 0
18 17 19 42 37 40 32 39 65 70 59 33 17 19 11 12 1 1 0 0 0 0 0 0 0 0 1 0 0 0 0 3 0 0 0 0 0 0 0 0 0 1 0 0 0 0 0
24 29 30 35 44 54 26 44 62 36 14 13 50 22 24 0 1 0 0 0 0 0 0 0 0 6 6 3 9 0 6 10 2 2 0 0 0 0 0 0 0 0 1 0 2 5 1
32 29 37 48 51 60 48 23 23 14 25 88 65 38 34 3 2 0 0 7 0 0 0 0 2 1 2 0 3 1 4 4 1 3 0 3 0 0 0 0 0 0 0 0 0 0 0
31 31 40 53 72 48 39 23 16 23 30 56 54 29 38 1 22 0 0 0 0 0 0 0 0 1 2 0 0 4 3 4 6 4 0 0 0 0 0 0 0 0 0 0 0 0 0
31 41 47 46 67 37 22 25 8 37 21 64 12 13 8 0 1 0 0 0 0 0 0 0 1 0 1 0 0 3 2 4 1 2 0 0 0 0 0 0 0 1 0 0 0 0 0
32 35 46 43 56 38 15 29 10 45 30 31 1 26 0 0 1 30 0 0 0 0 0 0 0 0 0 2 0 2 0 0 1 0 2 1 0 0 0 0 0 0 0 6 0 0 0
21 49 51 46 55 48 23 25 17 34 41 19 0 2 8 5 43 8 0 0 0 0 0 0 0 0 0 0 0 1 0 0 0 0 0 0 0 0 3 0 0 1 2 0 0 0 0
25 44 48 50 69 37 25 8 24 35 30 0 10 0 32 8 4 2 1 0 0 0 1 1 0 0 0 0 0 0 0 0 0 0 0 0 0 0 0 0 0 0 0 0 3 0 0
43 43 38 69 79 51 21 14 28 33 46 3 5 16 53 11 0 1 1 0 0 0 0 0 0 0 0 0 0 0 0 0 0 0 0 0 2 1 0 0 0 1 0 0 0 1 0
39 44 42 63 68 48 10 12 28 35 40 11 4 0 9 6 5 0 1 0 0 0 0 0 2 4 0 3 0 0 0 0 0 0 0 0 0 0 0 0 0 0 1 0 0 0 0
47 50 43 41 61 40 11 4 25 39 3 4 3 1 0 0 1 0 0 0 2 0 0 0 7 2 1 0 1 0 0 0 0 0 8 1 0 1 0 0 0 0 0 0 0 0 0
51 51 46 51 35 21 13 2 13 24 17 1 10 3 0 0 2 0 0 0 0 0 6 2 0 0 2 4 0 0 0 0 0 0 1 1 0 0 0 1 0 0 1 1 0 0 0
54 55 39 38 29 5 12 5 10 41 26 0 0 0 2 1 2 0 0 2 0 2 1 0 0 3 2 2 1 0 0 0 2 0 2 1 0 0 0 0 0 0 1 2 2 3 0
39 53 31 33 26 9 13 7 8 38 27 15 4 4 18 1 3 0 1 0 0 5 2 2 0 7 2 9 3 2 0 0 0 0 0 0 0 0 0 0 0 2 0 0 0 0 0
24 35 30 18 15 16 17 13 7 31 24 4 3 3 22 1 8 0 0 0 0 2 1 1 0 4 24 26 4 9 4 0 0 0 0 0 0 0 0 1 0 0 1 0 0 0 0
24 24 35 23 20 21 12 13 7 31 11 1 1 1 1 0 0 0 3 1 2 1 0 2 0 0 6 6 3 3 0 0 0 0 0 0 0 0 0 0 0 0 0 0 0 0 0
15 22 30 17 13 13 17 15 1 23 8 2 1 1 1 1 0 2 0 0 0 1 0 0 0 0 8 8 0 0 0 0 0 0 1 0 0 0 0 2 0 0 0 0 0 0 0
26 11 26 10 15 11 8 17 2 13 8 5 0 1 1 0 0 0 0 0 0 0 0 0 0 1 1 2 1 0 0 0 0 0 0 0 0 0 1 0 0 0 0 0 0 0 0
32 20 17 25 6 9 6 17 5 10 22 6 1 0 2 0 0 0 0 0 0 0 0 0 0 2 4 16 2 2 0 0 0 0 0 0 0 0 0 0 0 0 0 0 0 0 0

GFSGBSN_con_mlcape_018.txt.gz
CAPE
12 18 9 13 14 10 9 4 3 5 3 3 3 3 9 11 42 47 36 0 0 0 0 0 0 0 0 5 7 0 0 0 18 49 13 6 1 0 0 0 0 0 0 0 0 0 0
11 13 7 6 10 15 10 10 7 7 6 5 5 15 5 22 9 43 28 5 0 1 0 5 0 0 0 0 0 0 0 3 28 46 32 6 5 0 0 0 0 0 0 0 0 0 0
6 3 15 7 17 19 27 22 21 14 8 8 24 23 4 6 11 17 26 34 7 0 0 1 0 0 0 0 0 0 0 0 53 70 39 10 1 2 2 3 3 0 0 0 0 0 0
10 12 5 9 7 12 28 27 24 12 16 8 35 30 17 6 11 6 35 40 15 4 2 0 6 0 0 0 0 0 0 0 2 1 32 31 21 1 0 2 0 0 0 0 0 0 0
9 38 36 21 31 16 23 26 16 8 3 18 23 23 24 21 5 5 15 42 23 21 22 25 0 0 0 0 0 0 0 0 0 0 3 34 5 5 1 0 0 0 0 0 0 0 0
45 28 35 45 45 35 30 19 16 6 18 30 25 18 26 30 7 0 6 47 20 23 25 10 0 0 0 0 0 0 0 0 0 2 1 3 3 1 0 2 0 0 0 0 0 0 0
36 25 47 46 23 30 44 28 31 29 23 21 24 34 43 40 19 3 2 9 11 20 28 0 0 0 0 0 0 0 0 0 0 9 7 8 4 0 0 0 0 0 0 0 0 0 0
29 43 30 30 26 28 27 29 60 46 37 43 55 56 50 27 23 10 14 2 0 0 0 0 0 0 0 0 0 0 0 0 0 1 9 2 2 0 0 1 1 2 0 0 0 0 0
33 32 38 22 28 34 38 42 45 49 36 76 89 41 55 22 5 6 20 4 0 0 0 0 0 0 0 0 0 0 0 0 0 2 1 0 0 0 1 4 3 2 0 0 0 0 0
17 28 41 25 33 41 57 52 61 54 69 57 24 12 28 24 2 0 0 5 0 0 0 0 1 0 0 0 0 0 0 0 0 0 2 4 1 0 0 1 0 0 0 0 0 1 0
18 30 43 25 34 51 55 53 59 39 34 29 25 6 0 39 13 2 3 18 0 0 0 0 1 5 10 0 0 0 0 0 2 0 0 0 0 0 2 0 1 0 0 0 1 2 1
39 48 30 31 41 52 45 48 40 36 29 17 36 23 50 8 12 2 19 15 1 0 0 1 7 9 9 11 4 5 6 10 3 1 1 1 0 0 0 0 0 3 5 8 6 7 1
19 24 34 35 48 45 38 40 29 31 19 22 22 53 26 27 7 31 11 1 0 0 0 0 2 10 4 4 10 3 5 6 1 1 1 4 4 1 0 2 2 11 3 2 1 1 0
21 36 35 43 41 39 49 37 21 20 25 19 65 4 18 49 36 47 37 0 0 0 0 0 7 7 12 3 12 9 6 7 11 2 0 0 0 2 0 1 1 0 3 0 0 0 0
23 34 33 39 38 35 39 29 21 9 8 18 18 0 46 66 32 0 3 0 0 0 0 1 11 4 5 1 3 2 4 2 0 2 0 0 0 0 0 0 1 5 1 0 7 2 10
24 31 31 29 28 38 36 20 20 5 9 33 0 4 37 61 0 0 0 0 0 0 0 0 0 0 1 4 1 1 2 0 1 1 2 1 0 0 0 1 1 4 0 1 3 1 1
18 35 29 31 40 48 35 9 10 7 15 39 0 1 23 31 0 0 0 0 2 0 0 0 0 1 1 1 1 0 1 0 0 0 1 6 3 1 0 0 0 0 3 3 5 5 2
19 30 32 32 32 42 25 5 9 12 11 12 3 0 3 9 0 0 0 0 6 0 0 0 0 0 0 0 2 0 0 0 0 0 2 3 3 0 0 0 0 1 3 4 1 0 0
20 28 34 29 33 23 19 5 7 11 12 5 2 1 10 8 0 0 1 1 0 0 0 0 0 0 0 0 0 0 0 0 0 0 0 1 2 0 0 0 0 2 0 0 3 0 0
24 26 33 31 29 16 20 6 13 4 3 14 1 0 4 1 8 0 0 3 0 0 0 0 0 0 0 0 0 0 0 0 0 0 0 0 2 0 0 0 0 0 0 0 0 0 0
33 24 33 31 30 20 19 3 5 3 1 2 3 0 1 2 4 0 0 0 0 0 0 0 0 0 0 0 2 0 0 0 0 0 0 0 0 0 0 0 0 0 1 2 0 0 0
15 24 28 31 28 7 8 4 2 3 6 0 1 2 4 10 0 1 0 0 0 0 0 0 0 0 0 0 0 0 0 0 1 0 0 3 0 1 0 0 3 1 3 2 2 1 1
10 37 28 27 19 5 5 7 3 2 10 1 1 1 1 6 6 0 0 0 0 0 0 0 0 1 1 0 0 0 0 0 0 0 1 3 0 0 0 0 0 1 0 0 0 2 1
22 30 29 25 26 8 3 1 6 2 14 7 3 2 2 4 0 0 0 0 0 0 0 3 0 2 7 4 7 5 5 13 15 3 0 0 1 0 0 0 0 0 1 1 2 0 2
20 25 23 25 29 15 7 4 7 4 12 1 1 1 1 3 5 0 0 0 0 0 0 3 3 1 8 3 4 1 3 1 0 1 4 0 1 0 0 0 0 1 0 2 3 0 0
13 11 7 8 11 8 4 3 11 1 4 0 0 1 3 2 0 0 0 0 0 0 0 0 0 3 2 12 9 0 2 0 0 0 0 0 6 1 0 0 0 0 0 0 0 0 0
8 6 6 11 20 16 3 5 10 0 9 2 0 2 2 2 4 0 0 0 0 0 0 1 3 2 3 7 4 1 0 0 0 0 0 1 2 0 1 2 0 0 0 0 0 0 0
3 7 4 3 2 9 5 1 0 0 2 4 0 3 1 1 0 0 0 0 0 0 0 0 1 1 2 4 3 2 4 0 0 0 0 0 0 0 0 0 0 0 0 0 0 0 0
2 6 4 1 3 3 4 0 1 4 3 4 1 0 0 1 1 0 0 0 1 0 1 0 1 1 2 1 2 10 4 0 1 2 0 0 0 0 0 0 0 0 0 0 0 0 0

GFSGBSN_con_mlcape_021.txt.gz
CAPE
3 4 6 8 9 12 21 20 12 14 10 3 2 7 9 2 3 15 10 48 12 1 1 2 0 0 0 16 24 0 0 0 34 35 9 8 7 5 0 0 0 0 0 0 0 0 0
3 5 7 7 13 13 10 16 21 19 16 8 6 7 16 18 1 8 8 43 59 10 3 7 0 0 0 6 3 0 0 0 3 35 14 18 14 17 16 5 0 4 0 0 0 0 0
12 12 27 16 16 12 12 3 4 3 10 7 4 13 5 21 18 9 3 22 77 20 8 15 0 0 0 0 0 0 0 0 25 29 29 20 6 1 8 7 4 0 0 0 0 0 0
24 34 29 22 44 21 27 25 32 26 25 6 10 16 25 16 25 9 3 1 71 33 14 13 0 0 0 0 0 0 0 0 33 42 36 10 2 0 3 1 0 0 0 0 0 0 0
16 15 19 37 39 27 39 38 39 66 58 40 7 16 9 7 22 26 6 1 5 15 28 14 1 0 0 0 0 0 0 3 15 0 1 31 23 1 1 6 0 0 0 0 0 0 0
9 23 35 48 43 26 39 38 45 62 42 43 35 10 29 53 37 32 15 0 0 21 42 19 3 0 0 0 0 0 0 12 11 1 7 7 3 1 3 4 0 0 0 0 0 0 0
27 34 38 45 40 31 44 59 66 78 62 64 44 51 31 42 67 29 15 0 41 13 46 0 0 0 0 0 0 0 0 7 6 7 0 3 6 0 0 0 0 0 0 0 0 0 0
21 13 23 29 33 28 40 48 61 81 72 72 59 107 86 53 67 40 13 7 3 3 8 5 0 2 2 0 0 0 0 2 1 5 3 1 3 0 0 0 0 0 0 0 0 0 0
17 22 41 37 21 25 33 53 63 79 88 51 52 66 81 31 52 11 8 0 2 2 8 6 3 2 0 0 4 0 0 1 4 1 1 4 0 0 0 0 0 0 0 0 0 0 0
20 34 31 28 23 29 42 51 52 67 86 32 25 22 5 14 4 30 14 0 1 9 1 2 4 1 0 0 0 2 0 0 2 2 0 2 0 0 0 0 0 0 0 0 0 0 0
35 22 26 25 24 38 40 35 51 48 33 18 25 33 19 38 23 0 12 0 4 12 0 0 5 5 4 0 0 5 1 3 4 2 0 1 0 2 1 0 1 0 0 0 1 2 0
22 29 28 26 26 32 37 50 45 38 20 20 34 48 63 19 19 21 13 33 0 0 0 2 2 3 2 6 6 13 9 7 2 0 1 2 0 0 0 0 0 0 0 2 2 4 0
17 30 25 25 25 30 48 55 59 28 28 22 25 41 43 38 2 74 46 2 0 0 0 1 6 12 5 4 4 3 4 12 0 1 0 2 0 0 0 0 2 3 1 0 1 1 0
20 28 24 28 32 38 49 47 26 29 27 16 22 3 12 11 23 45 1 1 0 1 0 1 15 15 9 2 6 3 1 6 3 2 0 0 0 0 0 0 0 2 3 0 0 0 0
30 27 28 31 40 37 35 29 13 20 23 14 20 1 73 41 12 12 0 0 2 1 0 2 10 8 11 6 1 10 4 3 3 0 0 0 0 0 0 1 0 2 1 0 2 0 0
34 27 28 36 33 39 30 17 20 25 15 12 7 2 38 78 27 0 0 5 1 0 0 2 1 2 0 7 3 1 3 0 0 0 1 1 0 0 1 4 1 2 1 0 1 0 0
27 25 28 28 38 32 25 10 7 9 16 8 3 1 29 2 18 10 0 0 3 1 0 3 0 1 0 1 0 0 1 0 0 1 0 0 1 0 1 1 0 1 2 3 0 6 1
12 28 35 36 40 21 25 6 5 6 11 4 3 0 24 8 0 0 0 2 7 1 2 0 0 0 1 3 0 2 1 0 0 0 3 1 3 0 0 0 0 0 0 1 0 0 0
37 24 35 35 31 28 28 2 8 9 24 10 1 0 16 6 1 1 1 7 10 12 21 3 0 0 0 0 0 1 0 0 0 0 1 1 3 0 0 0 0 0 0 0 0 0 0
16 27 26 27 29 10 26 3 12 2 15 2 1 0 0 3 11 6 1 10 11 16 5 0 0 0 0 0 0 0 0 0 0 0 0 3 4 0 0 0 0 0 0 0 1 0 0
16 24 31 23 24 10 25 6 9 0 0 0 0 2 2 0 4 0 2 4 7 0 0 0 0 0 0 0 1 0 1 0 0 0 0 1 1 2 1 0 0 0 0 1 0 0 0
12 24 26 9 16 27 15 9 5 0 0 0 1 1 0 2 7 6 2 1 0 0 0 0 4 0 0 6 6 5 2 3 2 0 0 1 2 3 0 0 1 0 0 1 2 1 1
13 13 13 5 15 24 16 7 12 0 5 2 0 0 1 6 5 3 5 0 0 0 1 1 3 4 1 6 2 0 0 0 0 0 1 3 0 0 0 0 0 0 1 2 1 2 1
9 6 5 3 0 8 14 10 16 1 9 2 1 2 1 6 6 3 0 0 0 0 4 2 1 4 10 1 0 2 0 0 0 0 0 3 0 1 0 0 0 0 0 0 2 1 0
7 3 3 14 11 10 11 14 12 1 8 0 0 1 2 7 5 3 0 0 0 0 2 1 3 2 0 3 8 4 8 1 0 1 7 0 0 0 0 3 0 0 0 0 1 0 0
11 4 2 5 0 1 12 9 1 0 5 0 0 0 2 0 0 0 0 0 3 5 0 0 0 0 0 13 7 1 0 2 2 2 0 4 1 1 0 0 0 0 0 0 0 0 0
14 5 1 1 1 0 1 1 2 3 2 2 0 0 1 0 6 0 0 0 0 2 6 1 2 3 4 1 8 2 1 5 3 3 0 1 3 0 1 0 0 0 0 0 0 0 0
11 8 2 1 2 0 1 3 5 7 1 2 1 0 0 2 0 1 1 3 1 9 8 4 0 2 1 3 0 0 0 10 0 2 1 1 0 0 0 0 0 0 0 0 0 0 0
9 9 6 1 2 3 1 3 5 5 7 2 4 0 0 2 0 0 0 0 2 9 13 3 17 2 6 0 0 3 5 1 3 4 0 0 0 1 0 0 0 0 0 0 0 0 0

GFSGBSN_con_mlcape_024.txt.gz
CAPE
6 9 10 16 14 13 11 16 11 15 19 23 14 6 9 6 6 5 5 12 10 62 23 3 0 0 0 8 20 2 8 25 51 44 2 3 0 0 0 0 0 0 0 0 0 0 0
12 17 32 25 13 26 21 21 26 14 15 8 19 20 13 16 17 24 10 12 5 49 33 3 0 0 0 6 38 0 0 0 5 37 33 15 7 3 9 0 1 0 0 0 0 0 0
26 20 21 17 32 39 37 31 36 39 46 38 36 20 23 26 21 18 22 9 7 5 67 9 0 0 0 0 0 0 0 0 21 43 35 15 36 14 12 2 5 0 0 0 0 0 0
36 16 20 46 46 58 33 33 39 46 46 76 74 59 42 23 15 15 14 20 6 1 89 28 32 0 7 0 0 0 0 0 13 70 40 35 0 2 10 1 0 0 0 0 0 0 0
20 44 15 26 28 17 31 29 44 54 59 66 73 98 53 24 32 41 47 34 6 0 13 31 15 7 0 0 0 0 0 0 24 29 65 5 6 0 0 1 0 0 0 0 0 0 0
41 20 13 37 37 24 30 35 42 52 59 61 71 81 50 37 23 30 24 32 0 0 62 47 39 12 0 0 0 0 0 1 9 15 43 43 1 0 0 0 0 0 0 0 0 0 0
21 25 32 35 40 19 29 37 45 51 56 62 86 82 50 53 89 77 64 6 2 67 21 7 3 0 0 0 0 0 0 1 9 17 4 16 2 0 0 0 0 0 0 0 0 0 0
18 25 34 29 34 35 36 46 48 46 62 69 105 52 53 52 51 100 66 20 0 3 6 15 3 14 0 0 0 0 0 6 5 9 8 1 0 0 0 0 0 0 0 0 0 0 0
25 10 25 29 41 33 37 40 38 53 76 82 75 33 14 37 62 24 23 0 1 0 6 5 3 13 3 0 0 0 0 3 1 2 0 1 0 0 0 0 0 0 0 0 0 0 0
26 16 22 33 40 31 31 37 52 55 39 29 17 34 17 16 0 23 14 18 0 3 0 2 2 11 0 3 2 0 0 0 0 0 3 1 0 0 0 0 0 0 0 0 0 0 0
34 23 23 34 38 37 31 43 57 42 19 12 23 41 92 61 1 2 1 15 0 9 0 2 1 11 0 0 0 3 0 0 1 0 0 0 0 0 0 0 0 0 0 0 0 0 0
19 21 26 30 41 31 33 30 38 23 21 25 20 28 75 11 22 2 9 23 10 0 0 1 0 5 5 19 4 0 1 0 0 2 4 0 0 0 0 0 0 0 0 0 0 0 0
19 22 32 34 42 31 21 18 16 15 23 19 15 7 61 22 6 26 7 12 4 0 0 0 4 1 7 10 8 4 4 3 0 0 0 0 0 0 0 0 0 1 0 0 0 0 0
10 23 33 38 30 30 20 15 15 13 21 15 16 9 56 50 36 4 1 0 2 1 1 0 7 7 1 4 7 5 11 3 5 0 0 0 0 0 0 0 0 1 0 0 0 0 0
5 25 35 42 37 34 13 20 15 12 14 12 11 0 22 63 32 0 2 0 0 3 2 8 11 3 7 2 1 7 5 6 1 2 0 0 0 0 0 0 0 1 0 0 0 0 0
20 32 24 41 48 31 20 28 12 8 12 8 20 1 30 67 1 0 2 1 0 0 0 3 0 4 0 4 2 8 1 0 0 0 0 1 0 0 1 1 1 0 0 0 2 0 0
28 23 17 46 45 22 6 20 9 19 11 23 0 2 2 38 1 2 0 0 0 2 0 4 0 1 0 1 7 1 0 0 1 0 1 0 0 0 0 0 0 0 1 1 1 0 0
29 13 24 35 44 3 11 12 11 29 16 8 0 0 0 12 0 0 1 0 4 9 4 1 1 0 0 1 1 0 0 0 0 0 1 0 0 0 0 0 0 0 0 0 1 0 0
26 11 25 27 30 6 8 8 7 11 27 6 0 1 13 0 0 2 0 6 9 4 7 0 0 0 0 0 0 1 0 0 1 0 0 0 0 0 0 0 0 0 0 1 0 0 0
22 25 23 18 24 12 9 5 2 1 5 2 1 0 1 0 5 0 0 7 11 16 22 0 0 0 0 0 4 0 1 0 0 1 1 0 0 0 0 0 0 0 0 0 0 0 0
16 19 13 20 29 13 5 0 0 0 0 0 0 2 0 3 10 0 0 10 10 3 4 0 0 0 0 1 3 1 0 0 0 0 0 0 0 0 0 0 0 0 0 0 0 0 0
11 11 7 9 10 7 2 0 0 0 0 0 1 1 0 0 0 0 0 0 1 0 0 0 0 3 0 5 6 1 0 0 0 0 0 1 0 0 0 0 0 0 0 0 1 2 3
7 7 2 14 22 16 8 7 0 0 2 1 0 0 1 0 0 1 2 0 0 0 0 0 0 0 1 4 0 0 0 0 0 0 0 1 0 0 0 0 0 0 0 0 1 1 1
8 8 3 6 6 2 13 3 0 0 4 1 2 2 1 3 0 0 0 0 0 0 0 0 0 2 5 0 0 0 0 0 0 0 0 0 0 0 0 0 0 2 0 0 0 0 4
11 12 6 3 4 2 1 2 0 0 0 0 1 1 2 0 0 0 0 0 0 0 0 0 3 5 0 0 1 4 1 2 0 1 0 0 0 0 2 1 0 0 0 0 0 0 0
13 10 10 6 3 3 2 2 5 2 0 0 0 0 2 0 0 5 0 2 0 0 0 0 0 0 0 2 0 0 0 3 1 0 0 1 1 1 1 0 0 0 0 0 0 0 0
25 5 10 5 9 4 5 2 4 4 0 0 0 0 2 0 1 2 3 0 0 0 2 3 2 1 1 1 0 1 0 0 0 3 1 2 1 0 0 0 0 0 0 0 0 0 0
22 9 8 8 13 11 7 5 4 3 4 0 0 1 0 2 0 0 6 7 0 0 0 2 0 0 0 2 0 0 0 1 0 0 3 0 0 0 0 1 0 0 0 0 0 0 0
30 11 7 10 7 13 15 11 7 3 5 6 1 1 0 2 1 0 0 3 0 0 7 0 11 0 4 2 0 0 0 1 0 0 0 0 1 0 0 0 0 0 0 0 0 0 0

GFSGBSN_con_mlcape_027.txt.gz
CAPE
17 26 22 23 24 19 31 36 27 43 34 25 28 29 48 28 20 12 18 17 11 19 5 88 4 8 0 2 0 10 57 19 47 13 0 0 0 0 0 0 0 0 0 0 0 0 0
40 37 24 33 28 26 17 40 38 39 47 56 26 43 56 29 22 17 13 22 11 13 9 82 18 32 0 0 0 0 5 49 35 2 3 9 0 0 0 0 0 0 0 0 0 0 0
17 15 24 11 26 31 32 23 36 39 61 70 46 63 77 90 53 26 16 16 14 8 4 8 23 18 0 0 0 0 0 0 1 31 0 28 32 16 6 0 0 0 0 0 0 0 0
23 38 26 20 26 32 33 27 44 53 58 62 61 83 88 91 52 31 6 26 21 8 10 2 44 27 1 0 0 0 0 0 3 47 22 53 12 12 7 0 0 0 0 0 0 0 0
38 14 22 17 25 22 27 36 43 50 59 64 68 78 91 71 48 14 40 16 11 4 0 0 20 9 0 0 0 0 0 0 15 65 60 26 7 8 1 1 1 0 0 0 0 0 0
12 23 16 24 31 28 33 32 32 42 52 64 76 93 103 66 65 33 57 58 0 0 0 36 9 8 0 0 0 0 0 0 28 67 49 31 4 1 0 1 0 0 0 0 0 0 0
19 16 28 26 30 33 44 31 30 35 59 77 99 106 87 64 68 64 45 4 0 0 10 1 7 0 0 0 0 0 0 0 7 22 23 5 0 2 0 0 0 0 0 0 0 0 0
23 23 28 29 27 38 29 28 25 50 56 50 56 29 31 14 3 61 37 0 2 0 1 5 4 0 0 0 0 0 0 11 12 0 0 0 1 0 0 0 0 0 0 0 0 0 0
29 14 25 33 30 38 24 22 23 40 28 21 14 19 64 14 11 0 13 13 0 0 2 5 19 2 0 0 0 0 0 0 0 0 1 0 0 0 0 0 0 0 0 0 0 0 0
24 14 21 24 32 31 19 15 21 36 24 13 14 45 50 113 4 0 0 23 0 0 0 2 6 4 0 4 0 0 0 0 6 5 4 0 0 0 0 0 0 0 0 0 0 0 0
17 15 25 33 43 27 16 23 20 32 14 19 23 22 45 53 2 2 0 0 0 0 0 1 8 1 8 0 0 0 0 0 1 0 0 0 0 0 0 0 0 0 0 0 0 0 0
12 13 23 33 40 22 15 28 32 16 6 8 12 21 40 28 21 7 12 2 0 0 0 1 0 7 19 20 0 0 2 0 0 2 0 0 0 0 0 0 0 0 0 0 0 0 0
11 11 21 35 40 27 18 26 40 18 6 10 20 20 37 55 14 2 7 11 0 0 0 0 2 6 2 14 1 0 2 0 0 3 0 1 0 0 0 0 0 0 0 0 0 0 0
12 15 11 36 39 28 16 18 36 14 11 17 15 6 16 19 5 4 5 0 0 0 0 1 1 5 7 5 3 6 1 0 0 0 0 0 0 0 0 0 0 0 0 0 0 0 0
15 11 20 33 29 24 12 35 26 26 11 3 23 0 5 19 23 3 7 0 0 0 1 3 2 4 2 8 2 3 1 0 0 0 0 0 0 0 0 0 0 0 0 0 0 0 0
22 30 31 40 30 14 17 31 18 27 3 16 0 0 12 19 3 3 2 1 0 1 1 0 0 1 2 7 0 2 6 0 0 0 0 0 0 0 0 0 0 0 0 0 0 0 0
21 20 39 34 24 9 16 21 20 12 31 0 0 1 0 6 5 1 0 0 0 1 0 1 0 1 0 7 1 1 0 0 0 0 0 0 0 0 0 0 0 0 0 0 0 0 0
16 13 24 19 26 13 12 13 11 7 7 0 0 0 0 0 0 5 2 0 0 0 28 1 1 0 0 0 0 0 0 0 0 0 0 0 0 0 0 0 0 0 0 0 0 0 0
12 12 16 13 15 1 7 17 0 5 5 0 0 0 0 0 0 0 0 0 4 11 8 0 1 0 0 0 0 0 0 0 0 0 2 0 0 0 0 0 0 0 0 0 0 0 0
14 11 9 7 9 3 2 19 0 1 0 0 0 0 0 0 0 0 0 1 1 7 0 0 0 0 0 0 0 0 0 0 0 0 3 0 0 0 0 0 0 0 0 0 0 0 0
10 9 9 13 17 14 3 6 0 0 0 0 0 0 0 0 0 0 0 0 0 0 0 0 1 0 0 0 0 0 0 0 0 0 0 0 0 0 0 0 0 0 0 0 0 0 0
11 9 7 7 2 3 3 0 1 0 0 0 0 1 0 0 0 0 0 0 0 0 0 0 1 8 4 1 0 0 0 0 0 0 0 0 0 0 0 0 0 0 0 0 0 0 0
19 9 5 8 2 2 2 0 2 3 0 0 0 0 2 0 0 0 0 0 0 0 0 0 0 0 1 2 5 1 0 1 0 0 0 0 0 0 0 0 0 0 0 0 0 1 2
21 5 6 7 7 3 3 3 3 3 0 0 1 1 1 0 0 0 0 0 0 0 0 0 0 0 0 0 0 0 0 0 0 0 0 0 0 0 0 0 0 0 0 0 0 0 0
8 15 8 9 10 6 3 5 3 2 1 0 1 0 1 0 0 0 0 0 0 0 0 0 0 0 0 0 1 3 2 1 0 0 0 0 0 0 0 0 0 0 0 0 0 0 0
4 27 5 13 8 8 8 5 7 3 1 0 2 0 1 0 0 2 3 1 0 0 0 0 0 0 0 0 0 0 0 0 0 0 1 0 0 0 0 0 0 0 0 0 0 0 0
1 27 5 5 8 9 8 7 8 6 4 0 0 0 1 2 0 0 4 1 0 0 0 0 0 0 0 0 0 0 0 0 0 0 0 1 1 0 1 0 0 0 0 0 0 0 0
1 20 8 4 3 8 9 13 11 7 5 1 0 0 0 2 0 0 0 6 1 1 0 0 0 0 0 0 0 0 0 0 0 0 0 0 0 0 0 0 0 0 0 0 0 0 0
1 18 5 2 9 9 4 3 5 12 6 5 0 0 5 0 0 0 0 0 0 0 10 0 3 0 0 1 0 0 1 0 0 0 0 2 0 0 0 0 0 0 0 0 0 0 0

GFSGBSN_con_mlcape_030.txt.gz
CAPE
20 14 16 29 37 26 13 10 27 26 39 55 70 67 45 36 60 31 30 16 3 2 0 1 4 38 3 2 0 0 121 15 25 21 0 0 0 0 0 0 0 0 0 0 0 0 0
11 29 5 18 21 11 30 31 26 39 54 59 86 97 94 112 57 82 36 20 4 7 0 0 4 32 0 0 0 6 56 16 12 11 0 0 0 0 0 0 0 0 0 0 0 0 0
22 15 16 10 19 27 27 28 32 45 48 47 62 100 118 107 57 52 31 26 10 10 1 2 1 28 0 0 0 0 94 79 47 15 0 0 6 1 0 0 0 0 0 0 0 0 0
12 21 25 17 30 27 31 32 34 42 39 50 83 99 102 96 76 51 33 33 9 2 8 5 7 34 0 0 0 0 0 0 4 39 11 23 42 11 0 0 0 0 0 0 0 0 0
15 18 11 26 34 30 31 29 32 23 39 43 76 94 114 122 100 66 53 49 27 13 3 4 0 22 0 0 0 0 0 0 0 42 40 25 32 25 3 0 0 0 0 0 0 0 0
11 21 24 30 27 34 42 38 28 35 38 44 43 66 74 90 98 77 78 60 27 15 0 7 0 5 0 0 0 0 0 0 28 73 49 40 22 14 2 3 0 0 0 0 0 0 0
21 27 13 24 33 45 43 29 22 28 30 26 32 32 42 57 16 16 4 0 0 0 4 8 19 0 0 0 0 0 0 0 26 35 78 29 3 0 4 0 0 0 1 0 0 0 0
22 21 11 27 33 46 39 26 26 22 22 17 28 22 27 80 94 2 0 0 2 0 0 0 10 0 0 0 0 0 0 15 29 8 1 0 3 1 6 1 0 0 0 0 0 0 0
16 12 8 22 35 37 29 26 39 22 28 9 7 27 48 75 113 1 3 1 21 1 0 2 18 3 0 0 0 0 0 22 15 3 0 1 0 0 0 0 0 0 0 0 0 0 0
15 13 21 23 40 33 31 23 42 29 15 8 11 26 33 88 28 0 0 28 6 0 0 1 6 0 0 0 0 0 4 3 8 1 0 0 0 0 0 0 0 0 0 0 0 0 0
13 13 21 23 36 32 25 26 39 36 23 18 11 34 84 86 25 3 0 0 1 0 0 0 4 7 10 0 0 0 0 1 0 0 0 0 0 0 0 0 0 0 0 0 0 0 0
10 17 20 27 34 20 22 16 28 22 14 13 28 58 98 26 10 5 1 0 0 0 0 1 3 1 8 0 0 4 9 0 3 8 0 0 0 0 0 0 0 0 0 0 0 0 0
12 26 11 23 26 31 14 29 15 16 20 19 38 78 23 12 20 2 5 3 0 0 0 0 1 5 2 5 2 11 3 4 6 2 0 0 0 0 0 0 0 0 0 0 0 0 0
18 13 19 35 23 34 30 25 21 26 24 47 47 0 10 13 6 5 0 0 0 0 0 1 6 8 3 13 14 16 8 10 0 0 0 0 0 0 0 0 0 0 0 0 0 0 0
11 14 28 20 20 26 25 16 19 10 14 0 0 0 1 11 11 1 1 0 0 0 1 3 1 1 1 2 14 2 1 1 0 0 0 0 0 0 0 0 0 0 0 0 0 0 0
8 8 14 17 29 15 15 10 3 15 3 0 0 0 0 1 0 0 0 0 0 2 0 0 0 0 0 1 0 0 0 0 0 0 0 0 0 0 0 0 0 0 0 0 0 0 0
7 3 9 6 5 8 9 9 4 10 3 0 0 0 0 0 0 0 0 0 0 1 0 0 0 0 1 1 0 0 0 0 0 0 0 0 0 0 0 0 0 0 0 0 0 0 0
3 1 5 8 15 18 11 2 2 8 3 0 0 0 0 0 0 0 0 0 0 0 0 0 0 0 0 1 0 0 0 0 0 0 0 0 0 0 0 0 0 0 0 0 0 0 0
3 1 3 4 2 12 4 1 0 1 7 0 0 0 0 0 0 0 1 0 0 12 0 0 0 0 0 0 0 0 0 0 0 0 0 0 0 0 0 0 0 0 0 0 0 0 0
7 3 1 2 1 3 4 2 0 0 1 0 0 0 0 0 0 0 0 0 1 0 0 0 0 0 0 0 0 0 0 0 0 0 0 0 0 0 0 0 0 0 0 0 0 0 0
4 5 2 4 0 1 1 2 1 0 0 0 0 0 0 0 0 0 0 0 0 0 0 0 0 0 4 5 0 2 0 0 0 2 1 0 0 0 0 0 0 0 0 0 0 0 0
4 5 2 6 0 0 1 1 1 0 0 0 0 1 0 0 0 0 0 0 0 0 0 0 0 1 1 1 0 0 0 0 0 0 0 0 0 0 0 0 0 0 0 0 0 0 0
0 12 2 5 5 0 1 0 0 0 0 0 0 0 2 0 0 0 0 0 0 0 0 0 0 0 3 3 1 0 0 0 0 0 0 0 0 0 0 0 0 0 0 0 0 0 0
0 13 0 6 9 4 2 2 0 0 0 0 1 1 0 0 0 0 0 0 0 0 0 0 0 0 0 0 0 0 0 0 0 0 0 0 0 0 0 0 0 0 0 0 0 0 0
0 1 7 3 8 9 5 4 4 1 0 0 0 1 1 0 0 0 0 0 0 0 0 0 0 0 0 0 1 2 4 3 1 0 0 0 0 0 0 0 0 0 0 0 0 0 0
0 1 22 0 11 9 13 9 6 2 0 0 1 0 0 2 0 0 0 0 0 0 0 0 0 0 0 0 0 0 0 0 0 0 0 0 0 0 0 0 0 0 0 0 0 0 0
0 0 22 6 8 11 13 12 12 3 0 0 0 0 0 2 0 0 1 0 2 0 0 0 0 0 0 0 0 0 0 0 0 0 1 1 1 0 0 0 0 0 0 0 0 0 0
3 0 7 6 6 8 9 11 11 10 4 0 0 6 0 2 0 0 0 4 6 0 0 0 0 0 0 0 0 0 0 0 0 0 0 0 0 0 1 0 0 0 0 0 0 0 0
12 6 3 25 11 1 8 8 9 8 21 1 0 0 0 1 0 0 0 0 0 0 3 0 0 0 0 0 0 0 0 0 0 0 0 1 0 0 0 0 0 0 0 0 0 0 0

GFSGBSN_con_mlcape_033.txt.gz
CAPE
11 40 9 16 10 11 30 35 36 37 39 34 35 46 67 93 103 93 114 71 39 6 6 0 0 1 15 0 0 0 60 200 32 16 2 6 0 0 0 0 0 0 0 0 0 0 0
22 11 14 4 9 34 30 44 25 34 38 39 30 43 70 137 110 98 96 73 45 28 9 1 0 8 9 0 0 0 98 144 150 29 16 15 0 0 0 0 0 0 0 0 0 0 0
27 21 16 12 26 26 38 42 32 32 28 34 31 29 51 108 124 97 90 58 44 35 17 11 12 4 3 0 0 0 64 134 153 85 10 11 0 0 0 0 0 0 0 0 0 0 0
18 21 7 12 17 33 41 37 44 38 37 35 39 31 71 113 126 105 80 62 34 39 29 23 16 1 1 0 0 0 107 82 125 55 42 33 29 14 0 0 0 0 0 0 0 0 0
19 19 16 10 26 36 40 58 41 43 36 35 24 20 28 51 82 91 88 92 68 59 39 39 8 2 0 0 0 0 1 62 75 88 49 24 26 24 0 2 0 0 0 0 0 0 0
25 16 22 9 33 39 38 37 47 37 46 39 23 7 7 47 59 44 57 67 29 50 21 33 4 4 1 0 0 0 0 4 79 112 77 27 38 10 5 11 0 0 0 0 0 0 0
27 17 15 13 30 34 34 43 40 37 25 45 6 7 11 78 113 107 2 0 0 8 12 0 1 0 0 0 0 0 0 2 84 92 28 19 13 0 0 0 0 0 0 0 0 0 0
18 9 22 15 33 31 29 35 46 40 34 20 0 14 50 74 102 105 5 0 0 0 0 0 1 0 1 0 0 0 0 12 54 52 14 10 9 0 4 2 5 6 3 0 0 0 0
14 12 17 31 25 17 21 32 37 29 34 11 14 0 8 74 124 13 0 2 1 1 1 0 0 4 3 2 0 0 0 65 37 19 0 2 2 5 6 10 15 0 0 0 0 0 0
15 18 17 22 23 22 21 8 11 36 11 10 11 20 36 95 12 0 0 5 6 0 0 1 2 4 6 0 0 0 0 39 31 15 0 0 0 0 0 4 0 0 0 0 0 0 0
15 16 19 22 25 22 10 26 28 26 22 34 43 76 125 57 9 5 1 4 0 0 0 0 1 8 6 0 0 0 0 0 14 0 0 0 0 0 1 0 0 0 0 0 0 0 0
11 10 9 32 15 23 28 27 22 39 42 62 103 61 20 6 11 4 2 2 0 0 0 0 5 3 5 0 0 10 1 0 1 0 0 0 0 0 0 0 0 0 0 0 0 0 0
11 17 13 13 17 17 28 17 23 32 20 2 6 9 0 0 0 1 1 0 0 0 0 0 1 1 2 10 13 8 0 7 9 2 0 0 0 0 0 0 0 0 0 0 0 0 0
7 16 17 11 10 8 13 23 7 30 19 6 0 0 0 0 0 0 0 0 0 0 0 2 5 4 2 15 18 3 9 5 0 0 0 0 0 0 0 0 0 0 0 0 0 0 0
5 9 14 7 3 8 14 12 8 23 7 2 0 0 0 0 0 0 0 0 0 0 1 4 1 0 0 1 18 10 10 6 0 0 0 0 0 0 0 0 0 0 0 0 0 0 0
6 8 14 9 7 8 10 6 3 10 3 0 0 0 0 0 0 0 0 0 1 0 0 0 0 0 0 0 1 3 3 2 2 0 0 0 0 0 0 0 0 0 0 0 0 0 0
3 4 15 5 1 0 2 3 4 5 3 0 0 0 0 0 0 0 0 0 0 0 0 0 0 0 0 0 0 0 0 0 0 0 0 0 0 0 0 0 0 0 0 0 0 0 0
2 0 9 6 0 1 1 2 2 1 0 0 0 0 0 0 0 0 0 0 0 0 0 0 0 0 0 0 0 0 0 0 0 0 0 0 0 0 0 0 0 0 0 0 0 0 0
5 1 3 3 1 0 0 1 1 0 2 0 0 0 0 0 0 0 0 0 0 0 0 0 0 0 0 0 0 0 0 0 0 0 0 0 0 0 0 0 0 0 0 0 0 0 0
1 3 2 2 2 0 0 0 0 0 0 0 0 0 0 0 0 0 0 0 0 0 0 0 0 0 0 0 0 0 0 0 0 0 0 0 0 0 0 0 0 0 0 0 0 0 0
0 4 3 2 2 1 0 0 0 0 0 0 0 0 0 0 0 0 0 0 0 0 0 0 0 0 0 0 0 0 0 0 1 1 0 0 0 0 0 0 0 0 0 0 0 0 0
1 7 2 2 1 2 1 0 0 0 0 0 0 0 1 0 0 0 0 0 0 0 0 0 0 0 2 1 0 0 0 0 0 0 0 0 0 0 0 0 0 0 0 0 0 0 0
4 6 4 1 1 2 3 2 1 0 0 0 0 0 1 0 0 0 0 0 0 0 0 0 0 1 4 0 0 0 0 0 0 0 0 0 0 0 0 0 0 0 0 0 0 0 0
5 1 24 0 0 1 3 3 3 0 0 0 1 0 0 0 0 0 0 0 0 0 0 0 0 0 0 0 0 0 0 0 0 0 0 0 0 0 0 0 0 0 0 0 0 0 0
5 6 22 2 0 0 5 4 4 2 0 0 0 0 0 0 0 0 0 0 0 0 0 0 0 0 0 0 0 1 5 0 1 0 0 0 0 0 0 0 0 0 0 0 0 0 0
4 4 15 16 0 0 11 5 1 4 0 0 2 0 0 0 0 0 0 0 0 0 0 0 0 0 0 0 0 0 0 0 1 2 0 0 0 5 0 0 0 0 0 0 0 0 0
13 5 9 20 0 0 10 13 6 5 3 0 0 0 0 1 0 0 0 0 0 0 0 0 0 0 0 0 0 0 0 0 0 0 0 1 1 0 1 0 0 0 0 0 0 0 0
10 10 1 9 13 6 2 14 19 13 5 0 0 1 0 0 0 0 0 0 0 0 0 0 0 0 0 0 0 0 0 0 0 0 0 0 0 1 1 1 0 0 0 0 0 0 0
9 14 3 5 8 3 1 13 17 14 17 1 0 0 0 0 0 0 0 0 0 0 0 0 0 0 0 0 0 0 0 0 0 0 0 0 0 0 0 0 0 0 0 0 0 0 0

GFSGBSN_con_mlcape_036.txt.gz
CAPE
14 24 7 18 31 18 27 35 45 54 53 49 33 34 31 24 46 75 149 147 124 81 77 29 12 6 7 1 0 0 6 330 0 119 21 26 1 0 0 0 0 0 0 0 0 0 0
15 15 8 29 46 19 38 43 52 70 62 51 48 34 32 23 45 83 159 134 125 111 66 31 14 36 9 1 0 0 0 290 3 152 13 31 4 0 0 0 0 0 0 0 0 0 0
15 25 29 42 8 25 44 48 50 58 51 49 35 33 41 27 51 85 139 110 98 103 67 35 22 31 10 0 0 0 3 227 123 185 13 15 5 0 0 0 0 0 0 0 0 0 0
16 28 30 10 19 31 42 47 46 54 50 68 53 47 19 43 74 119 129 121 96 81 54 57 17 15 21 0 0 0 0 173 210 114 56 7 10 2 0 0 0 0 0 0 0 0 0
15 14 24 14 16 30 29 28 30 54 63 57 68 55 24 25 73 116 77 29 43 85 75 52 17 5 25 0 0 0 0 118 130 71 44 54 56 24 4 0 0 0 0 0 0 0 0
22 17 21 22 28 26 22 27 32 43 54 44 65 25 4 40 100 112 124 1 6 48 55 40 18 0 5 0 0 0 0 83 98 62 39 18 37 11 5 3 0 0 0 0 0 0 0
16 14 20 27 21 26 39 19 16 12 18 27 65 14 6 81 108 31 8 0 0 1 9 0 0 10 0 0 2 0 0 65 63 57 6 6 10 0 1 10 0 0 0 0 0 0 0
9 6 15 31 31 30 30 18 13 21 21 29 15 5 9 21 67 95 3 0 0 1 0 0 0 2 5 4 2 1 0 32 43 14 3 11 8 0 0 1 0 0 0 0 0 0 0
8 11 11 25 45 14 13 30 20 21 55 69 69 77 74 72 91 42 0 0 0 0 0 0 0 11 1 0 3 2 0 30 49 52 2 10 4 12 4 2 1 2 0 0 0 0 0
13 12 18 26 15 37 22 24 25 27 46 66 83 105 125 107 0 7 0 0 0 0 0 0 1 18 5 0 1 0 17 22 36 11 0 0 1 1 6 15 1 0 0 0 0 0 0
5 9 13 11 28 19 7 9 19 26 25 33 28 35 4 0 0 13 0 0 0 0 0 1 0 0 11 0 0 1 0 8 29 1 0 0 5 2 6 0 0 0 0 0 0 0 0
8 5 7 7 8 12 7 15 7 19 24 20 14 25 0 0 0 0 6 1 0 0 2 0 3 3 2 3 2 11 12 0 0 0 0 0 0 0 1 0 0 0 0 0 0 0 0
4 13 4 5 11 7 13 5 10 7 6 4 5 2 0 0 0 0 0 0 0 0 0 0 1 1 0 8 0 7 2 4 6 0 0 1 0 0 0 0 0 0 0 0 0 0 0
11 9 3 3 2 9 5 5 10 5 1 1 0 0 0 0 0 0 0 0 0 1 1 2 3 6 4 12 15 5 1 0 0 0 0 0 0 0 0 0 0 0 0 0 0 0 0
4 8 7 3 0 4 5 1 8 4 0 0 0 0 0 0 0 0 0 0 0 0 1 2 2 0 5 10 5 0 0 0 0 0 0 0 0 0 0 0 0 0 0 0 0 0 0
8 5 6 7 0 0 3 3 2 0 1 0 0 0 0 0 0 0 0 0 0 0 0 0 0 0 0 0 0 0 0 0 0 0 0 0 0 0 0 0 0 0 0 0 0 0 0
6 4 3 7 3 1 1 0 2 2 4 0 0 0 0 0 0 0 0 0 0 0 0 0 0 0 0 0 0 0 0 0 0 0 0 0 0 0 0 0 0 0 0 0 0 0 0
5 4 7 3 6 3 1 0 0 2 1 0 0 0 0 0 0 0 0 0 0 0 0 0 0 0 0 0 0 0 0 0 0 0 0 0 0 0 0 0 0 0 0 0 0 0 0
2 4 3 2 5 5 1 0 0 0 2 0 0 0 0 0 0 0 0 0 0 0 0 0 0 0 0 0 0 0 0 0 0 0 0 0 0 0 0 0 0 0 0 0 0 0 0
3 5 2 5 3 5 1 1 0 0 0 0 0 0 0 0 0 0 0 0 0 0 0 0 0 0 0 0 0 0 0 0 0 0 0 0 0 0 0 0 0 0 0 0 0 0 0
3 5 4 6 6 5 2 0 0 0 0 0 0 0 0 0 0 0 0 0 0 0 0 0 0 0 0 0 0 0 0 0 0 0 0 0 0 0 0 0 0 0 0 0 0 0 0
3 3 15 9 5 5 4 1 0 0 0 0 0 0 0 0 0 0 0 0 0 0 0 0 0 0 3 0 0 0 0 0 1 0 0 0 0 0 0 0 0 0 0 0 0 0 0
1 1 2 13 7 4 4 4 1 0 0 0 0 0 1 0 0 0 0 0 0 0 0 0 0 0 7 0 0 0 0 0 0 0 0 0 0 0 0 0 0 0 0 0 0 0 0
1 2 2 16 3 0 1 3 5 1 0 0 2 1 0 0 0 0 0 0 0 0 0 0 0 0 0 0 0 0 0 0 0 0 0 0 0 0 0 0 0 0 0 0 0 0 0
1 0 1 11 6 0 1 3 2 5 0 0 0 0 0 0 0 0 0 0 0 0 0 0 0 0 0 0 0 2 4 1 0 0 0 0 0 0 0 0 0 0 0 0 0 0 0
5 10 5 12 18 0 0 7 0 1 3 0 0 0 0 0 0 0 0 0 0 0 0 0 0 0 0 0 4 0 0 0 1 1 0 0 0 0 0 0 0 0 0 0 0 0 0
18 13 11 5 33 5 0 0 11 10 8 0 0 0 0 1 0 0 0 0 0 0 0 0 0 0 0 0 0 0 0 0 0 0 0 2 2 0 1 0 0 0 0 0 0 0 0
14 11 19 8 24 38 1 0 0 10 7 0 0 0 0 0 0 0 0 0 0 0 0 0 0 0 0 0 0 0 0 0 0 0 1 0 0 1 0 1 0 0 0 0 0 0 0
3 7 13 7 10 19 36 6 1 1 9 0 0 0 0 0 0 0 0 0 0 0 1 0 0 0 0 0 0 0 0 0 0 0 0 0 0 0 0 0 0 0 0 0 0 0 0

GFSGBSN_con_mlcape_039.txt.gz
CAPE
24 9 3 24 33 28 19 33 39 35 44 49 78 62 68 64 51 34 43 49 63 69 99 64 42 4 9 2 3 0 0 0 22 40 42 4 16 9 3 0 0 0 0 0 0 0 0
9 4 22 24 26 12 24 27 30 35 41 51 74 68 61 56 55 26 42 134 143 166 190 89 41 12 5 2 0 0 0 0 0 88 67 13 1 6 6 0 0 0 0 0 0 0 0
12 17 25 32 29 10 24 27 32 39 47 50 71 96 100 86 52 101 131 119 133 160 155 87 56 8 5 0 0 0 0 14 6 130 116 57 0 1 0 0 0 0 0 0 0 0 0
5 13 26 29 14 20 24 32 30 39 39 43 51 115 144 64 10 104 140 121 143 152 172 115 99 26 1 35 0 0 0 101 26 222 160 106 5 0 0 0 0 0 0 0 0 0 0
11 14 13 29 12 23 28 27 30 19 11 20 29 64 113 19 17 150 103 162 184 159 190 167 30 26 26 52 0 0 0 118 129 175 128 116 44 28 1 0 0 0 0 0 0 0 0
11 8 6 21 11 26 15 32 13 26 30 82 69 49 31 7 64 106 72 99 32 67 90 87 20 15 1 5 4 0 0 11 72 105 64 82 32 16 6 0 0 0 0 0 0 0 0
4 16 21 14 18 14 36 48 17 24 73 112 136 29 16 4 14 42 43 0 0 0 5 0 0 0 14 18 0 0 0 88 89 39 23 23 2 0 2 3 0 0 0 0 0 0 0
6 11 7 12 11 39 12 13 22 37 56 55 75 95 127 77 44 39 1 0 0 0 0 0 0 0 0 24 1 0 0 60 27 8 11 4 1 0 0 3 0 0 0 0 0 0 0
10 4 14 7 15 11 12 16 12 35 36 63 100 70 32 100 74 31 3 0 0 0 0 0 0 0 1 4 2 1 0 10 0 0 10 1 2 7 1 14 3 0 0 0 0 0 0
10 8 8 7 6 4 17 17 9 20 11 8 44 27 2 4 0 1 0 0 0 0 0 4 1 14 3 1 5 0 0 2 18 1 3 3 7 2 0 1 5 0 0 0 0 0 0
6 5 9 8 4 4 10 3 11 14 5 0 4 33 10 0 1 0 0 0 0 0 0 1 2 1 2 0 1 5 0 7 6 3 0 0 5 8 8 4 0 0 0 0 0 0 0
3 8 5 5 4 7 2 3 10 3 4 0 0 0 0 0 0 0 1 0 0 0 0 1 0 3 3 1 9 0 5 4 0 1 0 0 0 1 2 0 0 0 0 0 0 0 0
3 4 4 3 3 7 2 1 6 3 2 0 0 0 0 0 0 0 0 0 0 0 0 0 0 0 1 3 4 4 0 3 3 1 0 2 1 0 0 0 0 0 0 0 0 0 0
7 7 4 4 3 4 9 3 1 4 2 0 0 0 0 0 0 0 0 0 0 0 1 2 2 7 3 7 7 1 2 1 0 0 0 0 1 0 0 0 0 0 0 0 0 0 0
2 9 3 4 5 3 3 5 2 3 1 2 0 0 0 0 0 0 0 0 0 0 1 3 0 1 2 1 0 1 0 0 0 0 0 0 0 0 0 0 0 0 0 0 0 0 0
3 5 6 4 3 2 1 5 3 1 2 1 0 0 0 0 0 0 0 0 1 0 0 0 0 0 0 0 0 0 0 0 0 0 0 0 0 0 0 0 0 0 0 0 0 0 0
6 4 7 6 3 2 1 0 3 1 2 0 0 0 0 0 0 0 0 0 0 0 0 0 0 0 1 0 0 0 0 0 0 0 0 0 0 0 0 0 0 0 0 0 0 0 0
5 4 5 2 2 4 2 0 0 2 0 0 0 0 0 0 0 0 0 0 0 0 0 0 0 0 0 0 0 0 0 0 0 0 0 0 0 0 0 0 0 0 0 0 0 0 0
3 3 10 2 1 7 5 0 0 0 2 0 0 0 0 0 0 0 0 0 0 0 0 0 0 0 0 0 0 0 0 0 0 0 0 0 0 0 0 0 0 0 0 0 0 0 0
4 3 7 5 1 5 2 2 0 0 0 0 0 0 0 0 0 0 0 0 0 0 0 0 0 0 0 0 0 0 0 0 0 0 0 0 0 0 0 0 0 0 0 0 0 0 0
2 2 0 13 2 3 5 5 0 0 0 0 0 0 0 0 0 0 0 0 0 0 0 0 0 0 0 0 0 0 0 0 0 0 0 0 0 0 0 0 0 0 0 0 0 0 0
2 2 1 5 4 0 3 4 0 0 0 0 0 0 0 0 0 0 0 0 0 0 0 0 0 0 0 0 0 0 0 0 0 0 0 0 0 0 0 0 0 0 0 0 0 0 0
2 2 2 4 5 0 1 4 3 0 0 0 0 0 1 0 0 0 0 0 0 0 0 0 0 1 3 0 0 0 0 0 0 0 0 1 0 0 0 0 0 0 0 0 0 0 0
0 1 0 5 21 0 0 5 1 1 0 0 0 0 0 0 0 0 0 0 0 0 0 0 0 1 0 0 0 0 0 0 0 0 0 0 0 0 0 0 0 0 0 0 0 0 0
1 1 3 4 11 9 0 4 3 2 0 0 0 0 1 0 0 0 0 0 0 0 0 0 0 0 0 0 0 1 2 0 0 0 0 0 0 0 0 1 0 0 0 0 0 0 0
0 18 7 9 0 38 8 0 13 8 1 0 0 0 0 0 0 0 0 0 0 0 0 0 0 0 0 0 3 0 0 0 0 0 0 0 0 0 0 0 0 0 0 0 0 0 0
2 16 9 15 3 20 33 0 0 5 2 0 0 0 0 0 0 0 0 0 0 0 0 0 0 0 0 0 1 0 0 0 0 0 1 6 3 0 0 0 0 0 0 0 0 0 0
14 6 3 7 6 13 19 23 4 0 3 0 0 0 0 0 0 0 0 0 0 0 0 0 0 0 0 0 0 1 0 0 0 0 0 0 0 1 2 0 0 0 0 0 0 0 0
5 1 9 13 8 14 16 29 14 0 0 0 0 0 0 0 0 0 0 0 0 0 0 0 0 0 0 0 0 0 0 0 0 0 0 0 0 0 0 0 0 0 0 0 0 0 0

GFSGBSN_con_mlcape_042.txt.gz
CAPE
15 10 18 24 31 20 23 26 33 34 40 40 37 66 107 106 100 106 72 87 117 89 99 91 12 26 0 0 0 12 0 0 296 16 46 27 14 35 6 0 0 0 0 0 0 0 0
13 20 20 23 29 14 23 31 37 31 35 40 32 65 113 157 136 140 163 144 131 144 151 68 39 33 2 0 12 15 0 0 119 10 101 74 1 24 20 4 0 0 0 0 0 0 0
9 24 13 27 22 14 22 24 14 12 20 18 26 24 86 160 45 69 142 198 211 187 217 184 76 14 9 0 40 15 0 0 107 5 14 95 12 31 12 11 0 0 0 0 0 0 0
19 15 7 29 23 19 11 17 14 23 23 43 100 109 58 101 71 24 188 209 205 200 195 209 166 34 4 0 0 0 0 0 34 26 27 204 109 53 17 0 0 0 0 0 0 0 0
13 7 15 28 12 12 28 26 19 28 38 60 84 107 48 47 9 49 148 201 229 213 153 193 69 43 1 57 3 4 0 34 31 21 189 117 121 21 4 0 1 0 0 0 0 0 0
4 6 18 17 7 32 16 16 21 22 37 63 56 72 19 0 0 50 44 150 89 103 127 139 52 2 0 16 35 6 0 2 92 110 107 63 68 20 14 4 0 0 0 0 0 0 0
11 8 18 9 9 16 16 28 19 35 52 62 73 45 75 33 10 20 19 0 5 0 52 0 0 5 18 41 17 0 3 0 136 44 18 35 39 4 0 0 0 0 0 0 0 0 0
2 5 5 7 7 17 28 19 32 20 26 27 49 15 23 25 19 22 7 0 0 7 0 0 0 0 0 3 19 2 4 29 17 10 29 14 6 8 21 18 2 0 0 0 0 0 0
2 8 6 7 6 5 18 17 31 23 16 10 8 1 1 0 2 11 1 0 0 0 10 11 14 0 0 33 29 6 21 0 5 14 10 4 11 7 11 20 9 0 0 0 0 0 0
1 4 4 5 4 3 8 17 28 13 5 2 0 0 0 0 0 0 0 0 0 0 5 0 2 5 28 34 18 22 2 0 1 3 14 9 13 0 0 16 19 2 0 0 0 0 0
2 5 4 3 2 3 2 5 19 13 3 1 0 0 0 0 0 3 0 0 0 0 0 1 2 1 12 4 3 8 0 25 3 0 0 1 4 12 7 3 9 1 0 0 0 0 0
1 6 4 5 3 3 3 3 13 9 2 3 1 0 0 0 0 0 4 0 0 0 0 1 3 5 0 7 8 14 15 1 1 5 0 1 0 0 6 0 5 0 0 0 0 0 0
1 3 4 3 4 3 1 3 5 6 5 1 1 0 0 0 0 0 0 0 0 0 0 0 2 11 1 7 2 1 13 3 2 0 0 1 2 4 0 0 0 0 0 1 0 0 0
1 4 6 3 3 4 2 0 1 3 1 1 1 0 0 0 0 0 1 0 0 2 2 0 5 4 1 4 2 2 11 1 0 0 1 0 0 1 0 2 0 0 0 0 0 0 0
1 3 5 4 3 4 4 1 0 1 3 2 0 0 0 0 0 1 0 0 0 1 3 4 3 2 2 0 1 1 1 0 0 0 0 0 0 0 0 0 0 1 0 0 0 0 0
1 2 2 4 5 2 2 2 1 1 3 0 0 0 0 0 0 0 0 0 1 0 0 0 0 0 0 0 0 2 1 0 0 0 0 0 0 0 0 0 0 0 0 0 0 0 0
3 3 2 3 3 3 1 0 1 1 1 0 0 0 0 0 0 0 0 0 0 0 0 0 0 0 0 0 0 0 0 0 0 0 0 0 0 0 0 0 0 0 0 0 0 0 0
4 4 3 4 0 2 0 0 0 0 2 0 0 0 0 0 0 0 0 0 0 0 0 0 0 0 0 0 0 0 0 0 0 0 0 0 0 1 0 0 0 0 0 0 0 0 0
3 2 2 14 1 1 1 0 0 0 1 0 0 0 0 0 0 0 0 0 0 0 0 0 0 0 0 0 0 0 0 0 0 0 0 0 0 0 0 0 0 0 0 0 0 0 0
2 1 3 7 4 0 0 0 0 0 0 0 0 0 0 0 0 0 0 0 0 0 0 0 0 0 0 0 0 0 0 0 0 0 0 0 0 0 0 0 0 0 0 0 0 0 0
1 0 3 3 8 1 0 0 0 0 0 0 0 0 0 0 0 0 0 0 0 0 0 0 0 0 0 0 0 0 0 0 0 0 0 0 0 0 0 0 0 0 0 0 0 0 0
2 1 1 3 6 3 0 1 0 0 0 0 0 1 1 0 0 0 0 0 0 0 0 0 0 0 0 0 0 0 0 0 0 0 0 0 0 0 0 0 0 0 0 0 0 0 0
1 2 1 1 1 11 0 1 0 0 0 0 0 0 1 0 0 0 0 0 0 0 0 0 0 1 1 0 0 0 0 0 0 0 0 0 0 0 0 0 0 0 0 0 0 0 0
1 1 2 1 5 18 4 0 8 5 0 3 0 1 1 0 0 0 0 0 0 0 0 0 0 1 0 0 0 0 0 0 0 0 0 0 0 0 0 0 0 0 0 0 0 0 0
1 1 9 0 0 0 25 1 5 3 0 0 0 0 1 0 0 0 0 0 0 0 0 0 0 0 0 0 0 2 2 0 0 1 0 0 0 0 0 1 0 0 0 0 0 0 0
0 1 1 0 0 0 22 14 1 2 0 0 0 0 1 0 0 0 0 0 0 0 0 0 0 0 0 4 6 2 0 0 0 1 0 0 1 4 0 0 0 0 0 0 0 0 0
7 11 0 0 0 1 4 19 19 2 0 0 0 0 0 0 0 0 0 1 0 0 0 0 0 0 0 7 6 0 1 0 0 0 1 7 3 3 3 0 0 0 0 0 0 0 0
22 6 0 0 0 6 6 9 12 18 5 0 0 0 0 0 0 0 0 0 1 0 0 0 0 0 0 9 12 11 0 0 0 0 0 0 0 0 4 1 0 0 0 0 0 0 0
20 4 1 0 4 21 10 1 1 16 34 0 0 0 0 0 0 0 0 0 0 0 0 0 1 0 0 8 0 0 0 0 0 0 0 0 0 0 0 0 0 0 0 0 0 0 0

GFSGBSN_con_mlcape_045.txt.gz
CAPE
7 17 18 18 29 9 22 24 12 13 17 22 33 55 52 86 147 133 128 167 85 138 109 92 64 22 5 7 0 130 266 584 319 42 12 23 2 11 7 0 0 0 0 0 0 0 0
7 19 14 17 12 23 11 6 33 17 29 45 72 102 111 82 128 93 132 157 171 164 129 94 42 13 24 10 0 162 0 84 343 113 5 20 1 17 26 10 0 0 0 0 0 0 0
5 6 10 16 21 10 17 31 9 11 29 55 68 90 136 121 107 96 57 127 204 159 154 177 73 18 30 1 32 169 0 0 82 208 4 14 15 72 20 13 13 3 0 0 0 0 0
6 8 8 16 9 15 15 2 5 27 29 47 67 82 104 91 69 75 24 222 227 212 209 191 144 19 15 0 0 12 18 2 215 284 12 71 100 53 28 18 21 11 6 0 0 0 0
7 10 9 9 9 13 18 25 17 23 29 33 42 47 89 6 31 1 94 158 218 210 241 179 84 38 16 0 0 0 12 3 88 160 36 208 204 61 63 18 28 11 0 0 0 0 0
6 9 13 7 7 18 15 12 14 21 26 31 36 20 63 11 0 7 23 57 67 92 125 89 45 13 0 4 28 15 57 32 136 52 25 107 185 37 17 35 1 0 0 0 0 0 0
4 7 4 9 7 3 9 5 17 25 22 16 32 1 34 2 0 9 30 0 121 28 29 11 4 2 34 126 210 159 29 9 153 48 15 38 45 1 1 0 0 0 0 0 0 0 0
1 5 11 6 8 3 10 8 18 21 8 16 36 0 0 6 0 8 30 18 15 58 8 0 0 0 0 0 116 69 17 9 62 10 12 33 5 4 9 13 9 0 0 0 0 0 0
2 5 7 7 5 4 3 10 17 18 15 17 31 3 0 3 9 0 4 0 16 40 4 0 1 0 30 91 39 46 2 1 15 8 19 2 0 9 11 12 22 8 0 0 0 0 0
2 4 6 6 4 7 1 9 15 15 12 9 18 2 0 0 0 0 1 0 0 0 0 0 1 6 73 59 44 8 0 0 0 18 25 19 1 2 26 12 16 16 8 1 0 0 0
2 4 4 6 6 6 8 8 9 12 11 7 2 2 0 0 0 0 2 0 0 5 10 1 0 14 22 43 16 10 2 17 2 0 1 1 13 11 20 20 10 23 0 0 0 0 0
1 4 5 5 6 4 4 7 9 2 7 6 1 2 0 1 0 0 3 2 3 0 0 1 13 19 22 19 9 9 9 21 4 0 0 2 0 0 7 2 25 0 0 0 0 0 0
2 3 6 4 4 3 3 3 5 7 6 4 1 1 0 0 1 0 0 1 1 0 0 0 11 15 7 5 4 10 5 6 1 0 0 0 0 1 0 0 0 0 2 1 0 0 0
0 2 2 4 3 2 3 2 1 2 3 4 0 0 0 0 3 1 0 0 0 4 2 3 6 2 2 1 1 7 17 1 1 3 0 0 0 0 1 0 0 0 6 19 0 0 0
0 0 3 3 1 2 2 1 0 0 1 1 0 0 0 0 1 0 1 0 0 0 5 4 1 12 8 5 0 9 5 2 2 1 0 0 0 3 4 0 0 0 0 0 0 0 0
1 1 3 2 2 2 2 0 0 0 0 1 0 0 0 0 0 1 0 1 6 5 1 0 4 0 8 3 2 4 4 0 0 0 0 0 0 1 2 2 1 1 0 0 0 0 0
1 1 0 5 1 0 1 1 0 0 0 0 0 0 0 0 0 0 0 0 5 0 0 0 0 0 1 1 3 2 1 0 0 0 0 0 0 0 0 0 1 1 0 0 0 0 0
0 1 0 2 4 0 1 1 0 0 1 0 0 0 0 0 0 0 0 0 0 0 0 0 0 0 0 0 0 1 0 0 0 0 0 0 0 1 3 0 0 0 0 0 0 0 0
0 2 2 0 4 3 0 1 0 0 0 2 0 0 0 0 2 0 0 0 0 0 0 0 0 0 0 0 0 0 0 0 0 0 0 0 0 0 0 0 0 0 0 0 0 0 0
2 1 1 2 1 3 0 0 0 0 0 0 0 0 0 0 0 0 0 0 0 0 0 0 0 0 0 0 0 0 0 0 0 0 0 0 0 0 0 0 0 0 0 0 0 0 0
3 1 2 1 2 4 0 0 0 0 0 0 0 2 0 4 0 0 0 0 0 0 0 0 0 0 0 0 0 0 0 0 0 0 0 0 0 0 0 0 0 0 0 0 0 0 0
0 4 3 2 2 6 1 0 0 0 0 0 0 0 0 0 0 0 0 0 0 0 0 0 0 0 0 0 0 0 0 0 0 0 0 0 0 0 0 0 0 0 0 0 0 0 0
0 0 0 0 0 2 8 0 0 0 0 0 1 4 2 0 0 0 0 0 0 0 0 0 0 0 0 1 0 0 0 0 0 0 0 1 0 0 0 0 0 0 0 0 0 0 0
0 0 7 0 1 2 16 0 0 0 0 0 2 2 1 0 0 0 0 0 0 0 0 0 0 2 0 0 0 0 0 0 0 0 1 3 7 2 0 0 0 0 0 0 0 0 0
0 0 3 1 0 2 4 13 2 0 0 0 0 0 1 0 0 0 0 0 0 0 0 0 0 2 0 1 3 4 6 3 2 0 0 6 5 7 0 1 0 0 0 0 0 0 0
0 0 2 1 0 0 2 18 11 1 0 0 0 0 2 0 0 0 0 0 0 0 0 0 0 0 1 10 11 2 2 0 3 7 2 0 7 1 1 0 0 0 0 0 0 1 0
0 8 2 2 0 0 5 11 9 5 2 0 0 0 0 0 0 0 0 0 1 0 0 0 0 2 1 7 7 0 0 1 1 0 2 8 8 2 5 1 0 0 0 0 0 0 0
3 13 2 1 1 2 21 6 4 1 8 1 5 0 0 0 0 0 0 0 0 4 4 1 0 2 15 15 4 3 2 2 1 2 0 0 1 2 1 3 0 0 0 3 1 0 0
6 14 1 0 0 0 15 6 26 0 0 0 3 0 0 2 0 0 0 0 0 0 0 0 2 1 18 15 15 16 4 0 0 1 0 0 0 0 0 0 0 0 0 4 0 0 0

GFSGBSN_con_mlcape_048.txt.gz
CAPE
10 10 4 19 26 11 19 15 2 3 10 28 46 85 95 117 72 102 145 159 165 139 118 109 70 41 16 1 0 47 16 79 309 152 17 43 0 5 1 0 0 0 0 0 0 0 0
6 10 11 17 10 12 19 4 12 21 23 35 34 61 84 101 76 108 78 168 189 239 176 170 102 21 12 4 0 26 70 205 286 156 5 38 0 2 3 4 0 0 0 0 0 0 0
2 6 12 10 10 16 13 14 17 22 25 37 37 51 51 98 172 67 85 80 201 259 206 198 138 10 28 1 39 201 45 38 267 143 10 16 1 19 104 11 2 9 5 0 0 0 0
8 6 8 7 8 8 15 14 12 33 31 28 33 31 32 55 10 6 14 128 220 261 243 164 157 26 2 0 0 0 34 0 3 181 58 5 77 14 116 31 19 11 18 6 0 0 0
6 6 6 5 7 7 4 9 12 36 35 35 27 5 38 1 9 0 22 88 185 219 259 191 90 51 3 0 0 0 11 11 155 189 265 103 131 48 39 20 26 17 0 0 0 0 0
4 5 5 4 5 7 7 6 14 34 26 33 26 0 13 3 0 2 7 28 78 93 88 119 49 12 1 45 0 0 0 0 130 141 115 55 46 16 11 35 0 0 0 0 0 0 0
5 4 4 4 7 6 3 3 12 22 25 17 30 0 16 3 0 0 69 82 46 15 22 0 1 3 0 0 32 0 72 64 115 69 2 27 1 0 0 0 0 0 0 0 0 0 0
3 4 4 4 5 7 5 2 3 8 11 14 14 21 1 3 13 0 5 0 0 1 2 0 0 0 0 0 85 111 77 15 41 9 1 0 2 0 1 0 0 0 0 0 0 0 0
2 3 5 3 5 7 8 5 1 6 11 5 4 12 1 0 0 1 0 0 0 0 2 0 0 3 23 0 18 137 9 0 12 0 13 11 0 24 23 3 2 0 0 0 0 0 0
1 2 4 5 2 4 7 7 6 3 3 8 5 4 2 0 0 0 0 0 0 0 0 0 3 27 80 21 19 11 0 1 0 2 10 15 9 0 17 13 8 10 0 0 0 0 0
1 1 3 3 3 6 6 7 5 2 2 1 6 3 1 0 0 0 0 0 0 0 6 0 0 0 0 11 2 1 0 0 0 16 14 19 6 1 8 11 9 11 4 0 2 0 0
0 0 1 1 2 5 7 4 4 2 2 4 1 0 1 1 0 0 0 0 1 0 0 0 9 0 10 19 2 3 6 0 0 6 0 0 0 1 0 15 9 9 0 0 0 0 0
0 0 1 3 2 2 3 6 6 1 0 2 4 1 0 0 2 1 2 1 0 0 0 3 5 12 3 6 4 0 0 1 0 0 0 0 0 0 2 4 0 0 2 0 0 0 0
0 0 0 3 3 1 1 0 4 1 0 0 0 0 0 0 1 4 0 0 0 1 1 0 2 2 0 0 1 3 2 0 5 0 0 0 0 0 0 0 0 1 0 1 0 0 0
0 0 0 2 3 2 2 0 0 0 0 0 0 0 0 0 0 0 1 0 0 0 5 11 9 5 10 0 0 8 3 3 2 1 0 0 0 3 0 0 0 0 1 0 0 0 0
0 0 0 2 3 1 1 0 0 0 0 0 0 0 0 0 0 0 0 0 1 2 1 0 1 0 8 10 8 3 6 0 0 0 0 0 0 2 2 2 0 0 0 1 0 0 0
0 0 0 2 1 4 2 1 0 0 0 0 0 0 0 0 0 0 0 0 0 0 0 0 0 0 0 0 3 1 1 0 0 0 0 0 0 2 1 0 0 0 0 0 0 0 0
0 1 1 2 3 1 3 2 0 0 0 0 0 0 0 0 0 1 0 0 0 0 0 0 0 0 1 0 2 0 0 0 0 0 0 0 0 0 0 0 0 2 0 0 0 0 0
0 0 1 2 2 3 1 1 0 0 0 1 0 0 0 0 2 1 0 0 0 0 0 0 0 0 0 0 0 0 0 0 0 0 0 0 0 0 0 0 0 0 0 0 0 0 0
0 0 2 1 1 2 4 0 0 0 0 0 0 0 1 0 0 2 0 0 0 0 0 0 0 0 0 0 0 0 0 0 0 0 0 0 0 0 0 0 0 0 0 0 0 0 0
0 0 0 0 0 6 3 0 0 0 0 0 0 0 0 0 0 0 0 0 0 0 0 0 0 0 0 0 0 0 0 0 0 0 0 0 0 0 0 0 0 0 0 0 0 0 0
0 0 0 1 0 1 5 0 0 0 0 0 1 0 1 0 0 0 0 1 0 0 0 0 0 0 0 0 0 0 0 0 0 0 0 0 0 0 0 0 0 0 0 0 0 0 0
0 0 2 1 1 1 7 1 0 0 0 0 0 1 2 0 0 0 0 1 0 0 0 0 0 0 0 3 0 0 0 0 0 0 0 0 0 0 0 0 0 0 0 0 0 0 0
0 0 1 0 1 0 1 6 10 0 0 0 0 1 1 0 0 0 0 0 0 0 0 0 0 1 0 0 0 0 0 0 0 0 0 0 1 0 0 0 0 0 0 0 0 0 0
0 0 1 0 0 1 0 1 8 4 0 0 0 0 0 0 0 0 0 0 0 0 0 0 0 0 0 0 0 0 0 1 1 0 0 3 1 2 0 0 0 0 0 0 0 0 0
0 0 0 2 1 1 2 10 8 2 0 0 0 0 0 0 0 0 0 0 0 0 4 0 0 0 0 5 11 0 2 0 0 2 3 3 1 0 0 0 0 0 0 0 0 0 0
0 0 8 3 0 1 14 11 4 6 2 0 1 0 0 0 0 0 0 0 0 0 0 11 2 1 1 1 1 3 0 1 1 0 0 2 6 0 1 0 0 0 0 0 0 0 0
0 2 15 0 0 0 5 14 19 2 2 0 2 0 0 0 0 0 0 0 0 0 0 0 2 4 14 2 3 7 0 0 0 0 0 0 0 0 1 2 0 0 0 3 0 0 0
5 1 2 0 0 0 12 24 18 4 10 0 6 0 0 0 0 0 0 0 0 0 0 0 0 0 4 16 9 4 0 1 0 0 0 0 0 0 0 0 0 0 0 0 0 0 0

GFSGBSN_con_mlcape_051.txt.gz
CAPE
8 5 6 7 8 9 15 22 15 2 15 30 31 31 21 32 90 57 84 128 154 174 154 156 118 52 16 0 0 0 0 1 110 172 10 27 0 49 0 4 15 0 0 0 1 0 0
6 5 3 9 5 4 11 13 16 10 30 27 32 9 23 19 88 42 31 119 166 240 197 163 154 61 0 0 0 51 8 45 187 97 46 31 0 0 0 0 0 0 0 7 0 0 0
6 5 7 6 6 3 8 20 13 9 28 27 21 10 19 1 27 10 62 50 152 245 222 236 203 33 5 0 0 0 39 81 124 39 34 10 0 0 0 0 0 0 1 0 1 0 0
4 5 8 7 6 3 12 9 13 14 17 22 23 3 11 0 0 14 10 85 147 223 274 245 135 25 0 0 0 0 0 3 0 91 74 22 56 6 21 0 0 11 0 2 0 0 0
3 5 6 9 7 5 2 10 14 13 18 19 30 0 16 0 0 0 24 33 132 121 195 187 17 22 0 12 0 0 0 0 11 14 75 47 35 21 14 8 16 18 0 0 0 0 0
2 4 5 6 9 7 6 1 10 11 23 13 16 3 9 0 0 0 0 0 16 106 59 113 51 2 0 4 0 0 0 0 4 44 81 33 36 8 3 1 0 0 0 0 0 0 0
1 3 5 4 7 6 4 3 2 5 7 11 5 5 0 1 0 0 0 0 0 0 0 0 0 0 0 0 0 0 0 0 13 38 11 26 0 0 0 0 0 0 0 0 0 0 0
1 2 2 5 7 4 5 4 5 5 2 8 8 7 0 0 0 0 0 0 0 0 0 0 1 0 0 0 13 0 0 44 45 8 27 11 0 0 0 0 0 0 0 0 0 0 1
1 1 2 4 4 2 5 3 2 5 8 3 7 5 3 0 0 0 0 0 0 0 0 5 5 3 14 33 2 0 26 6 12 5 4 10 0 0 1 0 0 0 0 0 0 0 0
1 1 1 3 5 4 6 5 2 2 5 5 4 6 4 2 0 0 0 0 0 0 0 0 19 4 2 29 3 35 3 0 5 3 1 0 0 0 1 0 0 0 0 0 0 0 0
0 1 2 3 4 3 4 3 2 3 2 6 3 5 1 0 0 0 0 0 0 0 0 0 0 0 0 0 0 0 0 1 2 2 2 6 1 4 8 4 2 0 0 2 0 0 0
0 0 1 4 3 3 4 4 2 1 2 1 2 3 0 0 0 0 0 0 0 0 0 0 0 2 5 7 6 15 0 0 0 0 0 0 0 3 6 3 20 0 3 4 0 0 0
0 0 1 3 6 3 1 1 1 1 0 0 2 1 1 0 0 0 0 0 0 0 0 0 1 5 9 7 0 0 0 1 1 0 0 1 0 0 0 9 2 0 3 3 0 0 0
0 0 1 3 5 4 1 1 2 1 0 0 0 0 0 0 0 0 0 0 0 2 0 0 3 0 1 0 0 1 1 1 0 0 0 0 0 1 0 0 1 0 0 0 0 0 0
0 0 2 3 4 5 5 2 0 1 0 0 0 0 0 0 0 0 0 0 0 0 11 10 0 0 0 0 0 0 0 2 2 0 0 0 0 1 0 0 1 0 0 0 0 0 0
0 0 3 3 2 4 2 4 1 0 0 0 0 0 0 0 0 0 0 0 0 0 0 0 1 1 0 0 0 0 1 0 3 0 0 0 0 2 1 0 0 0 0 0 0 1 0
0 0 1 3 2 2 3 1 1 0 0 0 0 0 0 0 0 0 0 0 0 0 0 0 0 0 1 4 6 4 3 0 0 0 0 0 0 2 1 0 0 1 0 0 0 0 1
0 0 1 1 0 1 4 0 0 0 0 0 0 0 0 0 0 1 0 0 0 0 0 0 0 0 0 0 0 0 0 0 0 0 0 0 0 2 0 0 0 0 0 0 6 0 0
0 0 0 0 0 2 3 0 0 0 1 0 0 0 0 0 1 0 0 0 0 0 0 0 0 0 0 0 0 0 0 0 0 0 0 0 0 0 0 0 3 0 0 0 0 0 0
0 0 0 1 1 1 1 0 0 0 0 0 0 0 0 0 0 0 0 0 0 0 0 0 0 0 0 0 0 0 0 0 0 0 0 0 0 0 0 0 0 0 0 0 0 0 0
0 0 0 1 0 0 2 0 0 0 0 0 0 0 0 0 0 0 0 0 0 0 0 0 0 0 0 0 0 0 0 0 0 0 0 0 0 0 0 0 0 0 0 0 0 0 0
0 0 3 0 0 0 3 3 0 0 0 0 0 0 0 0 0 0 0 0 0 0 0 0 0 0 0 0 0 0 0 0 0 0 0 0 0 0 0 0 0 0 0 0 0 0 0
0 0 2 0 0 0 1 1 0 0 0 0 0 0 0 0 0 0 0 0 0 0 0 0 0 0 0 0 0 0 0 0 0 0 0 0 0 0 0 0 0 0 0 0 0 0 0
0 0 0 0 0 0 0 1 1 0 0 0 0 0 0 0 0 0 0 0 0 0 0 0 2 0 0 0 0 0 0 0 0 0 0 0 0 0 0 0 0 0 0 0 0 0 0
0 0 0 0 0 0 2 2 1 0 0 0 0 0 0 0 0 0 0 0 0 0 0 0 0 0 0 0 0 0 0 0 0 0 0 0 2 0 0 0 0 0 0 0 0 0 0
0 0 1 0 0 0 1 1 2 1 1 0 0 0 0 0 0 0 0 0 0 0 0 0 1 1 1 7 12 1 0 0 0 0 0 2 4 0 2 0 0 0 0 0 0 0 0
0 0 0 0 0 0 0 0 2 0 0 0 0 0 0 0 0 0 0 0 0 0 0 9 10 0 6 1 0 2 0 0 0 0 0 4 7 1 1 2 0 0 0 0 0 0 0
0 0 10 0 0 0 0 1 3 0 8 0 0 0 0 0 0 0 0 0 0 0 0 0 5 6 6 2 4 0 0 0 0 0 0 0 0 0 1 0 0 0 0 0 0 0 0
0 4 0 0 0 0 0 4 6 0 0 2 0 0 0 0 0 0 0 0 0 0 0 0 0 1 0 3 1 1 1 0 0 0 0 0 0 0 0 0 0 0 0 0 0 0 0

GFSGBSN_con_mlcape_054.txt.gz
CAPE
7 6 7 9 9 11 14 17 9 5 19 17 30 4 21 9 30 24 44 59 151 185 171 136 135 112 1 0 0 0 0 0 1 32 74 0 0 21 42 28 69 1 0 26 41 44 22
7 4 1 8 11 6 13 17 14 9 11 15 13 6 4 11 16 20 46 108 146 255 193 206 161 92 3 1 0 2 0 1 0 66 61 28 0 13 24 68 60 6 0 0 0 23 24
5 7 7 5 10 7 13 18 16 13 15 15 16 6 2 2 0 16 18 53 150 254 238 207 214 22 0 0 0 1 0 4 35 182 44 47 0 22 0 9 12 0 15 3 0 0 0
5 4 3 5 6 8 9 12 12 18 17 13 15 2 3 1 0 0 0 27 87 182 219 297 199 25 0 0 0 0 0 16 57 109 98 132 12 35 2 0 9 4 2 0 0 0 0
2 4 5 4 6 9 8 8 3 9 23 14 11 17 3 0 0 0 0 0 62 145 157 162 3 0 0 1 0 0 0 11 59 60 79 87 54 0 6 0 1 4 0 0 0 0 0
1 2 3 4 7 6 6 6 10 7 9 13 5 10 4 0 0 0 0 0 0 37 51 101 38 0 0 2 0 19 2 0 13 45 79 45 28 9 6 3 0 0 0 0 0 0 0
1 1 2 6 1 4 9 8 8 6 8 3 8 2 13 0 0 0 0 0 0 0 0 0 0 0 0 0 0 16 0 2 15 36 11 16 4 0 0 1 0 0 0 0 0 0 0
0 1 3 4 5 6 5 6 4 6 6 8 6 6 5 9 0 0 0 0 0 0 0 0 0 0 1 0 5 0 23 8 7 3 9 23 6 0 1 3 0 0 0 0 0 0 0
0 0 2 3 1 4 8 8 8 6 6 7 6 7 1 4 0 0 0 0 0 0 0 0 0 4 9 21 3 0 2 16 0 6 2 10 3 10 8 1 0 0 0 0 0 0 0
1 1 1 3 2 2 6 5 6 7 6 10 6 1 2 0 0 0 0 0 0 0 0 0 2 0 9 4 6 22 26 5 8 5 3 1 0 0 13 0 0 0 0 0 0 0 0
1 1 2 0 0 2 6 6 4 2 3 4 3 0 1 4 0 0 0 0 0 0 0 0 0 0 0 0 0 2 0 5 2 5 0 1 2 2 6 6 0 0 0 0 0 0 0
0 0 2 3 3 2 5 5 4 4 3 1 0 1 1 0 0 0 0 0 0 0 0 0 2 0 0 1 10 1 0 0 0 0 0 0 0 2 7 5 7 0 0 0 0 0 0
0 1 2 4 1 2 5 2 0 3 1 0 0 1 0 0 0 0 0 0 0 0 0 0 2 2 8 6 1 0 1 1 0 0 0 0 0 0 0 12 4 0 4 0 1 0 0
0 0 0 3 1 2 3 3 3 2 0 0 0 0 0 0 0 0 0 0 0 0 0 0 0 0 5 0 1 0 0 0 0 0 0 0 0 0 0 0 1 2 0 0 0 0 0
0 0 0 3 4 2 2 6 1 1 0 0 0 0 0 0 0 0 0 0 0 0 0 2 0 0 0 0 0 0 0 1 0 0 0 0 0 0 0 0 0 2 0 0 0 0 0
0 0 1 2 2 1 3 5 1 2 0 0 0 0 0 0 0 0 0 0 0 0 0 0 0 0 0 0 0 0 0 2 1 5 0 0 0 1 0 0 0 0 0 0 0 0 0
0 0 0 1 0 1 4 2 4 1 0 0 0 0 0 0 0 0 0 0 0 0 0 0 0 0 0 0 0 0 0 0 0 3 0 0 0 1 1 1 1 0 0 0 0 0 0
0 0 0 0 0 1 3 2 2 0 0 0 0 0 0 0 0 0 0 0 0 0 0 0 0 0 0 0 0 1 0 0 0 0 0 0 0 1 0 1 0 1 0 0 0 0 0
0 0 0 0 1 1 2 1 0 0 0 0 0 0 0 0 0 0 0 0 0 0 0 0 0 0 0 0 0 0 0 0 0 0 0 0 0 0 0 0 0 4 0 0 0 0 0
0 0 0 0 1 1 0 1 0 0 0 0 0 0 0 1 0 0 0 0 0 0 0 0 0 0 0 0 0 0 0 0 0 0 0 0 0 0 0 0 0 0 2 1 0 0 0
0 0 0 0 0 0 1 1 0 0 0 0 0 0 0 0 0 0 0 0 0 0 0 0 0 0 0 0 0 0 0 0 0 0 0 0 0 0 0 0 0 0 0 0 0 0 0
0 0 0 0 0 0 0 1 0 0 0 0 0 0 0 0 0 0 0 7 0 0 0 0 0 0 0 0 0 0 0 0 0 0 0 0 0 0 0 0 0 0 0 0 0 0 0
0 0 0 0 0 0 2 1 0 0 0 0 0 0 0 0 0 0 0 0 0 0 0 0 0 0 0 0 0 0 0 0 0 0 0 0 0 0 0 0 0 0 0 0 0 0 0
0 0 0 0 0 0 2 1 0 0 0 0 0 0 0 0 0 0 0 0 0 0 0 0 1 0 0 0 0 0 0 0 0 0 0 0 0 0 0 0 0 0 0 0 0 0 0
0 0 0 0 0 0 2 5 2 0 0 0 0 0 0 0 0 0 0 0 0 0 0 0 5 0 0 0 0 0 0 0 0 0 0 0 1 0 0 0 0 0 0 0 0 0 0
0 0 0 0 0 0 0 2 8 0 0 0 0 0 0 0 0 0 0 0 0 0 0 0 3 0 0 6 9 0 0 0 0 1 0 1 0 0 2 0 0 0 0 0 0 0 0
0 0 0 0 0 0 0 0 0 0 0 0 0 0 0 0 0 0 0 0 0 0 0 0 0 2 1 0 0 1 0 0 0 0 0 2 5 0 0 1 0 0 0 0 0 0 0
0 0 0 0 0 0 1 10 15 0 1 0 0 0 0 0 0 0 0 0 0 0 0 0 0 9 5 1 0 0 0 0 0 0 0 0 0 0 1 0 0 0 0 0 0 0 0
0 0 1 0 0 0 0 3 0 4 4 0 0 0 0 0 0 0 0 0 0 0 0 0 0 0 0 7 0 0 0 0 0 0 0 0 0 0 0 0 0 0 0 0 0 0 0

GFSGBSN_con_mlcape_057.txt.gz
CAPE
2 3 6 4 7 6 6 14 5 16 25 32 29 3 4 22 6 0 10 49 104 201 181 136 146 172 5 0 0 0 5 0 0 5 2 0 0 12 25 30 45 0 0 1 3 0 0
1 5 4 5 4 7 9 10 16 18 24 26 27 6 9 5 1 5 14 54 100 194 173 231 166 139 5 0 0 0 1 0 0 1 0 11 0 14 33 36 70 29 28 47 41 1 0
2 3 2 4 6 6 8 8 12 13 18 23 25 16 10 1 0 2 0 27 83 175 197 171 200 26 0 0 2 20 0 0 0 0 0 28 0 38 25 46 24 15 20 38 24 32 10
2 4 4 5 1 5 7 8 8 4 9 9 23 20 2 1 0 0 0 0 19 119 159 223 235 23 0 0 0 2 0 27 5 10 4 48 6 22 9 0 18 1 5 8 0 19 1
2 2 3 5 6 8 8 3 6 9 11 2 13 12 17 1 0 0 0 7 5 104 84 147 2 0 0 5 0 0 3 35 56 25 38 37 50 38 4 2 0 3 0 0 0 0 0
0 2 5 6 3 4 3 9 3 6 9 11 6 8 10 2 0 0 0 0 15 1 9 28 2 0 0 0 2 13 5 1 54 36 32 29 33 6 0 0 0 0 0 0 0 0 0
0 1 3 2 3 5 6 7 6 6 4 7 7 5 4 6 0 0 0 0 0 0 0 0 0 0 0 0 4 16 0 3 76 33 17 17 0 0 0 0 0 0 0 0 0 0 0
0 1 2 4 1 1 5 1 8 7 10 3 3 1 4 3 4 0 0 0 0 0 0 0 0 0 0 0 0 0 0 2 62 16 27 10 0 0 0 1 2 0 0 0 0 0 0
0 1 1 4 3 1 1 1 4 8 7 12 3 1 5 2 3 0 0 0 0 0 0 0 0 3 15 10 0 0 0 10 3 34 3 3 0 7 15 14 1 0 0 0 0 0 0
0 0 1 1 0 1 2 5 6 5 5 9 8 2 4 0 0 0 0 0 0 0 0 0 0 0 7 5 0 0 0 5 7 0 5 12 1 3 15 20 0 0 0 0 0 0 0
0 0 1 1 3 2 1 5 9 6 7 6 10 3 2 0 0 0 0 0 0 0 0 0 0 0 0 1 0 0 3 9 1 5 1 0 0 1 0 10 0 0 0 0 0 0 0
0 0 1 1 1 3 3 0 5 1 4 3 4 3 0 0 1 0 0 0 0 0 0 0 0 0 0 0 10 8 16 11 0 0 0 0 0 0 5 3 0 0 0 0 0 0 0
0 0 1 2 1 2 4 4 1 4 3 1 1 2 1 0 0 0 0 0 0 0 0 0 1 0 0 0 2 3 4 3 0 0 0 3 1 0 0 11 3 0 0 2 0 0 0
0 0 1 1 1 3 2 4 5 2 1 1 0 0 0 0 0 0 0 0 0 0 0 0 3 1 1 1 2 0 0 0 0 0 0 0 1 0 0 0 0 1 3 0 0 0 0
0 0 0 1 1 0 2 3 4 2 1 1 0 0 0 0 0 0 0 0 0 0 0 0 2 2 6 6 0 0 0 0 0 0 0 0 0 1 0 0 0 0 7 0 0 0 0
0 0 0 0 0 0 2 3 2 3 0 0 0 0 0 0 0 0 0 0 0 0 0 0 0 0 0 1 1 0 0 0 0 0 0 0 0 0 0 0 0 0 0 0 0 0 0
0 0 0 0 0 0 1 2 1 2 0 0 0 0 0 0 0 0 0 0 0 0 0 0 0 0 0 0 0 0 0 0 0 0 0 0 0 2 2 1 1 0 2 0 0 0 0
0 0 0 0 0 0 0 1 2 0 0 0 0 0 0 0 0 0 0 0 0 0 0 0 0 0 0 0 0 0 0 0 0 2 0 0 0 0 1 1 0 0 0 0 0 0 0
0 0 0 0 0 0 0 1 1 0 0 0 0 0 0 0 0 0 0 0 0 0 0 0 0 0 0 0 0 0 0 0 0 1 0 0 0 0 0 0 0 1 0 4 0 0 0
0 0 0 0 0 0 0 0 0 0 0 0 0 0 0 1 0 0 0 0 0 0 0 0 0 0 0 0 0 0 0 0 0 0 0 0 0 0 0 0 0 1 1 2 2 0 0
0 0 0 0 0 0 0 0 0 0 0 0 0 0 0 0 0 0 0 0 0 0 0 0 0 0 0 0 0 0 0 0 0 0 0 0 0 0 0 0 0 0 0 0 2 1 0
0 0 0 0 0 0 0 0 0 0 0 0 0 0 0 0 0 0 0 1 0 0 0 0 0 0 0 0 0 0 0 0 0 0 0 0 0 0 0 0 0 0 0 0 0 0 0
0 0 0 0 0 1 0 0 0 0 0 0 0 0 0 0 0 0 0 0 0 0 0 0 0 0 0 0 0 0 0 0 0 0 0 0 0 0 0 0 0 0 0 0 0 0 0
0 0 0 0 0 0 0 1 0 0 0 0 0 0 0 0 0 0 0 0 0 0 0 0 0 0 0 0 0 0 0 0 0 0 0 0 0 0 0 0 0 0 0 0 0 0 0
0 0 0 0 0 0 0 0 0 0 0 0 0 0 0 0 0 0 0 0 0 0 0 0 9 0 0 0 0 0 0 0 0 0 0 0 0 0 0 0 0 0 0 0 0 0 0
0 0 0 0 0 0 0 0 0 0 0 0 0 0 0 0 0 0 0 0 0 0 0 0 1 0 3 0 0 0 0 0 0 0 0 0 0 0 0 0 0 0 0 0 0 0 0
0 0 0 0 0 0 0 0 0 0 0 0 0 0 0 0 0 0 0 0 0 0 0 0 0 1 0 2 6 2 0 0 0 0 0 2 3 0 0 2 0 0 0 0 0 0 0
0 0 2 0 0 0 0 0 0 0 0 0 0 0 0 0 0 0 0 0 0 0 0 0 1 1 1 2 2 0 0 0 0 0 0 0 0 1 2 1 0 0 0 0 0 0 0
0 1 3 0 0 0 0 0 0 0 0 0 1 2 0 1 0 0 0 0 0 0 0 0 0 0 3 0 0 0 0 0 0 0 0 0 0 0 0 0 0 0 0 0 0 0 0

GFSGBSN_con_mlcape_060.txt.gz
CAPE
1 2 4 5 3 4 7 6 8 13 18 33 38 19 15 8 5 1 5 1 77 158 149 193 184 185 6 1 0 0 7 12 0 7 10 7 0 0 0 0 15 0 32 7 0 0 11
1 2 4 5 2 3 6 5 5 4 15 22 37 34 8 9 0 0 2 3 18 103 143 230 201 165 1 0 0 8 0 0 0 1 11 10 2 0 1 0 0 0 0 10 8 6 1
1 1 3 3 2 5 5 5 7 7 4 16 28 34 25 15 1 0 0 0 0 52 176 219 173 20 0 0 2 0 0 0 0 0 0 1 0 4 18 0 5 29 0 1 0 0 0
0 1 3 3 3 6 8 2 4 9 11 10 13 20 25 8 5 0 0 0 1 65 130 189 179 9 0 1 0 0 0 0 0 0 0 0 14 2 12 1 11 13 2 4 0 0 5
0 1 2 3 4 3 5 6 1 4 10 15 7 10 16 23 3 0 0 0 2 27 68 146 10 0 0 41 0 0 0 0 47 26 1 8 37 16 6 1 2 3 0 0 1 0 0
0 1 1 3 3 6 4 6 6 8 9 8 15 4 9 13 17 0 0 0 0 0 1 6 0 0 0 0 1 17 14 12 39 5 0 14 28 9 8 0 0 0 0 0 0 0 4
0 0 2 1 2 0 2 5 3 10 2 13 10 10 9 3 9 8 0 0 0 0 0 0 0 0 0 0 1 0 0 18 66 7 1 6 8 0 4 0 0 0 0 0 0 0 0
0 0 1 1 1 2 3 3 3 6 4 7 10 6 4 4 3 6 0 0 0 0 0 0 0 0 0 0 8 0 2 10 64 2 5 12 4 0 8 6 0 0 0 0 0 0 0
0 0 1 1 1 3 4 2 2 4 2 5 11 8 6 7 3 0 0 0 0 0 0 2 0 0 0 4 0 1 0 0 3 4 3 0 0 7 18 4 0 0 0 0 0 0 0
0 0 1 0 2 2 2 3 4 0 1 4 5 2 4 6 0 0 0 0 0 0 0 0 0 0 0 2 0 0 0 0 5 5 3 0 0 4 28 12 0 0 0 0 0 0 0
0 0 0 1 1 2 3 3 5 1 1 8 4 7 4 4 0 0 0 0 0 0 0 0 0 0 0 0 0 0 0 0 0 3 0 1 0 4 11 7 7 0 0 0 0 0 0
0 0 0 1 1 1 3 4 4 4 6 8 6 3 2 0 0 0 0 0 0 0 0 0 0 0 0 1 0 0 4 2 4 4 0 0 0 0 13 2 0 0 0 0 0 0 0
0 0 0 1 1 0 2 2 4 5 7 7 5 2 0 0 0 0 0 0 0 0 0 0 0 0 0 1 0 3 1 0 1 0 0 6 4 0 2 14 3 0 3 1 0 0 0
0 0 0 0 1 1 1 3 5 2 6 4 0 1 0 0 0 0 0 0 0 0 0 0 2 1 0 1 1 3 0 0 0 0 0 0 4 3 0 0 1 3 6 0 0 0 0
0 0 0 0 0 1 1 3 3 4 2 0 0 0 0 0 0 0 0 0 0 0 0 0 4 8 0 1 0 0 1 0 0 0 0 0 0 1 0 0 0 0 4 0 0 0 0
0 0 0 0 0 0 2 1 3 1 0 0 0 0 0 0 0 0 0 0 0 0 0 0 0 2 0 1 0 0 0 0 0 0 0 0 0 0 0 0 0 0 0 0 0 0 0
0 0 0 0 0 0 1 1 1 1 0 0 0 0 0 0 0 0 0 0 0 0 0 0 0 0 0 0 0 0 0 0 0 0 0 0 0 2 0 1 2 1 0 0 0 0 0
0 0 0 0 0 0 0 1 1 0 0 0 0 0 0 0 1 1 0 0 0 0 0 0 0 0 0 0 0 0 0 0 0 0 0 0 0 0 0 0 0 0 1 0 5 0 0
0 0 0 0 0 0 0 0 1 0 0 0 0 0 0 0 0 0 0 0 0 0 0 0 0 0 0 0 0 0 0 0 0 0 0 0 0 0 2 0 1 5 1 0 0 0 0
0 0 0 0 0 0 0 0 0 0 0 0 0 0 0 1 0 0 0 0 0 0 0 0 0 0 0 0 0 0 0 0 0 0 0 0 0 0 0 0 0 0 1 0 0 0 0
0 0 0 0 0 0 0 0 0 0 0 0 0 0 0 0 0 0 0 0 0 0 0 0 0 0 0 0 0 0 0 0 0 2 0 0 0 0 0 0 0 0 0 0 0 0 0
0 0 0 0 0 0 0 0 0 0 0 0 0 0 0 0 0 0 0 0 6 0 0 0 0 0 0 0 0 0 0 0 0 0 0 0 0 0 0 0 0 0 0 0 0 0 1
0 0 0 0 0 0 0 0 0 0 0 0 0 0 0 0 0 0 0 0 0 1 2 0 0 0 0 0 0 0 0 0 0 0 0 0 0 0 0 0 0 0 0 0 0 0 0
0 0 0 0 0 0 0 0 0 0 0 0 0 0 0 0 0 0 0 0 0 0 0 0 7 3 0 0 0 0 0 0 0 0 0 0 0 0 0 0 0 0 0 0 0 0 0
0 0 0 0 0 0 0 0 0 0 0 0 0 0 0 0 0 0 0 0 0 0 0 0 6 0 0 0 0 0 0 0 0 0 0 0 0 0 0 0 0 0 0 0 0 0 0
0 0 0 0 0 0 0 0 0 0 0 0 0 0 0 0 0 0 0 0 0 0 0 0 0 0 1 0 2 1 0 0 0 0 0 0 0 0 0 0 0 0 0 0 0 0 0
0 0 0 0 0 0 0 0 0 0 0 0 0 0 0 0 0 0 0 0 0 0 0 0 0 0 0 2 6 4 0 0 0 0 0 0 0 0 0 0 0 0 0 0 0 0 0
1 2 0 0 0 0 0 0 0 0 0 0 0 0 0 0 0 0 0 0 0 0 0 0 0 0 1 2 6 2 0 0 0 0 0 0 0 0 1 0 0 0 0 0 0 0 0
0 3 1 0 0 0 0 0 0 0 0 0 0 3 0 0 0 0 0 0 0 0 0 0 0 1 2 0 0 0 0 0 0 0 0 0 0 0 0 0 0 0 0 0 0 0 0

GFSGBSN_con_mlcape_063.txt.gz
CAPE
1 3 4 2 2 3 8 3 9 8 9 11 13 27 23 12 2 9 10 8 6 52 112 176 175 162 1 3 0 0 40 41 3 4 49 49 11 13 11 4 22 7 26 4 28 26 9
0 2 3 1 2 3 4 5 4 7 7 8 8 18 29 8 2 3 4 3 1 32 152 168 153 62 0 0 1 1 0 0 3 2 56 46 2 3 23 24 12 0 19 37 27 45 17
0 0 3 2 1 2 4 4 2 8 9 14 4 9 19 30 2 3 0 0 0 30 124 142 153 28 0 0 0 0 0 0 0 0 0 7 8 4 10 21 2 0 19 15 31 47 27
0 0 1 3 1 4 3 3 7 2 12 10 13 4 6 15 23 0 1 0 0 34 30 99 101 0 0 0 1 0 0 0 0 0 0 0 30 16 5 9 11 2 5 0 0 6 0
0 0 0 1 0 2 3 7 4 6 8 20 9 6 7 11 14 11 0 0 0 0 14 22 0 0 0 2 1 0 0 0 0 20 15 1 59 17 0 6 3 14 0 0 0 0 0
0 0 1 1 1 1 3 6 8 9 10 16 14 12 1 3 8 7 3 0 0 0 0 0 0 0 0 1 3 0 0 0 15 31 13 25 34 8 0 9 0 0 0 0 0 1 1
0 0 0 2 1 0 2 4 3 6 10 16 15 12 3 9 5 3 0 0 0 0 0 0 0 0 0 0 6 7 7 28 32 17 0 4 7 0 0 0 0 0 2 0 0 0 5
0 0 0 1 1 0 1 2 1 10 6 19 13 9 1 3 3 5 0 0 0 0 0 0 0 2 1 2 0 26 19 36 16 0 1 2 1 1 10 1 0 0 0 0 0 0 2
0 0 0 0 1 0 1 4 6 2 8 11 10 1 1 3 3 0 0 0 0 0 0 0 0 0 9 4 0 7 4 6 14 0 2 1 1 19 11 4 0 0 0 0 0 0 0
0 0 0 0 1 0 2 4 4 2 6 4 5 4 1 7 0 0 0 0 0 0 0 0 0 0 5 9 2 0 0 0 5 0 3 3 0 4 15 14 0 0 0 0 0 0 0
0 0 0 0 0 0 2 2 4 2 2 5 7 2 2 5 0 0 0 0 0 0 0 0 0 0 14 0 0 0 0 10 1 2 4 1 5 5 2 0 0 0 0 0 0 0 0
0 0 0 0 0 0 1 2 4 3 1 5 5 2 2 1 0 0 0 0 0 0 0 0 0 0 0 12 2 0 12 13 17 2 0 0 0 8 9 0 0 0 0 0 0 0 0
0 0 0 0 0 0 1 1 2 1 1 2 3 2 1 0 0 0 0 0 0 0 0 0 0 0 0 0 2 2 0 7 0 0 1 5 7 0 0 11 0 0 0 0 0 0 0
0 0 0 0 0 0 0 0 3 4 2 2 0 1 0 0 0 0 0 0 0 0 0 0 0 0 0 0 1 1 0 3 1 0 0 0 2 10 0 4 2 0 3 0 0 0 0
0 0 0 0 0 0 0 0 2 4 3 1 0 0 0 0 0 0 0 0 0 0 0 0 0 0 0 0 0 2 0 2 0 0 0 0 0 0 0 0 0 2 1 0 0 0 0
0 0 0 0 0 0 0 0 1 3 1 0 0 0 0 0 0 0 0 0 0 0 0 0 0 1 0 1 0 0 1 0 0 0 0 0 0 1 0 0 0 0 0 0 0 0 0
0 0 0 0 0 0 0 0 2 2 0 0 0 0 0 0 0 0 0 0 0 0 0 0 0 0 0 0 0 0 0 0 0 0 0 0 0 1 0 1 4 0 0 0 0 0 0
0 0 0 0 0 0 0 0 1 1 0 0 0 0 0 0 2 0 0 0 0 0 0 0 0 0 0 1 0 0 0 0 0 0 0 0 0 0 0 0 0 6 7 0 0 0 0
0 0 0 0 0 0 0 0 0 0 0 0 0 0 0 0 0 0 0 0 0 0 0 0 0 0 0 1 0 0 0 0 0 0 0 0 0 0 2 0 0 1 0 2 0 0 0
0 0 0 0 0 0 0 0 0 0 0 0 0 0 4 2 0 0 0 0 0 0 0 0 0 0 0 0 0 0 0 0 0 0 0 0 0 0 0 0 0 1 0 0 0 0 0
0 0 0 0 0 0 0 0 0 0 0 0 0 0 0 0 1 0 0 0 0 0 0 0 0 0 0 0 0 0 0 0 0 5 0 0 0 0 0 0 0 0 0 0 2 0 0
0 0 0 0 0 0 0 0 0 0 0 0 0 0 0 0 0 0 0 0 4 3 1 0 0 0 0 0 0 0 0 0 0 0 0 0 0 0 0 0 0 0 0 0 0 0 1
0 0 0 0 0 0 0 0 0 0 0 0 0 0 0 0 0 0 0 0 1 2 9 0 0 0 0 0 0 0 0 0 0 0 0 0 0 0 0 0 0 0 0 0 0 0 0
0 0 0 0 0 0 0 0 0 0 0 0 0 0 0 0 0 0 0 0 0 0 8 6 17 1 0 0 0 0 0 0 0 0 0 0 0 0 0 0 0 0 0 0 0 0 0
1 0 0 0 0 0 0 0 0 0 0 0 0 0 0 0 0 0 0 0 0 0 0 3 10 1 0 0 0 0 0 0 0 0 0 0 0 0 0 0 0 0 0 0 0 0 0
1 0 0 0 0 0 0 0 0 0 0 0 0 0 0 0 0 0 0 0 0 0 0 0 0 0 0 0 0 0 0 0 0 0 0 0 0 0 0 0 0 0 0 0 0 0 0
0 0 0 0 0 0 0 0 0 0 0 0 0 0 0 0 0 0 0 0 0 0 0 0 0 0 0 0 2 2 0 0 0 0 1 0 0 0 0 0 0 0 0 0 0 0 0
0 0 0 0 0 0 0 0 0 0 0 0 0 0 0 0 0 0 0 0 0 0 0 0 0 0 1 3 8 3 0 0 0 0 0 0 0 0 0 0 0 0 0 0 0 0 0
3 0 0 0 1 0 0 0 0 0 0 0 0 0 0 0 0 0 0 0 0 0 0 0 0 1 1 0 0 0 0 0 0 0 0 0 0 0 0 0 0 0 0 0 0 0 0

GFSGBSN_con_mlcape_066.txt.gz
CAPE
2 0 1 2 0 3 3 9 9 12 10 12 6 9 21 22 2 0 1 3 1 3 35 85 111 79 23 1 0 0 0 42 14 5 20 80 88 13 1 18 47 3 88 65 24 8 7
1 0 1 2 0 1 2 4 5 9 13 10 6 6 10 19 5 0 0 0 1 3 4 76 100 14 2 0 0 9 0 15 27 0 3 66 27 15 12 17 68 75 47 66 40 5 7
0 0 0 5 1 0 3 6 9 10 11 16 13 4 5 5 15 0 0 2 5 6 6 38 76 25 1 0 0 5 0 13 2 0 0 36 35 36 8 34 75 50 27 22 36 38 45
0 0 0 0 1 0 1 2 6 10 14 14 17 17 6 6 8 13 0 0 1 2 0 0 0 0 0 0 9 10 0 0 0 0 12 2 9 36 46 46 37 46 28 22 79 55 50
1 1 0 0 0 0 0 1 7 7 11 16 16 16 11 6 5 6 1 0 0 1 1 0 0 0 0 0 8 1 0 0 0 13 17 0 37 38 13 3 18 19 2 11 19 84 46
2 1 0 0 0 0 1 0 3 8 13 14 15 13 10 7 7 6 1 0 0 0 0 0 0 0 0 4 1 5 0 0 6 20 26 6 34 31 11 8 0 0 1 2 4 6 10
3 1 1 0 0 0 1 1 2 0 6 16 14 12 9 5 6 7 0 0 0 0 0 0 0 0 0 0 5 0 16 1 4 4 4 4 12 1 0 0 1 3 0 0 1 0 9
4 1 0 0 0 0 1 1 1 3 7 13 10 6 9 4 8 3 0 0 0 0 0 0 0 0 1 0 10 10 41 12 9 7 2 2 4 8 23 5 1 11 1 0 0 0 44
4 2 0 0 0 0 0 2 0 3 4 11 10 2 5 2 6 0 0 0 0 0 0 0 0 1 0 13 26 50 56 29 24 3 0 0 5 11 39 8 13 5 0 0 0 18 16
5 3 0 0 0 0 0 4 1 2 3 10 9 2 3 5 0 0 0 0 0 0 0 0 1 2 15 12 8 6 0 2 6 0 2 8 3 13 4 3 1 0 0 0 0 0 0
6 2 0 0 0 0 0 2 1 1 5 4 4 4 2 7 0 0 0 0 0 0 0 0 0 0 8 3 1 9 4 1 0 2 0 3 5 2 12 5 3 0 0 0 0 0 0
7 2 0 0 0 0 0 1 1 1 2 1 3 3 2 2 0 0 0 0 0 0 0 0 0 0 14 5 1 10 17 0 2 0 1 5 1 15 10 0 0 0 0 0 0 0 0
5 1 0 0 0 0 0 0 1 2 2 2 2 1 1 0 1 0 0 0 0 0 0 0 0 0 2 1 2 3 4 0 0 0 0 7 6 1 0 0 0 3 0 1 0 0 0
4 2 0 0 0 0 0 0 1 2 2 0 0 0 0 0 0 0 0 0 0 0 0 0 0 0 2 1 2 2 7 0 0 3 1 0 6 23 0 6 2 12 10 0 0 0 0
3 1 0 0 0 0 0 0 1 1 2 0 0 0 1 0 0 0 0 0 0 0 0 0 0 2 4 1 2 1 3 1 1 7 3 0 0 1 0 0 2 0 4 0 0 0 0
3 1 0 0 0 0 0 0 0 1 0 0 0 0 1 0 0 0 0 0 0 0 0 0 0 2 0 1 1 1 2 2 1 0 0 0 0 0 0 0 0 7 0 0 0 0 0
4 2 0 0 0 0 0 0 0 0 0 0 0 2 1 0 0 1 0 0 0 0 0 0 0 0 0 0 2 0 0 0 3 0 0 0 0 0 3 10 12 2 3 1 3 0 0
4 4 1 0 0 0 0 0 0 0 0 0 0 0 0 0 1 1 0 0 0 0 0 0 0 0 0 0 0 0 1 2 0 0 0 0 0 2 1 0 0 15 13 5 9 0 0
6 2 1 0 0 0 0 0 0 0 0 0 0 1 0 0 0 0 0 0 0 0 0 0 0 0 0 3 0 0 0 0 2 0 0 0 0 1 0 0 0 0 3 6 2 0 0
5 4 1 0 0 0 0 0 0 0 0 0 0 0 6 1 0 0 0 0 0 0 0 0 0 0 0 0 0 0 0 0 0 0 0 0 0 0 0 0 0 0 0 2 3 3 0
6 4 0 0 0 0 0 0 0 0 0 0 0 0 0 0 1 0 0 0 0 0 0 0 0 0 0 0 0 0 0 0 0 0 0 0 0 0 0 0 0 0 0 0 0 0 0
6 4 0 0 0 0 0 0 0 0 0 0 0 0 0 0 0 1 0 0 2 6 1 0 0 0 0 0 0 0 0 0 0 0 2 0 0 0 0 0 0 0 0 0 0 0 3
5 4 0 0 0 0 0 0 0 0 0 0 0 0 0 0 0 0 0 0 1 5 3 1 0 0 0 0 0 0 0 0 0 0 0 0 0 0 0 0 0 0 0 0 0 0 0
6 2 0 0 0 0 0 0 0 0 0 0 0 0 0 0 0 0 0 0 0 0 4 4 10 0 0 0 0 0 0 0 0 0 0 0 0 0 0 0 0 0 0 0 0 0 0
6 3 0 0 0 0 0 0 0 0 0 0 0 0 0 0 0 0 0 0 0 0 0 0 1 0 0 0 0 1 0 0 0 0 0 0 0 0 0 0 0 0 0 0 0 0 0
6 1 1 0 0 0 0 0 0 0 0 0 0 0 0 0 0 0 0 0 0 0 0 0 0 0 0 1 1 3 0 0 0 0 0 0 0 0 0 0 0 0 0 0 0 0 0
5 0 0 0 0 0 0 0 0 0 0 0 0 0 0 0 0 0 0 0 0 0 0 0 0 0 0 1 0 0 0 0 0 0 1 3 1 1 1 1 0 0 0 0 0 1 0
6 0 0 2 2 0 0 0 0 0 0 0 0 0 0 0 0 0 0 0 0 0 0 0 0 0 0 3 7 0 0 0 0 0 0 0 3 1 3 2 0 0 0 2 0 0 0
4 0 1 2 2 0 0 0 0 0 0 0 0 0 0 0 0 0 0 0 0 0 0 0 1 1 2 0 0 0 0 0 0 2 0 0 0 0 0 1 0 0 0 0 0 0 0

GFSGBSN_con_mlcape_069.txt.gz
CAPE
3 1 0 0 2 4 2 2 1 0 2 5 14 12 8 9 30 8 0 2 3 1 1 6 18 20 10 7 2 0 0 166 49 4 31 90 99 58 3 21 46 102 69 138 26 13 2
4 2 0 0 0 2 4 6 1 0 8 10 14 16 11 10 10 22 1 2 3 7 6 6 30 3 7 0 0 1 0 19 13 1 28 76 64 42 2 47 108 44 6 100 34 50 23
2 3 0 0 0 0 2 2 3 1 8 8 15 19 21 13 7 16 21 2 4 9 7 1 4 1 5 0 0 18 0 2 60 6 5 3 32 63 15 35 112 4 0 0 1 1 25
3 3 2 1 0 0 0 1 2 3 8 10 12 16 21 13 7 13 7 13 2 3 4 0 0 0 4 0 0 9 8 1 27 40 0 0 3 66 84 59 69 17 0 2 2 24 111
4 2 2 1 0 0 0 0 1 3 12 16 14 15 15 12 10 10 3 2 4 1 0 0 6 8 6 0 7 24 7 16 32 14 1 4 13 34 87 37 27 41 2 7 4 11 33
5 2 2 1 0 0 0 0 0 3 5 6 9 14 12 12 8 7 3 0 0 0 0 0 0 4 0 0 0 9 13 13 17 31 9 3 10 31 22 29 6 4 4 7 25 0 21
0 3 3 1 0 0 0 0 0 3 5 7 17 9 8 10 7 11 0 0 0 0 0 0 2 5 11 0 0 0 14 21 25 9 1 1 2 2 7 0 1 0 0 8 56 36 37
24 2 3 2 0 0 0 0 0 2 3 8 10 8 8 8 6 13 0 0 0 0 0 0 0 12 12 3 2 1 9 14 19 4 1 0 4 1 7 13 8 17 34 31 8 7 3
6 2 3 4 1 0 0 0 1 2 2 3 9 9 7 5 3 5 0 0 0 0 2 0 0 12 7 22 13 48 16 36 22 3 2 1 9 2 17 6 2 15 12 7 4 6 32
2 1 3 5 1 0 0 0 1 1 1 5 7 3 7 0 0 0 0 0 0 0 1 0 3 8 49 57 11 65 27 1 7 10 13 2 10 17 13 6 5 8 8 14 25 20 0
3 3 3 4 1 0 0 0 0 0 0 2 2 1 7 0 1 0 0 0 0 0 2 0 1 0 28 8 4 21 42 10 3 7 0 3 12 14 9 15 14 14 0 21 7 5 0
1 13 4 4 0 0 0 0 0 0 0 1 4 2 3 0 3 0 0 0 1 0 0 0 1 0 2 3 10 19 13 3 2 0 0 8 2 19 24 6 0 0 0 0 0 0 0
14 9 4 2 0 0 0 0 0 0 0 0 0 1 2 2 0 0 0 1 0 0 0 0 1 3 3 3 5 9 2 1 0 0 0 7 7 1 6 11 0 2 1 2 0 0 0
32 5 4 2 0 0 0 0 0 0 0 0 0 1 0 2 0 0 0 0 0 0 1 4 1 3 1 11 7 2 9 6 0 0 1 2 1 14 2 2 0 6 2 0 0 0 0
50 3 3 2 0 0 0 0 0 0 0 0 0 6 4 0 0 0 0 0 0 1 2 7 0 3 5 7 7 5 5 1 0 0 9 3 0 1 0 0 1 16 1 0 0 0 0
58 4 3 3 0 0 0 0 0 0 0 0 1 5 4 0 0 4 0 0 0 0 0 6 12 9 0 9 3 4 2 0 0 3 0 0 0 1 0 2 9 17 14 1 0 0 0
8 0 3 3 1 0 0 0 0 0 0 0 4 2 6 0 0 4 1 0 0 0 0 8 5 4 4 6 3 3 2 0 5 0 0 1 0 1 6 4 9 1 0 4 5 4 1
5 0 3 4 2 0 0 0 0 0 0 0 3 0 1 0 4 4 2 0 0 2 0 0 0 5 11 6 1 9 0 6 8 0 0 0 2 0 1 1 0 2 15 17 14 2 0
5 2 5 5 3 0 0 0 0 0 0 0 2 0 0 0 1 0 2 0 0 0 0 0 1 0 0 4 10 6 4 0 10 0 0 0 2 1 0 0 0 0 0 0 7 12 3
6 3 5 6 3 0 0 0 0 0 0 0 0 0 3 5 4 2 1 4 5 0 0 0 0 0 0 6 0 0 5 1 4 0 0 0 0 0 2 1 0 0 0 1 9 3 0
8 4 6 6 4 0 0 0 0 0 0 0 0 0 0 0 0 1 1 3 5 1 0 0 0 1 9 9 1 0 0 4 8 0 0 1 2 0 0 0 0 0 0 0 4 0 3
4 2 6 6 4 0 0 0 0 0 0 0 0 0 0 0 0 1 1 1 5 11 0 0 0 0 0 8 6 5 1 1 1 0 6 0 0 0 0 0 0 0 0 0 0 0 4
3 4 6 6 3 0 0 0 0 0 0 0 0 0 0 0 0 1 0 4 4 17 7 1 0 0 0 0 0 0 0 1 1 3 6 12 2 0 3 0 0 0 0 0 0 0 0
3 6 5 6 1 0 0 0 0 0 0 0 0 0 0 0 0 0 0 0 0 4 18 17 16 5 0 0 0 0 0 0 0 1 7 14 10 1 0 0 0 0 0 0 0 0 0
5 43 5 5 2 0 0 0 0 0 0 0 0 0 0 0 0 0 0 0 0 0 14 26 1 0 0 0 1 2 3 0 0 0 0 5 10 1 1 2 0 0 0 0 0 0 0
3 10 8 8 4 0 0 0 0 0 0 0 0 0 0 0 0 0 0 0 0 8 3 0 0 0 0 7 18 3 10 8 1 0 0 0 3 2 1 1 0 0 0 0 0 2 1
5 7 8 8 6 1 0 0 0 0 0 0 0 0 0 0 0 0 0 0 0 0 5 0 0 0 0 12 11 8 4 0 1 2 0 2 4 5 4 2 1 0 0 0 0 0 0
6 10 6 9 6 3 0 0 0 0 0 0 0 0 0 0 0 0 0 0 0 0 3 0 0 0 0 4 4 6 1 0 0 3 4 0 2 3 9 10 1 0 0 2 0 0 0
19 9 6 10 5 0 0 0 0 0 0 0 0 0 0 0 0 0 0 0 0 0 0 0 0 0 0 0 0 0 0 0 2 4 0 3 8 2 2 1 0 0 0 0 0 0 0

GFSGBSN_con_mlcape_072.txt.gz
CAPE
4 4 1 1 0 0 0 0 1 3 7 6 10 17 30 15 7 3 31 1 2 6 9 6 11 24 0 10 15 10 0 222 270 30 0 27 83 98 36 2 23 16 0 5 71 40 52
16 7 4 1 0 0 0 0 0 5 8 6 9 14 28 24 15 5 18 24 3 6 8 10 4 12 5 0 0 0 0 18 41 5 0 18 62 84 67 3 27 0 6 55 7 39 35
3 6 4 2 1 0 0 0 0 2 9 6 9 13 27 24 19 10 7 16 18 4 4 13 0 1 8 0 0 1 8 2 22 2 3 4 2 56 54 1 17 3 0 13 0 0 8
4 4 8 2 1 0 0 0 0 1 8 10 9 12 14 20 21 15 9 8 3 9 5 8 0 0 3 0 0 8 16 1 29 10 0 4 0 11 41 22 39 16 7 6 18 3 1
0 12 27 1 2 1 0 0 0 1 5 5 3 6 11 11 15 10 2 5 0 2 0 1 0 13 1 0 7 6 5 9 20 5 0 1 0 25 46 30 23 34 0 1 2 0 15
0 6 20 1 2 1 1 0 0 1 5 7 4 8 5 9 12 3 8 0 0 0 0 0 1 2 0 0 0 0 0 2 26 0 3 0 11 17 34 26 11 1 3 0 0 0 0
0 12 20 5 2 2 1 0 0 0 4 4 4 3 2 10 3 2 1 0 0 0 0 0 1 15 24 1 0 0 0 3 19 2 0 0 2 1 4 0 0 0 0 0 0 5 0
39 12 23 36 2 4 0 0 0 1 3 4 1 4 5 2 7 6 0 0 0 0 0 4 1 18 9 0 8 0 0 7 7 0 3 2 0 2 14 22 41 15 1 3 2 4 0
0 36 23 23 2 5 1 0 0 0 3 2 0 0 5 9 4 0 0 0 0 0 0 5 2 2 0 23 0 2 10 6 3 3 1 1 3 0 5 32 12 9 21 5 0 2 24
0 0 61 28 2 5 2 0 0 0 1 0 0 1 4 4 0 0 0 0 0 0 0 6 4 8 38 32 1 14 0 1 4 5 2 4 7 1 1 10 30 16 13 19 9 3 0
2 1 7 41 1 5 3 0 0 0 0 0 0 0 3 6 0 0 0 0 0 0 0 0 0 0 38 15 2 2 27 5 10 11 0 1 4 4 0 15 29 22 5 12 23 37 7
11 5 2 63 2 4 3 0 0 0 0 0 0 0 4 0 0 0 0 0 0 0 0 0 2 0 1 18 20 18 35 21 26 0 0 0 2 0 0 4 3 1 29 6 0 0 0
8 6 9 6 1 4 3 0 0 0 0 0 0 0 0 3 1 0 0 0 0 0 0 0 1 0 0 2 5 9 1 0 0 0 0 2 5 1 0 0 7 8 5 0 0 0 0
24 28 21 1 9 4 5 0 0 0 0 0 0 0 0 0 0 0 0 0 0 0 0 0 2 0 0 1 0 1 1 0 0 0 0 0 0 4 0 2 0 10 3 0 0 0 0
45 43 14 0 1 4 4 1 0 0 0 0 0 0 0 0 0 0 2 0 0 0 0 0 2 0 1 0 5 0 0 5 0 0 1 0 2 0 0 0 0 2 1 0 0 0 0
7 26 22 1 2 5 5 4 0 0 0 0 0 0 1 0 0 2 1 0 0 1 7 0 8 5 0 0 0 1 0 0 0 0 0 2 0 3 0 0 0 4 0 0 0 0 0
28 35 21 6 13 5 5 5 1 0 0 0 0 0 2 0 0 4 0 0 2 0 3 9 6 7 5 0 0 0 1 0 1 0 0 1 0 2 0 0 0 0 0 1 0 0 0
4 0 38 0 28 5 5 6 6 0 0 0 0 1 8 0 2 3 0 1 0 0 0 0 0 4 10 8 2 2 0 1 0 0 0 0 0 0 0 1 0 2 1 2 0 0 0
15 22 10 5 10 4 3 5 13 1 0 0 0 0 0 5 1 0 0 1 2 1 0 0 0 0 0 8 4 4 3 3 5 0 1 0 0 0 0 0 0 0 1 3 0 0 0
19 23 12 0 2 4 4 6 8 0 0 0 0 0 2 9 0 0 0 1 4 0 1 0 0 0 0 0 1 1 2 0 8 2 0 0 2 0 0 0 0 0 0 0 3 0 0
17 17 5 5 6 4 5 4 8 0 0 0 0 0 0 0 1 0 0 2 1 0 0 0 0 0 1 13 6 3 1 1 6 0 0 0 0 0 0 0 0 0 0 0 0 0 0
9 14 8 1 9 5 4 5 6 0 0 0 0 0 0 0 0 0 0 0 2 5 0 0 0 0 0 10 2 9 0 0 0 0 0 0 0 0 0 0 0 0 0 0 0 0 1
17 23 5 3 5 5 5 6 4 0 0 0 0 0 0 0 0 0 0 1 2 3 1 7 1 0 0 0 0 0 0 1 2 0 0 10 1 0 0 0 0 0 0 0 0 0 0
18 26 7 5 12 5 5 6 1 0 0 0 0 0 0 0 0 0 0 1 5 1 2 9 9 0 0 0 0 0 0 0 0 1 4 13 1 0 0 0 0 0 0 0 0 0 0
17 27 7 10 16 8 6 9 0 0 0 0 0 0 0 0 0 0 0 0 0 0 14 0 0 0 0 0 0 0 0 0 0 0 0 0 4 0 0 0 0 0 0 0 0 0 0
19 10 0 0 3 8 12 6 0 0 0 0 0 0 0 0 0 0 0 0 0 0 0 0 0 0 0 0 0 0 0 0 0 0 0 0 2 1 0 0 0 0 0 0 0 0 0
16 3 1 0 6 3 6 8 0 0 0 0 0 0 0 0 0 0 0 0 0 1 2 0 0 0 0 0 1 0 4 0 0 0 0 0 0 0 0 1 0 0 0 0 0 0 0
2 14 3 3 5 2 6 0 0 2 0 0 0 0 0 0 0 0 0 0 0 0 0 0 0 0 0 2 2 0 0 0 0 1 0 0 0 0 0 2 0 0 0 0 0 0 0
5 12 10 19 5 8 4 4 0 0 0 0 0 0 0 0 0 0 0 0 0 0 0 0 0 0 0 0 0 0 0 0 0 0 0 5 0 7 0 0 0 0 0 0 0 0 0

GFSGBSN_con_mlcape_075.txt.gz
CAPE
17 2 25 9 2 0 0 0 0 0 2 5 6 11 10 23 21 20 8 11 25 3 8 10 13 1 0 0 0 7 0 151 62 7 0 0 24 145 39 54 60 121 38 33 16 96 46
20 5 4 15 2 0 0 0 0 0 1 4 5 10 14 16 22 18 14 5 12 17 3 9 25 0 1 0 0 0 0 27 9 10 0 14 24 57 83 59 65 33 0 1 8 62 46
32 17 3 22 7 2 0 0 0 0 1 3 5 13 10 11 17 16 16 3 9 9 17 8 32 5 1 0 0 0 0 0 4 0 6 7 0 10 25 45 36 22 18 0 15 3 23
49 37 15 8 46 3 0 0 0 0 0 2 2 4 8 11 10 5 7 1 6 2 6 16 18 6 0 0 0 0 7 15 5 0 0 0 0 1 7 13 53 27 8 0 1 0 0
10 17 50 16 47 4 1 1 0 0 0 1 3 3 12 6 5 5 3 1 3 2 3 3 0 6 2 0 0 0 3 12 2 0 0 0 0 6 4 23 46 16 0 0 3 29 22
3 19 1 58 63 20 1 2 1 0 0 1 2 5 5 3 5 4 3 0 0 1 0 0 0 2 0 3 15 0 0 0 17 4 0 0 9 17 8 26 22 10 0 0 0 2 13
0 5 10 0 48 66 3 4 2 0 0 0 1 3 3 3 5 4 1 0 0 0 0 0 1 9 4 0 0 1 0 5 3 1 1 0 0 3 0 8 10 3 3 0 0 8 5
0 0 0 1 0 17 21 5 3 0 0 1 2 1 0 2 5 1 0 0 0 0 0 0 2 0 0 0 0 0 0 5 4 0 0 0 0 0 3 11 22 10 0 1 9 0 10
6 2 5 0 0 1 20 5 4 1 0 1 0 0 3 0 0 0 0 0 0 0 0 2 1 0 0 0 0 0 0 6 3 3 5 0 0 1 0 4 0 0 0 0 3 22 4
23 21 8 1 0 1 7 3 4 2 0 0 0 0 1 0 0 0 0 0 0 0 0 1 0 0 5 0 2 1 0 3 2 1 10 1 0 1 1 0 0 0 2 11 16 0 0
27 19 28 3 3 5 3 2 4 2 0 0 0 0 0 0 0 0 0 0 0 0 0 0 0 0 11 0 0 0 0 7 6 4 1 1 11 12 13 0 0 1 0 4 2 0 3
9 16 35 29 1 20 3 14 5 2 0 0 0 0 1 0 0 0 0 0 0 0 0 0 0 1 3 3 0 0 7 1 4 1 2 3 2 0 0 0 1 0 0 0 0 4 0
37 30 10 35 7 19 0 20 4 3 0 0 0 0 0 0 0 0 0 0 0 0 0 0 2 3 1 0 1 0 0 0 0 0 1 0 0 0 0 0 0 1 1 0 3 0 0
30 36 18 2 0 39 1 11 4 5 0 0 0 0 0 0 0 0 0 0 0 0 0 0 0 0 0 0 0 0 0 0 0 0 0 0 0 0 0 0 0 4 0 0 0 0 0
29 70 5 18 13 45 1 10 6 5 0 0 0 0 0 0 0 0 0 0 1 0 0 1 2 1 0 0 1 0 0 0 0 0 0 0 0 0 0 0 0 2 0 0 0 0 0
15 14 1 27 38 25 11 10 6 4 0 0 0 0 2 0 0 1 1 0 0 0 1 0 1 1 1 0 0 2 0 0 0 0 0 0 0 0 0 0 0 0 0 0 0 0 0
13 12 15 37 5 14 9 25 8 7 0 0 0 0 1 0 0 3 0 0 1 0 0 0 0 12 1 0 1 0 1 0 0 0 0 0 0 0 0 0 0 0 0 0 0 0 0
20 18 12 22 2 21 28 0 14 5 0 3 1 0 2 0 0 0 0 0 0 0 0 0 0 0 0 0 0 0 0 0 2 0 0 0 0 0 0 0 0 0 0 0 0 0 0
15 18 21 22 0 22 0 2 12 7 0 0 1 0 4 2 0 0 0 1 0 0 0 0 0 0 0 0 1 12 0 0 0 0 0 0 0 1 2 0 0 0 0 0 0 0 0
7 9 14 24 5 22 15 3 7 6 0 0 0 0 2 11 0 0 0 0 0 2 6 0 0 0 0 2 1 0 0 1 6 1 0 0 0 0 0 0 0 0 0 0 0 0 0
13 16 9 39 11 27 2 9 6 1 0 0 0 0 0 0 0 0 0 1 4 7 0 0 0 0 0 0 0 2 0 3 6 0 0 0 0 0 0 0 0 0 0 0 0 0 0
32 26 20 42 14 13 1 18 9 0 0 0 0 0 0 0 0 0 0 0 0 3 0 0 0 0 5 3 0 0 0 0 2 1 0 0 0 0 0 0 0 0 0 0 0 0 0
38 33 18 43 22 14 4 6 3 0 5 0 0 0 0 0 0 0 0 0 0 5 1 0 0 0 0 0 0 0 0 0 2 0 0 0 0 0 0 0 0 0 0 0 0 0 0
30 29 35 49 27 32 12 6 6 2 0 0 0 0 0 0 0 0 0 0 3 5 0 0 0 0 0 0 0 0 0 0 0 0 12 5 0 0 0 0 0 0 0 0 0 0 0
22 36 50 37 25 21 17 15 10 16 0 0 0 0 0 0 0 0 0 0 2 5 1 0 0 0 0 0 0 0 0 0 0 0 1 8 9 0 0 0 0 0 0 0 0 0 0
36 33 29 31 14 8 2 25 10 18 2 0 0 0 0 0 0 0 0 0 0 0 0 0 0 0 0 0 0 0 0 0 0 0 0 0 9 0 0 0 0 0 0 0 0 0 0
26 36 16 5 2 1 1 12 8 5 20 0 0 0 0 0 0 0 0 0 0 0 0 0 0 0 0 0 0 0 0 0 0 0 0 0 0 0 0 0 0 0 0 0 0 0 0
25 19 27 11 3 7 8 13 5 1 33 0 0 0 0 0 0 0 0 0 0 0 0 0 0 0 0 0 0 0 0 0 0 0 0 0 0 0 0 0 0 0 0 0 0 0 0
28 20 28 6 19 8 11 10 2 2 22 0 0 0 0 0 0 0 0 0 0 0 0 0 0 0 0 0 0 0 0 0 0 0 0 0 0 0 0 0 0 0 0 0 0 0 0

GFSGBSN_con_mlcape_078.txt.gz
CAPE
23 46 42 21 5 21 4 2 0 0 1 4 0 4 7 17 13 16 26 17 7 20 19 2 11 22 0 0 0 0 0 52 47 13 0 0 0 49 27 7 18 9 42 50 14 66 55
3 3 12 51 48 19 44 5 1 0 0 2 1 4 7 8 14 12 21 19 3 8 24 19 1 18 0 0 0 0 0 0 3 0 1 13 29 44 55 39 2 18 84 86 0 9 51
2 3 2 15 4 54 43 8 2 1 0 1 3 1 1 1 13 10 5 10 1 4 12 11 23 15 0 0 0 0 0 0 0 0 0 0 0 2 27 45 67 0 18 38 68 25 19
3 0 2 2 4 1 4 51 4 3 1 1 2 1 0 2 9 2 4 2 1 1 3 3 22 17 0 0 0 0 0 2 3 0 0 0 0 0 19 16 41 58 0 4 1 9 1
2 3 2 1 2 1 1 54 1 3 3 3 1 4 0 1 6 2 2 5 4 4 4 4 3 4 1 0 2 6 2 0 5 0 0 0 0 6 0 8 31 24 0 0 0 1 14
10 4 5 3 0 1 2 7 18 3 2 4 4 3 0 0 1 2 1 0 0 1 0 0 0 1 0 13 0 12 0 0 11 12 0 1 0 0 2 0 4 1 0 0 0 2 4
17 21 4 4 3 6 4 2 4 9 4 2 1 0 0 0 2 0 0 0 0 0 0 0 0 5 1 0 0 5 0 1 17 9 1 6 0 0 0 0 8 1 0 0 0 0 3
14 11 22 9 4 6 9 1 9 9 4 3 1 0 0 0 0 0 0 0 0 0 0 0 0 0 0 0 0 0 2 3 3 4 0 1 2 0 0 0 5 13 1 2 0 0 2
14 7 25 33 17 7 9 5 10 0 4 2 1 4 0 0 0 0 0 0 0 0 0 0 0 0 0 0 0 0 4 3 7 1 2 0 0 3 5 0 4 4 0 0 10 5 7
17 10 6 16 42 14 16 13 11 1 4 1 3 1 0 0 0 0 0 0 0 0 0 0 0 0 0 0 0 0 0 3 5 6 1 0 0 0 8 2 9 7 0 0 0 1 0
13 12 14 12 17 24 5 12 17 3 25 3 2 1 0 0 0 0 0 0 0 0 0 0 0 0 8 0 0 0 6 0 11 0 0 2 0 7 0 1 0 0 0 0 0 0 0
10 14 21 7 13 14 7 1 0 24 22 3 4 1 0 0 0 0 0 0 0 0 0 0 0 0 0 7 0 0 0 0 0 1 2 3 2 0 0 0 0 0 6 5 0 0 0
31 27 12 18 7 8 12 0 16 25 28 3 3 0 0 0 0 0 0 0 0 0 0 0 0 0 0 0 0 0 0 0 0 0 0 1 0 0 0 1 0 1 0 0 0 0 0
15 36 22 22 12 36 0 9 0 40 25 5 5 0 0 0 0 0 0 0 0 0 0 0 0 0 0 0 0 0 0 0 0 0 0 0 2 0 0 0 0 0 0 0 0 0 0
40 33 22 19 56 46 34 0 10 1 17 5 3 1 0 0 0 0 0 0 0 0 0 0 0 0 0 0 0 0 0 0 0 0 0 0 0 0 0 0 0 0 0 0 0 0 0
40 37 36 49 52 25 20 1 0 17 2 7 0 0 0 0 0 0 0 0 0 0 0 0 0 0 0 0 0 0 0 0 0 0 0 0 0 0 0 0 0 0 0 0 0 0 0
37 35 29 28 10 7 27 1 16 29 9 19 12 0 2 0 0 4 0 0 0 0 0 0 11 1 0 0 0 0 0 0 0 0 0 0 0 0 0 0 0 0 0 0 0 0 0
36 44 57 43 5 1 18 0 13 13 6 30 23 0 4 1 1 1 1 0 0 0 0 0 0 5 0 0 0 0 0 0 0 0 0 0 0 0 0 0 0 0 0 0 0 0 0
29 27 56 82 41 8 18 1 21 10 1 8 7 3 4 4 0 0 0 0 2 0 0 0 0 4 1 0 0 1 0 0 0 0 0 0 0 0 0 0 0 0 0 0 0 0 0
41 40 75 90 31 21 26 6 11 20 0 9 5 1 1 4 0 0 0 0 1 0 0 0 0 1 7 8 2 2 1 2 1 0 0 0 0 0 0 0 0 0 0 0 0 0 0
48 85 53 32 11 15 31 14 12 9 0 6 3 0 0 1 2 0 0 0 2 1 0 0 0 0 0 0 0 0 0 2 5 0 0 0 0 0 0 0 0 0 0 0 0 0 0
46 72 41 16 7 20 5 20 1 26 3 11 4 0 0 0 0 0 0 0 0 1 0 0 0 0 0 0 0 0 0 0 0 0 0 0 0 0 0 0 0 0 0 0 0 0 0
36 68 33 31 28 36 18 10 4 15 6 7 1 0 0 0 0 0 0 0 7 2 0 0 0 0 0 0 0 0 0 0 0 0 0 0 0 0 0 0 0 0 0 0 0 0 0
30 35 30 25 23 46 33 10 6 4 7 0 0 0 0 0 0 0 0 0 0 0 0 0 0 0 0 0 0 0 0 0 2 0 1 0 0 0 0 0 0 0 0 0 0 0 0
15 42 32 41 29 44 23 18 31 13 14 0 0 0 0 0 0 0 0 0 8 5 3 0 0 0 0 0 0 0 0 0 0 0 7 0 0 0 0 0 0 0 0 0 0 0 0
35 45 39 33 33 8 6 3 1 15 15 2 0 0 0 0 0 0 0 0 1 0 0 0 0 0 0 0 0 0 0 0 0 0 0 2 1 0 0 0 0 0 0 0 0 0 0
29 37 33 28 22 8 6 1 2 2 17 1 0 0 0 0 0 0 0 1 0 0 0 0 0 0 0 0 0 0 0 0 0 0 1 0 1 0 0 0 0 0 0 0 0 0 0
25 35 30 28 24 22 5 14 4 13 23 0 0 0 0 0 0 0 0 0 0 0 0 0 0 0 0 2 0 0 0 0 0 0 0 0 0 0 0 0 0 0 0 0 0 0 0
22 27 30 39 14 10 5 38 12 2 1 0 0 0 0 0 0 0 0 0 0 0 0 0 0 0 0 0 0 0 0 0 0 0 0 0 0 0 0 0 0 0 0 0 0 0 0

GFSGBSN_con_mlcape_081.txt.gz
CAPE
3 3 4 5 2 1 1 11 17 4 4 4 5 3 5 2 26 9 6 13 17 12 14 37 3 8 0 0 0 0 0 0 18 9 0 4 0 0 10 8 38 10 0 0 1 69 119
0 1 2 4 4 3 0 1 2 24 4 3 2 3 0 6 4 10 6 2 13 13 16 34 26 16 0 0 0 0 0 0 0 0 0 6 0 3 26 12 13 0 0 0 0 14 22
2 3 4 1 5 6 2 0 0 0 5 4 6 3 2 3 5 17 8 4 5 10 11 11 12 21 0 0 0 0 0 2 6 0 0 13 0 1 40 22 34 12 0 0 10 23 10
8 11 9 5 3 4 3 3 0 0 23 5 7 3 6 1 9 5 11 5 2 3 2 8 17 2 0 0 0 0 0 0 10 16 0 0 7 2 26 29 37 34 9 0 2 7 0
17 6 8 12 11 9 6 2 2 0 0 0 4 6 10 2 6 1 4 5 3 1 3 13 4 1 0 0 6 10 10 0 0 11 0 4 7 7 11 51 25 15 0 0 2 0 0
6 5 16 36 24 12 9 10 11 6 8 0 4 4 8 5 0 2 0 1 0 1 2 2 0 0 0 12 0 2 6 0 0 20 4 8 14 0 2 20 1 2 3 0 0 4 0
15 9 15 36 38 34 8 10 8 9 25 0 4 2 3 0 0 6 0 0 0 0 0 0 0 0 0 0 0 0 0 0 3 8 2 6 0 0 8 0 0 2 0 0 3 1 1
21 14 29 41 29 37 38 4 9 12 8 11 6 3 6 0 0 4 0 0 0 0 0 0 0 0 0 0 0 0 0 2 3 2 3 2 0 0 0 0 0 3 1 0 5 0 1
17 6 9 19 24 43 33 33 1 12 8 16 19 2 8 3 0 1 0 0 0 0 0 0 0 0 0 0 0 0 0 0 3 1 3 0 0 0 0 0 0 6 0 0 0 0 1
17 11 7 6 9 9 6 14 24 4 0 1 32 2 6 0 0 0 0 0 0 0 0 0 0 0 0 0 0 0 0 1 7 0 2 1 0 0 0 0 0 2 1 0 0 0 0
11 12 7 7 15 11 10 17 23 8 0 0 1 4 3 0 0 0 0 0 0 0 0 0 0 0 0 0 0 0 0 2 8 5 3 0 0 1 0 2 1 0 0 0 0 0 0
10 18 12 7 15 11 6 11 30 5 0 1 15 3 7 3 0 0 0 0 0 0 0 0 0 0 0 0 0 0 1 0 3 1 1 1 2 1 5 0 0 1 0 0 0 0 0
18 18 27 12 28 18 23 9 8 13 0 12 10 3 9 0 0 0 0 0 0 0 0 0 0 0 0 0 0 0 0 0 0 1 0 2 1 0 0 2 0 1 0 0 0 0 0
31 21 22 31 32 24 24 2 3 21 0 1 0 9 8 0 0 0 0 0 0 0 0 0 0 0 0 0 0 0 0 0 0 0 0 0 4 0 0 0 1 0 0 0 0 0 0
43 31 31 24 27 27 16 6 16 21 0 0 9 7 3 0 0 0 0 0 0 0 0 0 0 0 0 0 0 0 0 0 0 0 0 0 0 0 0 0 0 0 0 0 0 0 0
37 34 31 30 25 20 13 5 31 40 5 7 0 2 8 4 0 0 0 0 0 0 0 0 0 0 0 0 0 0 0 0 0 0 0 0 0 0 0 0 0 0 0 0 0 0 0
46 42 36 40 32 38 5 13 44 63 23 23 8 5 13 0 9 10 0 0 0 0 0 0 0 0 0 0 0 0 0 0 0 0 0 0 0 0 0 0 0 0 0 0 0 0 0
32 13 41 82 60 58 35 41 44 48 19 17 16 0 9 3 4 4 0 0 0 0 1 0 0 0 0 0 0 0 0 0 0 0 0 0 0 0 0 0 0 0 0 0 0 0 0
32 20 61 85 58 46 31 39 32 25 12 27 3 2 7 8 0 1 0 0 0 0 0 0 4 0 0 0 0 0 0 0 0 0 0 0 0 0 0 0 0 0 0 0 0 0 0
26 33 59 96 57 49 5 28 43 5 10 22 2 0 3 6 1 0 0 0 1 0 4 0 0 3 0 0 0 0 0 0 0 0 0 0 0 0 0 0 0 0 0 0 0 0 0
19 41 65 65 41 24 15 30 21 5 19 11 3 0 1 0 1 0 0 0 2 6 6 0 0 6 0 0 0 0 1 6 1 0 0 0 0 0 0 0 0 0 0 0 0 0 0
20 34 41 36 70 27 20 33 0 16 6 24 1 2 4 0 1 0 0 0 4 3 0 0 0 2 5 0 0 0 0 0 0 0 0 0 0 0 0 0 0 0 0 0 0 0 0
37 34 35 69 51 36 44 36 43 9 13 4 7 3 0 0 1 0 0 0 2 0 0 0 0 0 0 0 0 0 0 0 0 0 0 0 0 0 0 0 0 0 0 0 0 0 0
31 25 35 43 20 35 32 27 18 13 0 1 0 0 0 0 0 0 0 0 0 1 0 0 0 0 0 0 0 0 0 0 1 0 0 0 0 0 0 0 0 0 0 0 0 0 0
20 21 19 44 35 44 46 6 8 39 4 0 0 0 0 0 0 0 0 0 10 3 0 0 0 0 0 0 0 1 4 7 0 0 0 0 0 0 0 0 0 0 0 0 0 0 0
26 32 25 23 41 33 29 16 11 3 1 0 0 0 0 0 0 0 0 3 5 4 0 0 0 0 0 0 0 0 0 0 0 0 2 0 0 0 2 0 0 0 0 0 0 0 0
34 28 32 29 31 51 20 14 12 23 4 0 0 0 0 0 0 0 0 1 0 0 0 0 0 0 0 0 0 0 0 0 0 0 0 6 0 1 0 0 0 0 0 0 0 0 0
37 27 13 31 46 12 0 5 18 22 0 0 0 0 0 0 0 0 0 0 0 0 0 0 1 1 0 1 0 0 0 0 0 0 0 0 0 0 0 0 0 0 0 0 0 0 0
26 20 15 35 14 0 2 3 27 28 0 0 0 0 0 0 0 0 0 0 0 0 0 0 0 0 0 0 0 0 0 0 0 0 0 0 0 0 0 0 0 0 0 0 0 0 0

GFSGBSN_con_mlcape_084.txt.gz
CAPE
4 12 12 4 4 11 10 6 8 4 1 24 7 5 10 7 16 13 2 15 11 30 18 1 32 15 0 0 0 0 0 0 3 4 0 3 11 6 3 1 16 0 27 10 10 1 9
3 1 8 6 8 4 8 5 1 6 2 63 19 4 3 1 7 7 8 14 15 12 20 7 25 32 0 0 0 0 0 0 0 0 3 8 9 6 1 2 10 22 14 49 11 22 39
5 7 11 7 1 16 15 3 6 9 6 2 2 26 2 3 4 11 17 14 18 12 15 11 16 20 6 0 0 0 0 0 0 0 0 0 14 2 11 5 0 1 26 4 11 0 2
3 10 31 29 36 29 11 9 5 12 9 21 11 8 5 1 0 5 11 7 7 9 1 4 12 12 0 0 0 0 12 0 2 16 4 0 9 7 10 48 98 3 26 5 3 11 7
8 22 30 38 51 48 36 35 10 8 4 22 19 0 9 0 0 0 5 14 5 5 4 16 8 1 0 0 0 7 23 5 0 2 8 3 15 5 11 6 36 10 13 2 0 25 3
9 24 33 42 57 50 58 49 38 18 18 14 8 8 9 3 0 8 1 3 0 15 5 18 2 2 0 0 0 0 0 2 0 0 5 5 4 0 0 4 1 24 10 0 0 0 0
10 22 21 40 45 34 49 45 23 21 9 5 6 0 12 2 4 0 0 0 0 0 0 0 0 0 0 0 0 0 0 0 0 9 1 4 12 0 0 6 0 4 6 5 0 5 3
9 20 28 38 34 35 30 44 37 25 12 11 0 0 6 2 0 0 1 0 0 0 0 0 0 0 0 0 0 0 0 0 5 2 1 1 0 0 0 4 0 10 0 0 2 2 0
10 14 19 22 25 16 13 11 50 25 34 5 0 12 15 0 0 0 0 0 0 0 0 0 0 0 0 0 0 0 0 1 2 0 1 4 1 10 0 0 0 14 0 0 0 1 0
1 4 11 5 16 14 16 11 16 16 6 10 0 0 29 0 0 0 0 0 0 0 0 0 0 0 0 0 0 0 0 1 12 0 2 3 8 0 0 0 0 12 0 1 9 0 0
10 10 24 25 24 17 19 14 13 13 12 3 0 0 9 0 0 0 0 0 0 0 0 0 0 0 0 0 0 0 0 1 7 0 0 0 9 0 0 0 0 3 1 0 0 0 0
25 34 39 36 37 35 44 38 26 18 13 7 0 2 13 1 0 0 0 0 0 0 0 0 0 0 0 0 0 0 0 2 0 3 0 0 10 2 1 2 0 0 0 0 1 0 0
39 51 51 49 41 35 34 35 34 22 15 2 0 2 21 4 0 0 0 0 0 0 0 0 0 0 0 0 0 0 0 0 0 3 0 0 1 4 0 2 2 1 0 2 0 0 0
46 55 52 38 31 35 39 40 25 9 3 1 0 9 5 0 0 0 0 0 0 0 0 0 0 0 0 0 0 0 0 0 0 0 0 0 0 1 0 1 0 0 0 0 0 0 0
44 41 32 18 28 35 42 30 23 100 43 1 17 39 8 0 1 0 0 0 0 0 0 0 0 0 0 0 0 0 0 0 0 0 0 0 0 0 0 0 0 0 0 0 0 0 0
39 29 24 21 34 41 71 59 73 81 43 35 5 3 1 0 0 0 0 0 0 0 0 0 0 0 0 0 0 0 0 0 0 0 0 0 0 0 0 0 0 0 0 0 0 0 0
40 42 35 20 35 52 105 94 70 48 43 41 6 4 3 0 4 3 0 0 0 0 0 0 0 0 0 0 0 0 0 0 0 0 0 0 0 0 0 0 0 0 0 0 0 0 0
39 34 22 32 27 75 104 74 62 38 54 16 5 0 2 10 0 0 1 0 0 0 0 0 0 0 0 0 0 0 0 0 0 0 0 0 0 0 0 0 0 0 0 0 0 0 0
44 18 33 34 45 75 97 31 37 34 47 24 1 0 2 8 0 1 0 0 0 0 0 0 0 0 0 0 0 0 0 0 0 0 0 0 0 0 0 0 0 0 0 0 0 0 0
35 13 24 33 53 101 82 57 21 26 22 21 1 0 3 3 3 0 0 0 0 0 0 0 0 0 0 0 0 0 0 0 0 0 0 0 0 0 0 0 0 0 0 0 0 0 0
29 16 28 24 59 79 69 47 37 34 23 10 1 0 1 0 0 0 0 0 1 1 2 0 6 8 0 0 0 0 0 0 0 0 0 0 0 0 0 0 0 0 0 0 0 0 0
13 19 25 46 21 71 44 17 35 23 11 7 0 1 2 0 2 0 0 0 6 4 4 0 8 9 1 0 0 0 0 0 0 0 0 0 0 0 0 0 0 0 0 0 0 0 0
5 23 30 19 50 56 47 40 18 12 17 5 8 1 0 1 0 0 0 0 3 6 0 0 0 1 14 3 0 0 0 0 0 0 0 0 0 0 0 0 0 0 0 0 0 0 0
6 35 39 39 41 31 34 13 25 4 12 8 0 0 0 0 0 0 0 0 5 1 2 0 0 7 0 0 0 0 0 1 0 0 0 0 0 0 0 0 0 0 0 0 0 0 0
22 15 29 41 49 28 25 19 17 10 28 0 0 0 0 0 0 0 0 0 9 0 0 0 0 0 0 0 1 3 3 3 0 0 0 0 0 0 0 0 0 0 0 0 0 0 0
16 17 25 40 18 24 24 43 11 8 0 0 0 0 0 0 0 0 0 0 11 3 0 0 0 0 0 0 0 1 0 0 0 0 0 0 0 0 0 0 0 0 0 0 0 0 0
22 17 28 24 20 38 32 14 1 19 0 0 0 0 0 0 0 0 0 2 0 1 0 0 0 0 0 0 0 0 0 0 0 0 0 0 0 0 0 0 0 0 0 0 0 0 0
16 19 19 6 28 7 4 10 5 18 0 0 0 0 0 0 0 0 0 0 0 0 0 0 0 0 1 5 0 0 0 0 0 0 0 0 0 0 0 0 0 0 0 0 0 0 0
18 7 11 14 12 1 0 1 10 4 0 0 0 0 0 0 0 0 0 0 0 0 0 0 0 0 0 0 0 0 0 0 0 0 0 0 0 0 0 0 0 0 0 0 0 0 0

GFSGBSN_con_mlcape_087.txt.gz
CAPE
4 8 19 15 8 19 22 21 19 18 29 10 4 12 90 13 4 0 3 0 6 0 4 17 10 33 0 0 0 0 0 0 0 0 0 0 1 7 9 4 2 0 0 1 5 69 23
17 23 23 18 21 28 27 25 33 22 27 22 4 16 1 30 3 0 0 0 18 3 10 18 11 23 1 1 0 0 0 0 0 0 0 0 2 11 4 9 3 11 0 0 0 11 44
23 24 10 34 37 36 36 31 30 23 28 20 8 7 7 0 3 0 0 10 9 7 3 19 6 24 5 0 0 0 0 0 0 0 0 0 0 2 2 2 0 13 3 0 0 59 57
2 13 10 30 33 27 21 40 22 10 16 34 13 10 8 0 5 0 0 6 4 1 0 12 16 26 5 0 0 0 4 3 15 15 2 1 1 5 0 0 4 22 0 0 5 15 13
12 20 24 37 37 41 39 29 24 11 21 12 24 19 12 2 7 1 0 3 5 4 3 12 5 8 0 0 0 0 0 2 1 0 1 10 18 4 7 1 1 0 0 0 11 43 0
11 33 29 33 35 35 53 42 28 26 25 31 9 5 3 15 6 0 0 0 0 2 0 14 1 0 0 0 0 0 0 0 0 0 0 9 3 1 1 0 1 0 0 3 10 21 0
13 20 32 33 33 42 27 47 43 51 22 22 10 9 0 73 3 0 0 0 0 0 0 0 0 0 0 0 0 0 0 0 0 0 0 7 6 0 0 0 0 0 0 0 0 4 0
15 11 14 15 15 12 21 25 23 37 44 18 0 10 3 14 5 0 0 0 0 0 0 0 0 0 0 0 0 0 0 0 2 1 3 1 0 0 3 1 11 2 0 3 19 4 0
14 17 25 22 24 24 17 21 19 19 26 14 0 11 15 2 5 0 0 0 0 0 0 0 0 0 0 0 0 1 0 1 1 0 0 3 1 6 0 0 7 0 0 0 0 1 2
8 12 14 35 35 45 41 24 25 32 28 19 12 0 6 3 0 0 0 0 0 0 0 0 0 0 0 0 0 0 0 0 1 0 0 0 6 1 5 0 3 1 0 0 0 0 0
21 21 23 44 44 42 32 22 29 16 20 9 8 7 12 2 0 0 0 0 0 0 0 0 0 0 0 0 0 2 0 0 1 0 2 0 13 5 1 0 0 7 0 0 0 0 0
31 37 33 24 26 42 43 40 27 25 13 10 0 11 12 0 0 0 0 0 0 0 0 0 0 0 0 0 0 0 2 0 1 2 0 2 7 1 3 0 0 0 1 0 0 0 0
34 39 35 27 40 17 34 30 25 17 14 16 28 3 4 6 2 0 0 2 0 0 0 0 0 0 0 0 0 0 0 1 0 0 0 0 2 3 0 1 1 0 1 0 0 0 0
35 26 36 30 27 40 22 33 43 95 78 96 77 24 0 0 0 0 4 0 0 0 0 0 0 0 0 0 0 0 0 0 2 0 0 0 0 1 3 1 0 0 0 0 0 0 0
35 33 23 29 29 27 31 44 103 100 78 57 21 0 0 6 2 0 1 0 0 0 0 0 0 0 0 0 0 0 0 0 0 0 0 0 0 0 0 0 0 0 0 0 0 0 0
27 27 32 22 32 20 46 74 99 84 68 45 6 2 3 18 0 2 0 0 0 0 0 0 0 0 0 0 0 0 0 0 0 0 0 0 0 1 0 0 0 0 0 0 0 0 0
25 21 27 27 21 40 72 83 90 53 67 55 0 0 15 4 4 1 0 0 0 0 0 0 0 0 0 0 0 0 0 0 0 0 0 0 0 0 0 0 0 0 0 0 0 0 0
18 18 24 25 31 63 98 82 87 52 61 1 4 0 2 12 0 0 0 0 0 0 0 0 0 0 0 0 0 0 0 0 0 0 0 0 0 0 0 0 0 0 0 0 0 0 0
11 12 22 18 38 77 83 77 72 55 62 1 1 1 5 3 0 0 0 0 0 10 5 0 0 0 0 0 0 0 0 0 0 0 0 0 0 0 0 0 0 0 0 0 0 0 0
7 12 19 13 49 90 115 64 40 38 48 0 0 0 0 3 3 0 0 0 0 0 12 10 0 0 0 0 0 0 0 0 0 0 0 0 0 0 0 0 0 0 0 0 0 0 0
5 10 12 28 69 78 75 40 42 49 33 0 0 0 2 0 0 0 0 0 0 3 22 6 4 0 0 0 0 0 0 0 0 0 0 0 0 0 0 0 0 0 0 0 0 0 0
4 11 7 44 70 63 58 37 36 28 16 0 0 2 1 0 1 0 0 0 0 7 15 8 11 0 0 0 0 0 0 0 0 0 0 0 0 0 0 0 0 0 0 0 0 0 0
4 13 20 37 49 49 36 30 28 20 22 1 6 1 3 0 0 0 0 0 1 18 2 1 12 9 3 0 0 0 0 0 0 0 0 0 0 0 0 0 0 0 0 0 0 0 0
8 16 26 35 44 40 26 29 17 28 14 4 1 6 3 0 0 1 0 0 0 12 8 0 1 17 0 0 0 0 0 0 0 0 0 0 0 0 0 0 0 0 0 0 0 0 0
11 30 25 32 41 32 27 17 26 2 0 0 0 0 2 0 0 0 0 0 1 7 0 2 0 0 0 0 0 0 0 0 0 0 0 0 0 0 0 0 0 0 0 0 0 0 0
18 37 25 21 31 32 43 1 1 5 1 0 0 0 0 0 0 0 0 0 8 0 0 0 0 0 0 0 0 0 0 0 0 0 0 0 0 0 0 0 0 0 0 0 0 0 0
22 26 15 17 30 36 13 10 7 12 0 0 0 0 0 0 0 0 0 0 0 0 0 0 0 0 0 0 0 0 0 0 0 0 0 2 1 0 0 0 0 0 0 0 0 0 0
30 17 17 10 15 19 7 2 7 6 0 0 0 0 0 0 0 0 0 0 0 0 2 0 6 3 0 1 0 0 0 0 0 0 0 0 0 0 0 0 0 0 0 0 0 0 0
28 20 9 5 5 4 0 7 0 0 0 0 0 0 0 0 0 0 0 0 0 0 0 0 1 0 0 0 0 0 0 0 0 0 0 0 0 0 0 0 0 0 0 0 0 0 0

GFSGBSN_con_mlcape_090.txt.gz
CAPE
8 12 27 21 31 39 26 39 37 30 29 23 17 7 10 10 1 9 1 0 0 4 7 11 4 11 0 0 0 0 0 0 6 0 0 0 6 14 3 10 8 10 8 7 0 0 3
24 19 26 17 36 24 19 24 33 25 22 30 23 11 6 8 3 17 0 0 0 10 5 11 8 9 0 0 0 0 0 0 0 0 0 0 0 17 19 6 5 5 10 1 2 0 2
19 20 33 22 32 38 37 30 15 18 24 23 24 19 3 7 3 14 11 0 3 1 0 5 3 10 7 0 0 0 0 0 0 8 10 1 0 30 13 3 1 6 7 8 11 0 2
10 9 20 15 28 28 30 26 21 9 28 24 35 14 18 1 0 1 6 2 1 0 0 4 14 13 1 0 0 0 0 0 19 37 17 13 16 22 29 4 0 8 14 6 0 0 0
10 1 11 30 36 39 36 58 45 29 27 30 12 6 6 8 0 32 2 1 3 1 7 11 12 1 0 0 0 0 0 4 17 4 2 5 32 21 14 0 2 0 2 1 0 0 6
26 29 23 17 20 45 38 57 44 49 32 27 2 8 8 9 1 26 3 0 0 8 32 27 9 0 0 0 0 0 0 0 8 12 3 11 28 6 1 0 3 6 0 0 0 48 69
30 37 37 43 44 41 35 34 34 51 35 43 0 8 3 7 7 6 0 0 0 2 17 0 0 0 0 0 0 0 0 0 0 2 2 17 6 0 8 3 5 0 0 2 44 55 65
29 34 23 37 49 30 53 58 52 40 41 43 16 0 1 5 5 1 0 0 0 0 0 0 0 0 0 0 0 0 0 4 17 13 4 3 0 9 0 1 2 0 10 31 40 53 36
21 35 31 31 49 46 47 41 41 34 34 23 26 0 2 0 4 7 1 0 0 0 0 0 0 0 0 0 0 1 0 2 2 2 7 0 2 4 3 0 7 11 11 44 25 18 22
25 19 38 22 26 26 27 25 34 38 47 23 7 6 8 5 0 4 1 0 0 0 0 0 0 0 0 0 0 0 0 4 1 8 4 2 7 0 12 2 3 7 17 14 1 9 17
4 12 21 13 32 30 36 17 34 38 47 32 11 8 25 16 11 10 0 0 0 0 0 0 0 0 0 0 0 0 0 2 4 7 1 0 4 2 4 4 0 27 3 3 1 0 0
10 15 24 23 39 32 35 33 35 48 73 95 30 12 30 0 9 1 0 0 1 0 0 0 0 0 1 0 0 1 2 1 0 3 2 3 10 7 2 0 0 23 29 9 1 0 0
6 22 21 24 29 33 27 30 46 107 136 104 71 37 24 30 4 26 0 4 0 0 0 0 0 0 0 0 0 0 3 3 0 0 1 0 1 2 3 6 8 26 12 0 0 0 0
26 26 25 30 24 23 19 37 80 129 110 97 85 25 1 6 5 14 11 0 0 0 0 0 0 0 0 0 0 0 0 0 0 0 0 0 0 0 0 1 1 2 0 1 0 2 0
18 22 38 27 25 28 20 42 103 96 70 48 44 9 8 5 9 27 1 0 1 0 0 0 0 0 0 0 0 0 0 0 0 1 0 1 0 0 1 0 1 0 0 0 0 0 0
11 18 42 24 22 27 26 65 79 67 60 55 18 4 3 0 7 3 0 1 0 0 0 0 0 0 0 0 0 0 0 0 0 0 0 0 0 0 1 0 0 0 0 0 0 0 0
5 18 26 16 33 29 45 60 61 45 44 53 1 1 6 51 20 1 0 0 0 0 0 0 0 0 0 0 0 0 0 0 0 0 0 0 0 0 0 0 0 0 0 0 0 0 0
11 36 5 20 28 47 76 78 43 38 37 15 3 0 0 3 0 0 4 1 0 0 0 0 0 0 0 0 0 0 0 0 0 0 0 0 0 0 0 0 0 0 0 0 0 0 0
14 5 5 18 29 50 65 54 18 34 24 0 1 0 6 0 0 0 2 0 0 0 1 1 8 0 0 0 0 0 0 0 0 0 0 0 0 0 0 0 0 0 0 0 0 0 0
11 3 7 17 24 58 46 38 11 34 12 0 1 0 1 0 1 0 0 0 0 0 3 6 8 0 0 0 0 0 0 0 0 0 0 0 0 0 0 0 0 0 0 0 0 0 0
1 2 10 17 22 30 25 11 17 20 14 0 1 1 1 0 0 0 0 0 0 0 8 6 26 1 0 0 0 0 0 0 0 0 0 0 0 0 0 0 0 0 0 0 0 0 0
1 4 15 20 17 19 24 18 20 10 1 1 0 2 1 1 3 0 0 0 0 0 5 10 27 0 0 0 0 0 0 0 0 0 0 0 0 0 0 0 0 0 0 0 0 0 0
2 5 10 22 9 18 25 14 24 21 7 0 2 1 2 0 0 0 0 0 0 1 4 0 11 3 0 0 0 0 0 0 0 0 0 0 0 0 0 0 0 0 0 0 0 0 0
3 10 22 7 7 15 22 20 14 26 19 6 1 2 2 1 2 1 0 0 0 11 2 0 1 18 0 0 0 0 0 0 0 0 0 0 0 0 0 0 0 0 0 0 0 0 0
4 10 19 9 10 19 22 16 10 23 31 6 0 0 3 0 1 0 0 0 0 5 0 0 0 0 0 0 0 1 0 0 0 0 0 0 0 0 0 0 0 0 0 0 0 0 0
4 11 12 13 1 12 8 3 10 10 5 0 0 0 0 0 0 0 0 0 2 0 2 0 0 0 0 0 0 0 0 0 0 0 0 0 0 0 0 0 0 0 0 0 0 0 0
1 12 13 6 7 4 2 2 10 1 0 0 0 0 0 0 0 0 2 0 0 0 0 0 0 0 0 0 0 0 0 0 0 0 1 2 0 0 0 0 0 0 0 0 0 0 0
0 8 8 2 12 1 0 0 0 0 0 0 0 0 0 0 0 0 0 0 0 0 0 0 4 0 0 2 0 0 0 0 0 0 0 0 0 0 0 0 0 0 0 0 0 0 0
0 7 2 3 0 0 0 0 0 0 0 0 0 0 0 0 0 0 0 0 0 0 0 0 1 0 0 0 0 0 0 0 0 0 0 0 0 0 0 0 0 0 0 0 0 0 0

GFSGBSN_con_mlcape_093.txt.gz
CAPE
17 22 23 22 28 30 22 32 19 10 8 26 19 31 9 5 6 7 0 23 3 3 1 0 1 12 3 1 0 0 0 0 1 1 0 4 2 5 4 0 4 7 2 8 6 13 24
17 15 23 24 26 26 20 23 26 21 17 33 21 29 13 14 8 5 0 14 6 8 0 0 4 14 11 0 0 0 0 0 0 0 2 8 4 1 2 1 13 14 21 13 14 6 21
21 19 10 16 11 21 33 32 31 25 10 24 19 11 14 9 18 8 1 3 0 6 2 0 9 12 8 0 0 0 0 0 0 0 11 3 5 5 5 17 10 14 7 4 9 10 6
16 22 15 13 12 19 25 22 27 26 18 16 21 2 7 11 7 12 0 12 4 1 0 9 5 13 11 0 0 0 0 0 5 2 16 21 10 8 18 11 4 10 6 1 0 10 12
8 11 23 19 24 27 28 20 24 12 30 18 17 4 3 7 9 0 15 31 4 4 0 8 3 19 4 0 0 0 0 2 2 10 21 15 17 5 35 5 3 3 0 5 8 0 0
18 22 23 21 24 18 23 22 19 20 25 15 15 1 0 10 5 20 14 3 4 8 11 21 13 8 0 0 0 0 0 0 5 1 0 8 18 9 4 0 0 2 0 3 3 8 8
5 22 21 29 17 24 20 28 34 16 30 30 18 0 0 9 19 38 7 2 0 3 17 0 0 1 0 0 0 0 0 0 3 3 1 6 5 0 6 4 5 5 9 2 0 6 18
4 19 25 26 27 19 29 27 22 24 35 45 47 18 0 0 17 9 13 0 1 0 0 0 2 6 0 0 0 0 0 13 2 2 9 15 2 3 7 0 0 5 4 1 4 25 17
6 15 19 30 32 25 36 24 25 28 48 54 55 49 2 0 0 9 21 5 1 1 0 0 0 3 1 0 0 1 0 1 4 1 3 9 8 8 0 3 1 2 0 1 20 20 37
17 22 23 24 28 23 21 29 33 46 60 96 150 115 10 1 0 0 13 15 1 9 2 2 0 0 0 0 3 5 1 4 5 1 3 13 1 3 3 2 4 5 2 5 28 4 18
27 29 29 29 20 27 25 21 35 50 77 132 169 149 78 17 5 6 11 1 11 1 0 0 2 0 2 6 2 0 0 9 1 3 13 4 10 4 12 10 6 5 9 5 1 10 0
65 47 31 10 37 25 24 35 46 61 113 131 144 108 61 1 11 1 16 0 0 0 0 1 2 3 4 9 2 3 3 0 3 1 1 2 1 1 2 0 0 0 6 1 6 0 0
42 56 7 18 27 17 34 48 39 99 119 102 79 67 7 1 6 30 10 2 0 0 0 1 1 7 9 7 9 3 1 1 1 0 0 1 0 5 5 2 1 15 16 0 0 1 1
17 4 4 6 12 25 33 21 72 87 93 70 68 58 29 9 19 7 22 0 0 0 3 3 5 5 4 4 1 6 2 0 1 0 0 0 0 1 0 2 13 2 0 0 10 1 0
4 17 0 19 40 47 20 28 51 73 61 59 46 10 8 4 13 13 1 0 0 3 0 5 7 8 3 1 1 1 0 1 3 0 0 2 0 0 2 1 0 0 4 0 0 0 0
3 2 12 18 32 29 32 40 55 53 61 37 12 4 2 5 6 20 0 1 6 10 2 1 2 4 0 0 0 0 2 0 5 0 0 1 1 0 0 1 1 0 0 0 0 0 0
11 17 3 11 22 22 31 41 21 49 46 31 9 4 12 2 16 7 1 0 7 9 7 1 0 0 1 0 1 1 1 0 0 0 0 0 8 0 0 0 0 1 0 0 0 0 0
13 0 1 13 10 9 24 26 6 34 15 1 3 0 12 20 4 2 10 3 3 2 3 0 0 0 1 0 0 4 4 2 0 0 0 0 0 0 0 0 0 0 0 0 0 0 0
3 0 5 8 11 21 28 19 4 14 23 8 0 0 10 0 8 0 6 1 1 1 3 8 9 0 0 0 0 2 0 0 0 0 0 0 0 0 0 0 0 0 0 0 0 0 0
0 0 6 6 17 23 23 8 10 4 5 1 1 0 0 1 2 2 0 0 0 1 1 0 4 0 0 0 0 0 0 0 0 0 0 0 0 0 0 0 0 0 0 0 0 0 0
0 0 4 8 8 13 18 12 11 1 0 2 1 0 2 1 0 2 0 0 0 0 10 5 11 0 0 0 0 0 0 0 0 0 0 0 0 0 0 0 0 0 0 0 0 0 0
0 0 4 15 4 10 11 9 5 0 0 1 1 1 1 0 2 1 0 0 0 2 17 12 13 0 1 0 0 0 0 0 0 0 0 0 0 0 0 0 0 0 0 0 0 0 0
0 0 4 7 3 5 8 13 0 1 0 3 0 1 2 2 1 0 1 1 0 1 0 0 3 15 1 0 0 0 0 0 0 0 0 0 0 0 0 0 0 0 0 0 0 0 0
0 0 4 0 3 5 13 15 11 13 0 3 2 1 2 0 0 1 0 0 1 8 13 1 1 15 0 0 0 0 0 0 0 0 0 0 0 0 0 0 0 0 0 0 0 0 0
0 1 6 3 6 5 9 5 7 9 16 2 0 2 1 0 2 1 1 0 0 8 3 1 0 0 0 0 4 0 0 0 0 0 0 0 0 0 0 0 0 0 0 0 0 0 0
0 1 4 5 3 2 1 4 7 3 3 12 1 0 0 3 0 0 3 3 0 4 15 0 0 0 0 1 0 0 0 0 0 0 0 0 0 0 0 0 0 0 0 0 0 0 0
0 0 6 6 2 2 1 3 4 0 0 2 0 0 0 4 0 0 0 3 0 0 0 1 0 1 2 7 1 0 0 0 0 0 0 0 0 0 0 0 0 0 0 0 0 0 0
0 0 0 5 0 0 7 0 0 0 0 0 0 0 0 0 0 0 0 0 0 0 6 0 4 3 7 4 3 0 0 0 0 0 0 0 0 0 0 0 0 0 0 0 0 0 0
0 1 0 0 0 1 7 0 0 0 0 0 0 0 0 0 0 0 0 0 0 0 0 0 1 5 10 9 0 0 0 0 0 0 0 0 0 0 0 0 0 0 0 0 0 0 0

GFSGBSN_con_mlcape_096.txt.gz
CAPE
24 21 17 19 31 16 26 29 27 19 18 15 20 19 20 16 15 14 8 4 2 50 3 2 0 1 0 1 0 0 0 0 9 0 0 0 0 3 1 0 0 0 0 0 0 0 0
23 36 32 33 25 20 16 23 23 13 13 13 19 14 20 13 10 10 5 15 5 8 9 1 3 7 0 0 0 0 0 0 0 0 0 0 3 5 0 0 0 0 0 0 0 1 1
19 25 28 29 27 35 29 26 25 16 21 18 12 5 11 13 16 12 7 0 0 18 11 5 5 0 11 0 0 0 0 0 0 0 2 6 0 5 1 0 0 0 0 0 0 0 0
27 32 34 34 32 16 30 19 19 21 17 17 12 9 10 5 6 2 0 10 1 43 3 8 10 0 1 0 0 0 0 0 0 0 2 1 6 11 2 0 0 0 0 0 0 0 0
22 34 23 13 26 17 15 26 27 21 20 15 1 0 13 11 3 1 0 11 45 3 10 10 2 1 1 0 0 0 0 3 3 1 4 5 9 11 2 0 1 1 0 0 0 0 0
19 15 16 12 16 23 24 19 20 23 22 6 8 0 3 18 6 0 0 11 14 1 4 2 1 3 0 0 0 0 0 0 1 2 8 9 4 2 1 3 0 0 0 0 0 0 0
26 22 21 23 25 23 27 9 39 28 19 29 14 15 27 8 15 0 5 0 1 1 15 0 0 0 0 0 0 0 0 0 3 2 0 2 1 0 0 0 0 0 1 2 0 0 4
49 29 27 29 37 39 27 21 30 28 38 42 43 42 77 82 7 0 33 0 12 10 2 0 7 2 2 0 0 3 0 0 4 1 0 8 1 0 0 7 3 4 5 0 0 0 3
24 33 90 88 44 11 20 28 31 54 79 66 83 128 155 79 0 16 1 12 11 5 0 1 1 1 2 0 0 0 0 4 6 1 2 3 0 3 3 1 1 5 3 0 0 6 8
24 31 73 7 1 3 22 28 52 68 63 83 95 185 142 59 0 0 4 6 21 14 0 0 6 1 2 0 1 4 0 10 3 0 0 0 0 0 3 0 1 2 12 1 0 9 0
55 8 7 11 0 7 17 49 68 65 90 99 101 122 105 46 11 11 0 0 24 7 0 0 3 1 1 0 0 0 5 4 2 2 6 0 6 3 6 10 17 0 3 0 0 0 0
5 3 0 0 3 1 38 55 57 66 76 59 72 72 40 0 9 7 22 5 0 0 0 1 2 4 2 5 20 1 5 0 0 1 0 0 9 0 1 0 0 0 1 0 0 0 0
0 0 0 0 1 25 20 21 42 39 38 41 37 47 53 10 0 14 0 2 0 0 0 1 5 8 1 1 6 2 0 0 2 0 0 0 0 0 1 1 0 0 5 0 0 0 0
5 5 1 22 23 19 20 30 37 31 26 24 13 14 12 8 10 9 0 0 0 0 1 1 0 0 0 5 9 2 9 0 0 0 2 0 0 1 2 16 4 0 0 0 0 0 0
24 13 3 10 18 25 25 25 34 49 21 31 21 8 4 12 9 6 0 0 0 1 3 3 1 2 1 6 1 1 0 0 2 0 0 0 0 0 0 1 0 1 0 0 0 0 0
14 1 2 12 16 14 11 19 40 36 44 25 3 0 3 8 7 0 0 0 1 7 7 1 2 0 0 1 0 0 0 2 1 0 0 2 0 0 0 1 5 1 0 0 0 0 0
7 0 3 7 2 2 8 18 27 25 4 4 3 9 5 10 2 1 0 0 0 0 0 0 0 0 2 0 1 5 2 0 0 0 0 0 0 0 4 2 0 0 0 0 0 0 0
0 0 2 2 5 7 4 10 11 18 0 0 0 0 1 10 0 0 3 0 3 0 0 0 0 0 0 0 0 2 0 0 0 0 0 0 3 5 0 0 0 0 0 0 0 0 0
0 0 3 4 0 0 7 7 4 5 9 0 0 1 1 0 1 0 7 1 1 0 0 0 3 0 0 0 0 1 0 0 0 0 0 0 0 0 0 0 0 0 0 0 0 0 0
0 0 2 7 1 0 3 1 1 0 0 0 0 0 0 0 2 9 1 0 0 0 0 2 0 0 0 0 0 0 0 0 0 0 0 0 0 0 0 0 0 0 0 0 0 0 0
0 0 1 3 2 10 2 3 0 0 0 0 0 1 0 0 0 1 0 0 0 0 2 0 0 0 0 0 0 0 0 0 0 0 0 0 0 0 0 0 0 0 0 0 0 0 0
0 0 3 0 0 5 4 10 0 0 0 0 1 1 0 1 0 1 0 0 1 0 1 7 0 0 0 0 0 0 0 0 0 0 0 0 0 0 0 0 0 0 0 0 0 0 0
0 0 4 3 0 0 1 9 7 2 0 0 4 2 0 0 0 0 1 0 0 0 0 0 0 0 0 0 0 0 0 0 0 0 0 0 0 0 0 0 0 0 0 0 0 0 0
0 0 2 4 0 0 0 2 17 7 2 0 0 0 1 0 0 0 0 0 1 0 1 0 0 0 0 0 0 0 0 0 0 0 0 0 0 0 0 0 0 0 0 0 0 0 0
0 0 0 6 4 0 0 0 11 8 1 1 0 1 1 0 0 1 0 0 0 0 0 0 0 0 0 0 0 0 0 0 0 0 0 0 0 0 0 0 0 0 0 0 0 0 0
0 0 0 5 3 1 0 4 13 4 0 1 1 0 0 0 0 0 1 2 0 1 0 0 0 0 0 0 0 0 0 0 0 0 0 0 0 0 0 0 0 0 0 0 0 0 0
0 0 0 2 2 0 0 0 0 0 0 1 0 0 0 0 0 0 0 0 0 0 0 0 0 0 0 0 0 0 0 0 0 0 0 0 0 0 0 0 0 0 0 0 0 0 0
0 0 0 1 0 4 0 0 0 0 0 0 0 0 0 0 0 0 0 0 0 0 0 0 0 0 0 0 0 0 0 0 0 0 0 0 0 0 0 0 0 0 0 0 0 0 0
0 0 0 0 0 4 0 0 0 0 0 0 0 0 0 0 0 0 0 0 0 0 0 0 0 0 0 0 0 0 0 0 0 0 0 0 0 0 0 0 0 0 0 0 0 0 0

GFSGBSN_con_mlcape_099.txt.gz
CAPE
41 36 32 34 34 29 29 30 16 19 24 24 22 20 22 25 26 18 6 1 2 3 1 12 2 1 0 0 0 0 0 12 4 1 3 1 0 0 0 0 0 0 0 0 0 0 0
29 25 28 20 27 37 15 30 32 30 24 30 33 33 19 26 26 17 3 3 11 8 0 27 3 17 0 0 0 0 0 0 0 0 0 0 0 1 2 0 0 0 0 0 0 0 0
20 10 9 10 10 13 25 9 19 26 21 21 28 34 17 22 32 10 5 0 0 10 0 53 3 11 0 0 0 0 0 0 0 0 0 3 3 1 0 0 0 0 0 0 0 0 0
42 35 24 14 15 13 17 34 25 26 19 28 17 7 13 20 35 3 0 0 0 24 27 14 30 16 0 0 0 0 0 0 0 0 0 0 4 4 3 0 0 0 0 0 0 0 0
79 106 107 62 19 27 23 30 30 23 22 28 22 2 9 37 18 2 0 0 26 129 32 3 0 5 0 0 0 0 0 0 0 1 2 9 14 5 3 2 1 2 0 0 0 0 0
42 56 55 46 36 73 64 41 39 32 17 25 28 18 29 43 12 0 0 0 47 64 12 29 8 4 0 0 0 0 0 0 0 7 7 18 9 3 1 1 0 0 0 0 0 0 0
46 101 100 34 44 2 0 10 27 27 31 45 45 29 34 53 23 0 0 0 0 4 6 0 0 0 0 0 0 0 0 0 0 3 1 1 0 0 0 0 0 0 0 0 0 0 0
5 0 7 6 6 8 1 22 12 19 36 60 80 64 102 94 50 42 16 4 5 4 1 0 3 3 0 0 0 0 0 0 0 1 0 0 0 0 0 0 0 3 4 0 0 0 5
8 33 24 14 0 0 21 23 53 54 77 104 118 111 89 94 31 0 0 6 6 15 1 3 8 3 2 0 0 0 0 4 5 1 1 0 0 1 0 0 5 0 1 0 0 0 0
3 25 17 9 9 6 22 69 60 64 58 81 133 129 100 8 0 0 3 2 8 25 0 8 5 4 0 0 1 1 0 13 7 1 0 1 0 0 0 0 0 0 0 13 7 0 0
9 5 4 20 27 36 37 29 42 47 42 47 53 92 62 1 0 0 5 0 0 0 3 0 8 2 0 1 0 4 0 15 3 1 11 0 0 2 4 8 9 3 13 1 5 0 0
20 14 14 13 15 16 43 54 63 37 36 39 71 75 13 0 0 4 0 1 0 0 0 1 0 4 0 0 8 5 10 1 0 0 0 0 1 2 0 0 0 0 0 0 3 1 0
11 6 8 14 9 24 45 55 45 39 32 18 15 0 0 1 0 0 0 0 0 0 1 0 2 0 0 0 6 1 0 2 0 1 1 0 1 0 0 0 0 0 0 0 0 0 0
9 1 7 14 30 26 30 47 38 55 28 1 0 1 0 0 0 0 0 0 0 4 0 4 0 0 1 0 4 1 4 1 0 1 1 0 0 1 0 2 0 1 0 0 0 0 0
5 0 9 15 18 27 15 24 36 30 8 0 0 0 0 0 0 0 0 0 0 0 5 0 0 1 0 4 3 4 0 0 2 1 0 0 0 1 0 0 0 2 0 1 0 0 0
4 0 8 11 15 19 16 12 12 12 32 1 0 0 1 0 0 0 0 0 1 5 1 0 0 0 0 1 0 0 0 2 1 0 0 1 0 0 0 0 0 4 2 0 0 0 0
1 0 6 10 4 1 20 19 11 0 0 4 0 0 0 0 0 0 1 0 0 0 0 0 0 0 0 0 1 7 2 0 0 0 0 1 0 0 0 0 0 0 0 0 0 0 0
0 0 1 4 1 0 0 15 3 6 0 0 0 0 0 0 0 0 0 1 1 0 0 0 0 0 0 0 1 0 0 0 0 0 0 0 0 0 0 0 0 0 0 0 0 0 0
0 0 0 3 1 0 0 0 4 1 6 1 0 0 0 0 0 0 2 0 0 0 0 0 0 0 0 0 0 0 0 0 0 0 0 0 0 0 0 0 0 0 0 0 0 0 0
0 0 1 4 2 0 0 0 0 0 0 0 0 0 0 0 0 1 0 0 0 0 0 0 0 0 0 0 0 0 0 0 0 0 0 0 0 0 0 0 0 0 0 0 0 0 0
0 0 2 4 6 1 0 0 2 0 0 0 0 0 0 1 0 0 0 0 0 0 0 0 0 0 0 0 0 0 0 0 0 0 0 0 0 0 0 0 0 0 0 0 0 0 0
0 0 0 4 4 5 0 0 0 0 0 0 0 0 1 0 0 0 0 0 0 0 0 0 0 0 0 0 0 0 0 0 0 0 0 0 0 0 0 0 0 0 0 0 0 0 0
0 0 0 1 5 3 2 0 0 0 0 0 2 0 0 0 0 0 0 0 0 2 0 0 0 0 0 0 0 0 0 0 0 0 0 0 0 0 0 0 0 0 0 0 0 0 0
0 0 0 0 3 1 1 2 2 0 0 0 0 0 0 0 0 0 0 0 0 0 0 0 0 0 0 0 0 0 0 0 0 0 0 0 0 0 0 0 0 0 0 0 0 0 0
0 0 0 1 0 2 6 5 4 2 0 0 0 0 0 0 0 0 0 0 0 0 0 0 0 0 0 0 0 0 0 0 0 0 0 0 0 0 0 0 0 0 0 0 0 0 0
0 0 0 0 0 0 1 0 1 0 0 0 0 0 0 0 0 0 0 0 0 0 0 0 0 0 0 0 0 0 0 0 0 0 0 0 0 0 0 0 0 0 0 0 0 0 0
0 0 0 0 0 2 0 0 0 0 0 0 0 0 0 0 0 0 0 0 0 0 0 0 0 0 0 0 0 0 0 0 0 0 0 0 0 0 0 0 0 0 0 0 0 0 0
0 0 0 0 1 3 0 0 0 0 0 0 0 0 0 0 0 0 0 0 0 0 0 0 0 0 0 0 0 0 0 0 0 0 0 0 0 0 0 0 0 0 0 0 0 0 0
0 0 0 0 0 5 0 0 0 0 0 0 0 0 0 0 0 0 0 0 0 0 0 0 0 0 0 0 0 0 0 0 0 0 0 0 0 0 0 0 0 0 0 0 0 0 0

GFSGBSN_con_mlcape_102.txt.gz
CAPE
49 47 41 24 14 13 9 13 15 18 25 17 21 23 37 18 24 28 13 6 7 11 13 2 72 15 7 0 0 0 2 4 0 0 0 0 0 0 0 0 0 0 0 0 0 0 0
58 57 72 108 132 36 30 12 29 25 27 38 18 5 21 13 22 20 10 1 3 6 7 0 6 0 0 0 0 0 0 6 0 0 0 0 0 0 0 0 0 0 0 0 0 0 0
34 51 69 125 146 146 92 81 54 33 34 25 29 6 10 19 18 5 5 1 1 0 2 0 25 0 0 0 1 6 0 0 0 0 0 0 0 0 0 0 0 0 0 0 0 0 0
49 93 1 0 14 15 31 211 77 34 39 40 42 27 16 31 12 3 3 0 0 0 50 95 14 0 0 0 5 0 0 0 0 0 0 0 0 0 2 0 0 0 0 0 0 0 0
0 23 40 31 14 12 8 27 12 17 28 28 30 43 36 30 24 3 2 0 0 32 219 181 0 0 0 12 0 0 0 0 0 0 0 0 5 0 1 0 1 0 0 0 0 0 0
7 12 8 26 24 15 29 25 19 15 21 22 42 57 46 34 29 3 0 0 0 167 53 1 5 0 1 0 1 0 0 0 1 2 1 5 5 0 0 1 0 0 0 0 0 0 0
4 1 6 11 6 28 43 53 39 33 57 78 61 56 55 67 42 17 0 0 0 0 19 0 0 0 0 0 0 0 0 0 0 1 0 1 1 0 0 0 0 0 0 0 0 0 1
0 2 14 13 13 19 11 33 57 58 50 45 75 91 74 28 19 32 0 0 1 0 0 25 4 3 0 0 4 2 0 0 0 0 0 1 0 0 0 0 0 0 0 0 0 0 0
3 14 17 7 11 26 26 35 20 8 24 61 83 68 46 31 5 0 0 2 1 3 1 5 7 3 0 2 0 0 0 0 0 0 0 0 0 0 0 0 0 0 0 0 0 0 0
5 7 9 7 14 25 44 63 61 51 63 71 51 41 10 0 0 0 1 9 2 10 0 0 2 7 1 1 0 0 0 5 7 2 7 3 0 0 0 0 0 1 0 1 9 1 0
8 5 8 4 12 18 20 42 63 57 9 16 11 0 0 0 0 0 0 5 4 1 0 2 1 0 1 0 0 0 0 16 5 0 4 0 0 3 0 0 0 0 2 4 0 1 0
2 4 9 10 14 8 29 29 33 27 25 5 0 0 0 0 0 0 0 6 0 0 0 0 0 3 0 3 3 18 9 8 6 2 0 0 0 1 0 0 0 0 0 0 0 1 0
2 6 4 13 11 5 23 43 32 1 1 0 1 4 0 0 0 0 0 0 0 0 0 0 6 0 0 0 1 2 0 0 0 0 0 1 2 0 0 1 0 0 1 0 0 0 0
1 8 9 12 10 14 14 21 28 5 4 1 1 0 0 0 0 0 0 0 0 2 2 1 0 0 0 0 3 1 1 0 2 2 0 0 0 0 0 0 0 3 0 0 0 0 0
2 3 11 9 8 7 8 7 22 7 5 2 0 0 0 0 0 0 0 0 1 1 8 0 0 2 0 2 1 4 3 0 2 0 0 0 0 0 0 1 1 4 0 0 0 0 0
2 3 4 7 7 4 7 1 0 2 0 0 0 0 0 0 0 0 0 0 4 0 1 0 0 0 0 1 0 0 0 0 1 0 0 1 0 0 0 0 0 0 3 0 0 0 0
1 2 4 4 6 5 2 5 0 0 0 0 0 0 0 0 0 0 1 1 0 0 0 0 0 0 0 0 1 2 0 0 0 0 0 0 0 0 1 0 0 0 0 0 0 0 0
0 0 3 3 6 5 4 1 0 0 0 0 0 0 0 0 0 0 0 0 0 0 0 0 0 0 0 0 0 0 0 0 0 0 0 0 0 0 0 0 0 0 0 0 0 0 0
0 0 4 3 0 5 5 2 0 0 0 0 0 0 0 0 0 0 0 0 0 0 0 0 0 0 0 0 0 0 0 0 0 0 0 0 0 0 0 0 0 0 0 0 0 0 0
0 0 4 3 2 2 5 7 0 0 0 0 0 0 0 0 0 0 0 0 0 0 0 0 0 0 0 0 0 0 0 0 0 0 0 0 0 0 0 0 0 0 0 0 0 0 0
0 0 1 4 2 2 0 0 3 0 0 0 0 0 0 0 0 0 0 0 0 0 0 0 0 0 0 0 0 0 0 0 0 0 0 0 0 0 0 0 0 0 0 0 0 0 0
0 0 0 2 2 2 3 1 0 0 0 0 0 0 0 0 0 0 0 0 0 0 0 0 0 0 0 0 0 0 0 0 0 0 0 0 0 0 0 0 0 0 0 0 0 0 0
0 0 0 1 1 2 1 2 3 0 0 0 0 0 0 0 0 0 0 0 0 0 0 0 0 0 0 0 0 0 0 0 0 0 0 0 0 0 0 0 0 0 0 0 0 0 0
0 0 0 1 2 3 5 5 8 0 0 0 0 0 0 0 0 0 0 0 0 0 0 0 0 0 0 0 0 0 0 0 0 0 0 0 0 0 0 0 0 0 0 0 0 0 0
0 0 0 1 2 3 0 0 1 0 0 0 0 0 0 0 0 0 0 0 0 0 0 0 0 0 0 0 0 0 0 0 0 0 0 0 0 0 0 0 0 0 0 0 0 0 0
0 0 0 0 0 4 0 0 0 0 0 0 0 0 0 0 0 0 0 0 0 0 0 0 0 0 0 0 0 0 0 0 0 0 0 0 0 0 0 0 0 0 0 0 0 0 0
0 0 0 0 1 1 0 0 0 0 0 0 0 0 0 0 0 0 0 0 0 0 0 0 0 0 0 0 0 0 0 0 0 0 0 0 0 0 0 0 0 0 0 0 0 0 0
0 0 0 0 1 0 0 0 0 0 0 0 0 0 0 0 0 0 0 0 0 0 0 0 0 0 0 0 0 0 0 0 0 0 0 0 0 0 0 0 0 0 0 0 0 0 0
0 0 0 0 0 1 0 0 0 0 0 0 0 0 0 0 0 0 0 0 0 0 0 0 0 0 0 0 0 0 0 0 0 0 0 0 0 0 0 0 0 0 0 0 0 0 0

GFSGBSN_con_mlcape_105.txt.gz
CAPE
68 46 8 1 4 6 16 35 13 53 35 25 23 26 10 5 7 5 22 11 4 7 8 0 0 50 0 0 0 0 0 20 1 0 0 0 0 0 0 0 0 0 0 0 0 0 0
15 8 0 15 3 15 12 13 7 165 165 52 49 28 10 0 1 4 8 10 3 2 5 0 27 0 0 0 0 0 23 0 0 0 0 0 0 0 0 0 0 0 0 0 0 0 0
11 19 11 17 14 17 10 24 1 26 19 24 40 25 17 6 0 8 1 5 0 1 0 1 8 0 0 0 0 32 37 4 0 0 0 0 0 0 0 0 0 0 0 0 0 0 0
18 6 6 11 9 27 23 29 34 25 32 34 41 22 23 6 0 0 0 0 0 0 2 10 2 0 0 0 1 11 8 0 0 0 0 0 0 0 0 0 0 0 0 0 0 0 0
2 9 13 18 10 16 25 22 14 34 25 21 12 14 12 0 0 0 0 0 0 45 155 146 0 0 3 2 0 1 0 0 0 0 0 0 0 0 0 0 0 0 0 0 0 0 0
9 11 13 6 8 27 17 22 19 10 4 4 22 31 27 35 6 0 0 0 0 15 16 1 0 0 1 0 0 0 0 0 0 2 0 0 0 0 0 0 0 0 0 0 0 0 0
4 11 9 8 24 23 18 25 40 32 32 32 12 12 15 19 9 1 0 0 0 0 0 0 0 1 0 0 0 0 0 3 0 0 0 0 0 0 0 0 0 0 0 0 0 0 0
4 12 6 7 20 15 16 14 9 49 38 48 35 30 39 46 4 0 0 0 0 0 4 1 2 0 0 0 1 0 0 0 0 0 0 0 0 0 0 0 0 0 0 0 0 0 0
6 12 6 13 9 13 40 41 37 52 42 16 5 0 1 1 4 0 0 0 0 0 1 1 6 1 1 0 0 1 5 0 0 0 0 0 0 0 0 0 0 0 1 0 0 0 0
4 11 10 10 7 11 22 33 17 21 9 9 19 16 6 0 0 0 0 8 0 2 0 0 3 5 9 12 0 0 1 2 3 0 0 0 0 0 0 0 0 0 0 0 0 0 1
2 10 13 8 13 7 8 7 7 5 3 21 8 23 2 0 0 0 5 3 3 0 0 0 0 3 2 2 0 0 2 17 6 0 0 0 0 0 1 2 0 0 0 3 2 2 0
1 7 6 4 8 9 6 3 0 7 4 5 0 0 0 0 0 0 1 11 1 0 0 0 1 4 3 11 22 6 3 6 5 1 1 0 0 0 0 0 0 0 0 0 0 0 0
0 9 8 3 9 4 7 0 0 0 0 1 5 0 0 0 0 0 0 0 0 0 0 0 2 1 1 4 1 7 0 0 0 0 0 0 0 0 1 1 0 0 0 0 0 0 0
0 5 3 8 12 5 9 2 0 0 0 0 0 0 0 0 0 0 0 0 0 1 2 0 0 0 0 1 0 0 0 0 1 1 0 0 0 0 0 0 1 2 0 0 0 0 0
0 2 6 7 7 4 5 6 0 0 0 0 0 0 0 0 0 0 0 0 1 5 1 0 0 2 0 1 2 3 0 0 1 0 0 0 0 0 0 0 1 4 0 4 0 0 0
0 0 6 5 7 8 1 9 3 0 0 0 0 0 0 0 0 0 0 0 0 0 0 0 0 0 0 1 1 0 0 0 1 0 0 1 0 0 0 0 0 3 5 0 0 0 0
1 0 3 3 5 6 3 5 4 1 0 0 0 0 0 0 0 0 0 0 0 0 0 0 0 0 0 0 0 1 0 0 0 0 0 0 0 0 0 0 0 0 0 0 0 0 0
0 0 0 3 5 4 3 3 4 2 0 0 0 0 0 0 0 0 0 0 0 0 0 0 0 0 0 0 0 0 0 0 0 0 0 0 0 0 0 0 0 0 0 0 0 0 0
1 0 0 1 2 7 6 4 1 1 0 0 0 0 0 0 0 0 0 0 0 0 0 0 0 0 0 0 0 0 0 0 0 0 0 0 0 0 0 0 0 0 0 0 0 0 0
1 0 0 0 1 3 3 3 2 1 0 0 0 0 0 0 0 0 0 0 0 0 0 0 0 0 0 0 0 0 0 0 0 0 0 0 0 0 0 0 0 0 0 0 0 0 0
0 0 0 0 1 1 2 2 0 0 0 0 0 0 0 0 0 0 0 0 0 0 0 0 0 0 0 0 0 0 0 0 0 0 0 0 0 0 0 0 0 0 0 0 0 0 0
0 0 0 0 1 0 3 2 3 0 0 0 0 0 0 0 0 0 0 0 0 0 0 0 0 0 0 0 0 0 0 0 0 0 0 0 0 0 0 0 0 0 0 0 0 0 0
0 0 0 0 0 1 4 3 2 0 0 0 0 0 0 0 0 0 0 0 0 0 0 0 0 0 0 0 0 0 0 0 0 0 0 0 0 0 0 0 0 0 0 0 0 0 0
0 0 0 0 0 3 3 0 0 0 0 0 0 0 0 0 0 0 0 0 0 0 0 0 0 0 0 0 0 0 0 0 0 0 0 0 0 0 0 0 0 0 0 0 0 0 0
0 0 0 0 0 2 0 0 0 0 0 0 0 0 0 0 0 0 0 0 0 0 0 0 0 0 0 0 0 0 0 0 0 0 0 0 0 0 0 0 0 0 0 0 0 0 0
0 0 0 0 0 0 0 0 0 0 0 0 0 0 0 0 0 0 0 0 0 0 0 0 0 0 0 0 0 0 0 0 0 0 0 0 0 0 0 0 0 0 0 0 0 0 0
3 0 0 0 0 0 0 1 0 0 0 0 0 0 0 0 0 0 0 0 0 0 0 0 0 0 0 0 0 0 0 0 0 0 0 0 0 0 0 0 0 0 0 0 0 0 0
8 0 0 0 0 0 0 0 0 0 0 0 0 0 0 0 0 0 0 0 0 0 0 0 0 0 0 0 0 0 0 0 0 0 0 0 0 0 0 0 0 0 0 0 0 0 0
12 0 0 0 0 0 0 0 0 0 0 0 0 0 0 0 0 0 0 0 0 0 0 0 0 0 0 0 0 0 0 0 0 0 0 0 0 0 0 0 0 0 0 0 0 0 0

GFSGBSN_con_mlcape_108.txt.gz
CAPE
5 3 8 16 22 9 7 14 79 60 13 187 60 58 40 17 10 27 21 1 2 4 0 0 0 8 0 0 2 0 17 39 0 0 0 0 0 0 0 0 0 0 0 0 0 0 0
4 8 19 26 14 4 15 24 22 85 24 54 36 44 28 14 15 30 5 0 4 2 0 6 0 49 0 19 0 27 5 0 0 0 0 0 0 0 0 0 0 0 0 0 0 0 0
6 16 17 35 18 21 13 20 22 31 59 6 14 23 39 10 0 2 4 0 0 2 0 0 10 4 3 0 0 15 3 3 0 0 0 0 0 0 0 0 0 0 0 0 0 0 0
10 20 21 31 8 17 13 27 19 15 22 28 17 6 2 0 0 2 2 0 0 3 0 0 21 0 1 5 14 17 9 5 0 0 0 0 0 0 0 0 0 0 0 0 0 0 0
7 13 14 17 18 12 5 5 24 19 5 13 20 6 12 8 3 1 0 0 6 82 23 63 0 0 3 6 11 1 0 0 0 0 0 0 0 0 0 0 0 0 0 0 0 0 0
6 25 4 23 24 7 8 1 24 20 14 5 16 9 1 3 0 0 0 0 0 1 12 0 0 0 0 0 0 0 0 0 0 0 0 0 0 0 0 0 0 0 0 0 0 0 0
5 17 20 16 26 24 16 2 5 11 3 0 0 23 19 0 0 0 0 0 0 16 2 4 0 1 1 0 0 0 0 0 0 0 0 1 0 0 0 0 0 0 0 0 0 0 0
4 12 21 14 36 49 19 12 0 0 9 2 0 2 26 0 0 0 0 0 0 0 1 5 2 1 0 0 0 0 0 0 0 0 0 0 0 0 0 0 0 0 0 0 0 0 0
2 9 20 23 45 39 7 7 3 0 0 0 0 0 1 3 1 0 0 0 0 0 3 1 2 7 2 1 3 0 3 0 0 0 0 0 0 0 0 0 0 0 0 0 0 0 0
0 5 11 22 43 37 10 5 1 0 0 0 0 0 0 0 0 0 0 0 0 0 0 0 0 0 5 6 0 0 3 0 0 0 0 0 0 0 0 0 0 0 0 0 0 0 0
0 2 7 16 35 46 17 2 0 1 0 0 0 0 0 0 0 0 0 0 0 0 0 0 2 0 0 1 0 0 0 5 3 3 0 0 0 0 0 0 0 0 0 0 1 3 2
0 1 4 12 20 28 29 17 5 0 0 0 0 0 0 0 0 0 0 0 0 0 0 1 2 2 1 1 3 0 0 1 0 0 0 0 0 0 0 0 0 0 0 0 0 1 0
2 2 3 7 8 14 25 16 18 5 0 0 0 0 0 0 0 0 0 0 0 0 0 1 0 1 1 4 0 3 1 0 0 0 0 0 0 0 0 0 0 0 2 0 0 0 0
2 0 3 3 8 7 13 15 10 11 5 0 0 0 0 0 0 0 0 0 0 3 2 0 0 0 0 0 0 0 0 0 0 1 0 0 0 0 0 0 0 0 1 0 0 0 0
3 0 1 4 5 1 9 7 2 2 7 0 0 0 0 0 0 0 0 0 2 0 0 0 0 0 0 1 1 1 2 0 1 0 0 0 0 0 0 0 0 1 1 2 0 0 0
2 0 0 0 4 2 5 6 2 4 10 0 0 0 0 0 0 0 0 1 0 0 0 0 0 0 0 0 0 1 0 0 2 0 1 2 0 0 0 0 0 2 1 0 0 0 0
0 1 0 1 1 2 1 6 6 4 2 0 0 0 0 0 0 0 0 0 0 0 0 0 0 0 0 0 0 0 0 0 0 0 0 1 1 0 0 0 0 0 0 0 0 0 0
2 1 0 0 1 1 2 0 5 6 0 0 0 0 0 0 0 0 0 0 0 0 0 0 0 0 0 0 0 0 0 0 0 0 0 0 0 0 0 0 0 0 0 0 0 0 0
3 0 0 0 1 2 3 3 3 8 1 0 0 0 0 0 0 0 0 0 0 0 0 0 0 0 0 0 0 0 0 0 0 0 0 0 0 0 0 0 0 0 0 0 0 0 0
1 1 0 0 0 1 5 4 4 8 0 0 0 0 0 0 0 0 0 0 0 0 0 0 0 0 0 0 0 0 0 0 0 0 0 0 0 0 0 0 0 0 0 0 0 0 0
2 0 0 0 0 1 5 3 7 2 0 0 0 0 0 0 0 0 0 0 0 0 0 0 0 0 0 0 0 0 0 0 0 0 0 0 0 0 0 0 0 0 0 0 0 0 0
7 0 0 0 0 1 1 3 0 0 0 0 0 0 0 0 0 0 0 0 0 0 0 0 0 0 0 0 0 0 0 0 0 0 0 0 0 0 0 0 0 0 0 0 0 0 0
13 0 0 0 0 2 0 0 0 0 0 0 0 0 0 0 0 0 0 0 0 0 0 0 0 0 0 0 0 0 0 0 0 0 0 0 0 0 0 0 0 0 0 0 0 0 0
7 0 0 0 0 2 0 0 0 0 0 0 0 0 0 0 0 0 0 0 0 0 0 0 0 0 0 0 0 0 0 0 0 0 0 0 0 0 0 0 0 0 0 0 0 0 0
5 1 0 0 0 0 0 0 0 0 0 0 0 0 0 0 0 0 0 0 0 0 0 0 0 0 0 0 0 0 0 0 0 0 0 0 0 0 0 0 0 0 0 0 0 0 0
4 2 0 0 0 0 0 0 0 0 0 0 0 0 0 0 0 0 0 0 0 0 0 0 0 0 0 0 0 0 0 0 0 0 0 0 0 0 0 0 0 0 0 0 0 0 0
2 2 0 0 0 0 0 0 0 0 0 0 0 0 0 0 0 0 0 0 0 0 0 0 0 0 0 0 0 0 0 0 0 0 0 0 0 0 0 0 0 0 0 0 0 0 0
0 3 0 0 0 0 0 0 0 0 0 0 0 0 0 0 0 0 0 0 0 0 0 0 0 0 0 0 0 0 0 0 0 0 0 0 0 0 0 0 0 0 0 0 0 0 0
0 4 0 0 0 0 0 0 0 0 0 0 0 0 0 0 0 0 0 0 0 0 0 0 0 0 0 0 0 0 0 0 0 0 0 0 0 0 0 0 0 0 0 0 0 0 0

GFSGBSN_con_mlcape_111.txt.gz
CAPE
4 25 34 37 50 35 19 9 5 22 34 4 3 40 38 23 21 1 3 0 0 0 1 0 1 26 16 3 5 1 32 27 0 0 0 0 0 0 0 0 0 0 0 0 0 0 0
24 21 32 34 42 39 20 18 9 8 37 23 38 0 12 37 25 3 1 0 5 0 0 5 13 7 10 3 1 1 1 0 0 0 0 0 0 0 0 0 0 0 0 0 0 0 0
8 33 28 38 44 45 38 26 18 13 3 18 7 27 12 15 12 2 1 0 0 0 0 0 56 42 35 0 5 0 0 0 0 0 0 0 0 0 0 0 0 0 0 0 0 0 0
7 32 41 41 39 44 39 30 24 5 6 0 6 10 10 12 8 0 0 0 13 51 7 0 16 6 5 12 35 16 0 0 0 0 0 0 0 0 0 0 0 0 0 0 0 0 0
8 18 33 37 34 39 46 32 17 17 2 0 0 1 2 0 0 0 0 0 205 32 47 33 0 0 1 30 11 1 0 0 0 0 0 0 0 0 0 0 0 0 0 0 0 0 0
8 14 22 40 39 43 49 27 14 15 2 0 0 0 0 0 0 0 0 0 3 15 5 0 0 0 3 3 0 0 0 0 0 0 0 0 0 0 0 0 0 0 0 0 0 0 0
6 9 18 28 33 37 15 6 5 18 1 0 0 0 0 0 0 0 0 0 0 6 3 0 1 3 1 0 0 0 0 0 0 0 0 0 0 0 0 0 0 0 0 0 0 0 0
7 4 10 25 47 36 8 5 6 10 8 0 0 0 0 0 0 0 0 0 1 0 1 1 1 0 0 0 1 2 0 0 0 0 0 0 0 0 0 0 0 0 0 0 0 0 0
5 8 5 9 26 42 20 9 2 7 8 0 0 0 0 0 0 0 0 2 0 0 3 0 1 3 3 2 2 0 0 0 0 0 0 0 0 0 0 0 0 0 0 0 0 0 0
1 5 4 3 10 24 33 21 3 5 8 0 0 0 0 0 0 0 0 0 0 0 0 0 0 0 2 6 1 0 1 0 0 0 0 0 0 0 0 0 0 0 0 0 0 0 1
1 6 3 5 3 11 22 23 21 0 1 0 0 0 0 0 0 0 0 0 0 0 0 0 1 0 0 3 0 0 1 1 0 1 0 0 0 0 0 0 0 0 0 0 0 0 0
4 0 4 1 3 8 10 22 22 23 0 0 0 0 0 0 0 0 0 0 0 0 0 1 2 0 1 0 1 0 0 0 0 0 0 0 0 0 0 0 0 0 0 0 0 1 0
3 0 3 1 1 3 5 13 14 13 11 0 0 0 0 0 0 0 0 0 0 0 0 1 1 1 2 0 0 0 0 0 0 0 0 0 0 0 0 0 0 0 1 0 0 0 0
1 4 0 5 0 1 1 1 3 10 6 0 0 0 0 0 0 0 0 0 0 2 2 0 0 0 0 0 0 0 0 0 0 0 0 0 0 0 0 0 0 0 0 1 0 0 0
0 2 0 1 5 4 0 2 5 3 1 1 0 0 0 0 0 0 0 0 0 0 0 0 0 0 0 0 3 1 0 0 1 0 0 0 0 0 0 0 0 3 1 1 0 0 0
1 1 3 0 1 3 1 0 2 4 0 0 0 0 0 0 0 0 0 1 0 0 0 0 0 0 0 0 0 0 1 0 1 0 1 1 0 0 0 0 0 2 3 0 0 0 0
4 3 3 0 0 2 0 0 0 1 0 0 0 0 0 0 0 0 0 0 0 0 0 0 0 0 0 0 0 0 0 0 0 0 0 1 2 0 0 0 0 0 1 0 0 0 0
9 2 2 0 0 1 0 1 0 7 0 0 0 0 0 0 0 0 0 0 0 0 0 0 0 0 0 0 0 0 0 0 0 0 0 0 0 0 0 0 0 0 0 1 0 0 0
14 5 0 0 0 2 3 7 8 5 0 0 0 0 0 0 0 0 0 0 0 0 0 0 0 0 0 0 0 0 0 0 0 0 0 0 0 0 0 0 0 0 0 0 0 0 0
8 6 1 0 0 2 4 7 7 0 0 0 0 0 0 0 0 0 0 0 0 0 0 0 0 0 0 0 0 0 0 0 0 0 0 0 0 0 0 0 0 0 0 0 0 0 0
3 11 0 0 0 2 3 6 0 0 0 0 0 0 0 0 0 0 0 0 0 0 0 0 0 0 0 0 0 0 0 0 0 0 0 0 0 0 0 0 0 0 0 0 0 0 0
2 6 0 0 0 3 0 0 0 0 0 0 0 0 0 0 0 0 0 0 0 0 0 0 0 0 0 0 0 0 0 0 0 0 0 0 0 0 0 0 0 0 0 0 0 0 0
3 6 0 0 0 1 1 0 0 0 0 0 0 0 0 0 0 0 0 0 0 0 0 0 0 0 0 0 0 0 0 0 0 0 0 0 0 0 0 0 0 0 0 0 0 0 0
4 4 0 0 0 0 0 0 0 0 0 0 0 0 0 0 0 0 0 0 0 0 0 0 0 0 0 0 0 0 0 0 0 0 0 0 0 0 0 0 0 0 0 0 0 0 0
0 3 3 0 0 0 0 0 0 0 0 0 0 0 0 0 0 0 0 0 0 0 0 0 0 0 0 0 0 0 0 0 0 0 0 0 0 0 0 0 0 0 0 0 0 0 0
0 0 2 0 0 0 0 0 0 0 0 0 0 0 0 0 0 0 0 0 0 0 0 0 0 0 0 0 0 0 0 0 0 0 0 0 0 0 0 0 0 0 0 0 0 0 0
0 0 1 0 0 0 0 0 0 0 0 0 0 0 0 0 0 0 0 0 0 0 0 0 0 0 0 0 0 0 0 0 0 0 0 0 0 0 0 0 0 0 0 0 0 0 0
1 0 0 0 0 0 0 0 0 0 0 0 0 0 0 0 0 0 0 0 0 0 0 0 0 0 0 0 0 0 0 0 0 0 0 0 0 0 0 0 0 0 0 0 0 0 0
1 0 0 0 0 0 0 0 0 0 0 0 0 0 0 0 0 0 0 0 0 0 0 0 0 0 0 0 0 0 0 0 0 0 0 0 0 0 0 0 0 0 0 0 0 0 0

GFSGBSN_con_mlcape_114.txt.gz
CAPE
14 27 28 31 41 28 29 40 28 24 21 30 0 20 10 17 9 5 4 0 0 0 0 0 2 128 35 14 6 2 18 54 0 0 0 0 0 0 0 0 0 0 0 0 0 0 0
10 19 22 26 26 29 33 38 35 27 23 17 11 1 21 60 22 5 1 0 0 0 0 0 10 50 6 4 9 0 0 0 0 0 0 0 0 0 0 0 0 0 0 0 0 0 0
12 16 11 30 36 31 33 44 43 29 39 17 7 2 0 2 0 0 0 0 0 0 0 1 19 80 47 19 1 0 0 0 0 0 0 0 0 0 0 0 0 0 0 0 0 0 0
6 19 11 23 37 11 15 17 33 32 35 38 31 9 0 3 0 0 0 4 24 14 3 48 62 19 32 24 0 0 0 0 0 0 0 0 0 0 0 0 0 0 0 0 0 0 0
4 6 13 19 27 14 6 21 18 33 50 60 88 81 15 4 0 0 0 118 98 62 45 23 1 6 17 40 12 0 0 0 0 0 0 0 0 0 0 0 0 0 0 0 0 0 0
7 7 15 16 26 14 3 12 22 27 53 48 125 89 16 6 0 0 0 57 29 6 22 13 7 0 0 2 4 0 0 0 0 0 0 0 0 0 0 0 0 0 0 0 0 0 0
4 11 4 11 20 18 5 4 26 19 17 19 20 0 0 0 0 0 0 0 0 0 3 3 10 4 8 0 0 0 0 0 0 0 0 0 0 0 0 0 0 0 0 0 0 0 0
5 5 15 4 16 16 10 13 8 10 10 24 0 0 0 0 0 0 0 0 0 0 1 1 5 4 1 0 3 0 0 0 0 0 0 0 0 0 0 0 0 0 0 0 0 0 0
1 5 5 11 7 16 11 14 15 1 1 6 1 0 0 0 0 0 1 3 3 0 0 0 0 1 1 9 0 1 0 0 0 0 0 0 0 0 0 0 0 0 0 0 0 0 0
4 3 3 12 15 11 11 6 8 6 0 0 0 0 0 0 0 0 0 0 1 0 0 0 0 3 2 0 0 0 1 0 0 0 0 0 0 0 0 0 0 0 0 0 0 0 0
3 0 4 13 17 14 12 8 0 0 0 0 0 0 0 0 0 0 0 0 0 0 0 0 3 0 4 5 0 0 1 0 2 2 0 0 0 0 0 0 0 0 0 1 3 3 1
5 5 1 6 14 16 16 11 5 0 0 0 0 0 0 0 0 0 0 0 0 0 0 1 1 0 0 0 0 0 0 0 0 0 0 0 0 0 0 0 0 0 0 2 3 2 0
4 3 3 1 7 9 11 16 11 4 0 0 0 0 0 0 0 0 0 0 0 0 0 0 0 1 3 1 0 2 0 0 1 0 0 0 0 0 0 0 0 1 2 1 2 2 0
5 3 4 0 1 9 8 14 10 5 1 1 0 0 0 0 0 0 0 0 0 1 2 0 0 0 0 2 0 1 0 0 0 0 1 0 0 0 0 0 3 1 1 1 0 1 3
4 4 2 3 0 3 3 10 8 2 0 0 0 0 0 0 0 0 0 0 0 0 0 0 0 1 0 0 1 0 0 0 0 0 1 0 0 0 0 0 0 3 0 4 0 0 0
8 1 3 3 0 2 3 6 8 2 0 0 0 0 0 0 0 0 0 0 0 0 0 0 1 0 0 0 1 1 1 0 0 0 0 2 0 0 0 0 0 1 2 1 0 0 0
8 4 3 2 0 2 2 7 10 13 0 0 0 0 0 0 0 0 0 0 0 0 0 0 0 0 0 0 1 2 0 0 1 2 0 1 1 0 0 0 0 3 0 0 0 0 2
3 11 0 3 0 2 5 7 5 3 0 0 0 0 0 0 0 0 0 0 0 0 0 0 0 0 0 0 0 0 0 0 0 0 0 0 4 0 0 0 0 0 1 0 2 1 1
0 9 1 0 0 0 0 4 0 1 0 0 0 0 0 0 0 0 0 0 0 0 0 0 0 0 0 0 0 0 0 0 0 0 0 0 0 0 0 0 0 0 1 1 3 2 1
0 4 2 0 0 1 0 0 0 0 0 0 0 0 0 0 0 0 0 0 0 0 0 0 0 0 0 0 0 0 0 0 0 0 0 0 0 0 0 0 0 0 0 1 2 2 0
0 0 0 0 0 0 0 0 0 0 0 0 0 0 0 0 0 0 0 0 0 0 0 0 0 0 0 0 0 0 0 0 0 0 0 0 0 0 0 0 0 0 0 0 0 0 0
0 0 0 0 0 0 0 0 0 0 0 0 0 0 0 0 0 0 0 0 0 0 0 0 0 0 0 0 0 0 0 0 0 0 0 0 0 0 0 0 0 0 0 0 0 0 0
0 0 0 0 0 0 0 0 0 0 0 0 0 0 0 0 0 0 0 0 0 0 0 0 0 0 0 0 0 0 0 0 0 0 0 0 0 0 0 0 0 0 0 0 0 0 0
0 0 0 0 0 0 0 0 0 0 0 0 0 0 0 0 0 0 0 0 0 0 0 0 0 0 0 0 0 0 0 0 0 0 0 0 0 0 0 0 0 0 0 0 0 0 0
0 0 0 0 0 0 0 0 0 0 0 0 0 0 0 0 0 0 0 0 0 0 0 0 0 0 0 0 0 0 0 0 0 0 0 0 0 0 0 0 0 0 0 0 0 0 0
0 0 0 0 0 0 0 0 0 0 0 0 0 0 0 0 0 0 0 0 0 0 0 0 0 0 0 0 0 0 0 0 0 0 0 0 0 0 0 0 0 0 0 0 0 0 0
1 0 0 0 0 0 0 0 0 0 0 0 0 0 0 0 0 0 0 0 0 0 0 0 0 0 0 0 0 0 0 0 0 0 0 0 0 0 0 0 0 0 0 0 0 0 0
2 1 0 0 0 0 0 0 0 0 0 0 0 0 0 0 0 0 0 0 0 0 0 0 0 0 0 0 0 0 0 0 0 0 0 0 0 0 0 0 0 0 0 0 0 0 0
2 1 1 0 0 0 0 0 0 0 0 0 0 0 0 0 0 0 0 0 0 0 0 0 0 0 0 0 0 0 0 0 0 0 0 0 0 0 0 0 0 0 0 0 0 0 0

GFSGBSN_con_mlcape_117.txt.gz
CAPE
15 23 28 35 39 18 17 29 31 5 17 28 38 24 19 20 1 1 10 1 1 0 0 6 0 53 19 0 1 1 0 59 0 0 0 0 0 0 0 0 0 0 0 0 0 0 0
19 20 33 44 12 15 18 9 40 36 60 73 58 33 23 12 0 0 0 0 1 0 0 0 51 49 3 1 4 1 1 0 0 0 0 0 0 0 0 0 0 0 0 0 0 0 0
20 22 26 43 15 18 16 10 35 71 146 170 111 49 2 7 0 0 0 0 0 0 0 0 38 43 1 0 2 0 0 0 0 0 0 0 0 0 0 0 0 0 0 0 0 0 0
16 19 24 35 30 20 12 21 24 39 83 160 76 20 12 2 0 14 32 40 3 0 9 9 42 19 10 5 2 0 0 0 0 0 0 0 0 0 0 0 0 0 0 0 0 0 0
13 14 17 24 34 26 13 28 17 7 2 2 0 2 0 4 1 77 42 49 56 49 50 1 18 7 3 26 2 0 0 0 0 0 0 0 0 0 0 0 0 0 0 0 0 0 0
3 13 18 15 22 15 25 4 13 8 5 2 0 0 0 0 0 11 66 23 16 10 0 4 2 0 0 5 3 0 0 0 0 0 0 0 0 0 0 0 0 0 0 0 0 0 0
5 8 14 12 10 15 13 30 8 8 0 1 0 0 0 0 0 0 0 0 3 2 5 5 3 4 5 5 2 9 0 0 0 0 0 0 0 0 0 0 0 0 0 0 0 0 0
1 8 11 15 7 9 6 18 22 4 0 0 0 0 0 0 0 0 0 0 2 0 1 3 10 2 2 0 1 4 3 0 0 0 0 0 0 0 0 0 0 0 0 0 0 0 0
9 3 4 6 12 10 8 4 4 13 4 0 0 0 0 0 0 0 0 0 2 0 0 1 2 5 8 14 7 4 3 0 0 0 0 0 0 0 0 0 0 0 0 0 0 0 0
9 3 4 1 7 9 10 10 4 5 6 0 0 0 0 0 0 0 0 0 0 0 0 1 4 2 11 11 0 0 0 4 0 0 0 0 0 0 0 0 0 0 0 0 0 0 0
11 11 0 2 1 3 5 6 13 3 4 3 0 0 0 0 0 0 0 0 0 0 0 0 2 0 12 4 0 0 0 4 0 2 0 0 0 0 0 0 0 0 0 0 2 1 1
11 10 8 0 1 2 4 2 4 6 5 6 0 0 0 0 0 0 0 0 0 0 0 1 0 1 2 3 0 0 0 0 0 2 0 0 0 0 0 0 0 0 0 0 0 0 0
12 10 9 3 0 1 5 4 1 4 2 2 0 0 0 0 0 0 0 0 0 0 0 0 3 2 2 1 3 4 1 0 0 1 0 1 0 0 0 0 0 0 0 0 0 0 2
7 8 8 6 0 2 6 7 2 0 0 0 0 0 0 0 0 0 0 0 0 1 1 0 2 5 4 3 0 2 2 1 0 2 0 0 0 0 0 0 11 0 2 0 0 4 2
6 3 11 4 0 3 6 9 5 0 0 0 0 0 0 0 0 0 0 0 0 2 1 4 0 6 4 4 3 6 0 0 0 0 0 1 1 0 0 0 0 2 0 3 0 0 0
4 3 8 3 1 3 4 10 4 0 0 0 0 0 0 0 0 0 0 0 0 0 0 0 5 1 0 1 0 1 2 0 1 0 0 0 0 0 0 0 0 1 0 0 0 0 0
2 5 0 5 0 4 4 6 4 0 0 0 0 0 0 0 0 0 0 0 0 0 0 0 1 2 3 2 1 0 2 1 2 2 3 1 1 0 0 0 9 2 2 1 0 0 1
0 6 0 2 0 1 2 0 0 0 0 0 0 0 0 0 0 0 0 0 0 0 0 0 0 0 0 0 2 1 0 0 0 2 5 1 2 0 0 0 0 1 4 0 1 1 0
0 0 0 0 0 0 0 0 0 0 0 0 0 0 0 0 0 0 0 0 0 0 0 0 0 0 0 0 0 0 0 0 0 0 3 1 0 0 0 0 0 0 0 0 2 0 2
0 0 0 0 0 0 0 0 0 0 0 0 0 0 0 0 0 0 0 0 0 0 0 0 0 0 0 0 0 0 0 0 0 0 0 0 0 0 0 0 0 0 0 0 2 2 0
0 0 0 0 0 0 0 0 0 0 0 0 0 0 0 0 0 0 0 0 0 0 0 0 0 0 0 0 0 0 0 0 0 0 0 0 0 0 0 0 0 0 0 0 2 0 0
0 0 0 0 0 0 0 0 0 0 0 0 0 0 0 0 0 0 0 0 0 0 0 0 0 0 0 0 0 0 0 0 0 0 0 0 0 0 0 0 0 0 0 0 0 0 0
0 0 0 0 0 0 0 0 0 0 0 0 0 0 0 0 0 0 0 0 0 0 0 0 0 0 0 0 0 0 0 0 0 0 0 0 0 0 0 0 0 0 0 0 0 0 0
0 0 0 0 0 0 0 0 0 0 0 0 0 0 0 0 0 0 0 0 0 0 0 0 0 0 0 0 0 0 0 0 0 0 0 0 0 0 0 0 0 0 0 0 0 0 0
0 0 0 0 0 0 0 0 0 0 0 0 0 0 0 0 0 0 0 0 0 0 0 0 0 0 0 0 0 0 0 0 0 0 0 0 0 0 0 0 0 0 0 0 0 0 0
0 1 0 0 0 0 0 0 0 0 0 0 0 0 0 0 0 0 0 0 0 0 0 0 0 0 0 0 0 0 0 0 0 0 0 0 0 0 0 0 0 0 0 0 0 0 0
0 0 0 0 0 0 0 0 0 0 0 0 0 0 0 0 0 0 0 0 0 0 0 0 0 0 0 0 0 0 0 0 0 0 0 0 0 0 0 0 0 0 0 0 0 0 0
0 0 0 0 0 0 0 0 0 0 0 0 0 0 0 0 0 0 0 0 0 0 0 0 0 0 0 0 0 0 0 0 0 0 0 0 0 0 0 0 0 0 0 0 0 0 0
0 0 0 1 0 0 0 0 0 0 0 0 0 0 0 0 0 0 0 0 0 0 0 0 0 0 0 0 0 0 0 0 0 0 0 0 0 0 0 0 0 0 0 0 0 0 0

GFSGBSN_con_mlcape_120.txt.gz
CAPE
12 21 14 37 20 12 23 28 32 124 105 65 14 5 5 0 0 3 5 3 1 0 0 0 4 56 23 7 1 0 6 28 0 0 0 0 0 0 0 0 0 0 0 0 0 0 0
13 12 11 32 26 9 22 25 13 25 20 16 10 2 0 0 0 0 0 0 0 0 0 0 38 5 1 0 3 5 0 0 0 0 0 0 0 0 0 0 0 0 0 0 0 0 0
15 5 5 20 26 22 6 9 17 6 2 5 2 3 0 2 3 13 12 0 0 0 0 15 31 3 0 1 5 2 0 0 0 0 0 0 0 0 0 0 0 0 0 0 0 0 0
12 10 12 11 30 30 1 6 9 10 1 4 3 0 3 8 8 13 28 20 6 11 16 43 22 0 2 9 3 0 0 0 0 0 0 0 0 0 0 0 0 0 0 0 0 0 0
7 3 7 11 18 23 28 3 2 5 3 3 4 1 9 11 28 13 17 37 42 18 13 37 2 0 7 20 0 0 0 0 0 0 0 0 0 0 0 0 0 0 0 0 0 0 0
2 5 7 9 4 22 14 17 4 1 0 0 0 0 0 0 0 6 16 10 8 1 1 1 0 0 2 3 0 0 0 0 0 0 0 0 0 0 0 0 0 0 0 0 0 0 0
0 4 4 5 3 11 11 22 19 9 1 0 0 0 0 0 0 0 0 2 0 1 5 6 5 3 0 0 0 0 0 0 0 0 0 0 0 0 0 0 0 0 0 0 0 0 0
13 0 5 4 5 4 8 14 14 6 6 0 0 0 0 0 0 0 0 0 1 0 6 12 4 3 0 0 2 0 0 0 0 0 0 0 0 0 0 0 0 0 0 0 0 0 0
15 9 0 4 5 2 3 8 13 8 4 2 0 0 0 0 0 0 0 0 0 0 0 3 1 3 9 10 4 0 0 0 0 0 0 0 0 0 0 0 0 0 0 0 0 0 0
14 12 5 0 4 7 4 6 6 7 0 1 0 0 0 0 0 0 0 0 0 0 0 0 0 0 9 3 0 0 0 0 0 0 0 0 0 0 0 0 0 0 0 0 0 0 0
12 14 10 2 1 4 2 3 4 4 1 0 0 0 0 0 0 0 0 0 0 0 0 0 0 0 2 0 0 0 0 0 0 0 0 0 0 0 0 0 0 0 0 0 0 0 0
6 10 12 8 0 2 1 1 2 1 0 0 0 0 0 0 0 0 0 0 0 0 0 0 0 0 0 0 0 0 0 0 0 0 0 0 0 0 1 0 0 0 0 0 0 0 0
7 5 14 6 2 3 6 1 2 4 1 0 0 0 0 0 0 0 0 0 0 0 0 0 0 0 1 0 0 0 0 0 0 0 0 0 0 0 0 0 0 1 0 0 0 0 0
2 6 7 2 1 1 6 10 2 7 0 0 0 0 0 0 0 0 0 0 0 1 0 0 0 3 0 0 0 1 0 0 0 0 0 0 0 0 0 0 1 0 0 0 0 0 0
2 2 2 3 0 6 2 4 0 2 0 0 0 0 0 0 0 0 0 0 0 0 0 1 1 2 0 0 0 0 0 1 0 0 0 0 0 0 0 1 0 0 0 1 0 0 0
3 1 4 2 0 3 4 2 1 0 0 0 0 0 0 0 0 0 0 0 0 0 0 0 3 1 1 0 0 0 0 0 0 0 0 0 0 0 0 0 0 0 0 0 0 0 0
3 1 4 1 0 1 1 0 1 0 0 0 0 0 0 0 0 0 0 0 0 0 0 0 0 0 0 0 0 0 0 0 0 0 0 0 0 0 0 0 1 1 0 0 0 0 0
0 5 1 2 0 0 0 0 0 0 0 0 0 0 0 0 0 0 0 0 0 0 0 0 0 0 0 0 0 0 0 0 0 0 0 1 0 0 0 0 0 0 0 0 1 0 0
0 0 0 0 0 0 0 0 0 0 0 0 0 0 0 0 0 0 0 0 0 0 0 0 0 0 0 0 0 0 0 0 0 0 0 0 0 0 0 0 0 0 0 0 0 0 0
0 0 0 0 0 0 0 0 0 0 0 0 0 0 0 0 0 0 0 0 0 0 0 0 0 0 0 0 0 0 0 0 0 0 0 0 0 0 0 0 0 0 0 0 0 0 0
0 0 0 0 0 0 0 0 0 0 0 0 0 0 0 0 0 0 0 0 0 0 0 0 0 0 0 0 0 0 0 0 0 0 0 0 0 0 0 0 0 0 0 0 0 0 0
0 0 0 0 0 0 0 0 0 0 0 0 0 0 0 0 0 0 0 0 0 0 0 0 0 0 0 0 0 0 0 0 0 0 0 0 0 0 0 0 0 0 0 0 0 0 0
0 0 0 0 0 0 0 0 0 0 0 0 0 0 0 0 0 0 0 0 0 0 0 0 0 0 0 0 0 0 0 0 0 0 0 0 0 0 0 0 0 0 0 0 0 0 0
0 0 0 0 0 0 0 0 0 0 0 0 0 0 0 0 0 0 0 0 0 0 0 0 0 0 0 0 0 0 0 0 0 0 0 0 0 0 0 0 0 0 0 0 0 0 0
0 0 0 0 0 0 0 0 0 0 0 0 0 0 0 0 0 0 0 0 0 0 0 0 0 0 0 0 0 0 0 0 0 0 0 0 0 0 0 0 0 0 0 0 0 0 0
0 0 0 0 0 0 0 0 0 0 0 0 0 0 0 0 0 0 0 0 0 0 0 0 0 0 0 0 0 0 0 0 0 0 0 0 0 0 0 0 0 0 0 0 0 0 0
0 0 0 0 0 0 0 0 0 0 0 0 0 0 0 0 0 0 0 0 0 0 0 0 0 0 0 0 0 0 0 0 0 0 0 0 0 0 0 0 0 0 0 0 0 0 0
1 0 0 0 0 0 0 0 0 0 0 0 0 0 0 0 0 0 0 0 0 0 0 0 0 0 0 0 0 0 0 0 0 0 0 0 0 0 0 0 0 0 0 0 0 0 0
0 1 0 0 0 0 0 0 0 0 0 0 0 0 0 0 0 0 0 0 0 0 0 0 0 0 0 0 0 0 0 0 0 0 0 0 0 0 0 0 0 0 0 0 0 0 0